GFSGL_700_spd_000.txt.gz
Wind_Speed
50 50 52 53 52 49 43 33 33 33 37 40 43 41 38 40 41 38 37 38 39 40 40 40 41 39 39 40 40 42 45 45 49 48 45 44 42 41 41 38 41 43 45
49 53 54 53 51 42 36 33 36 31 34 35 33 34 35 35 37 38 39 39 39 40 40 39 39 37 38 38 39 41 43 43 47 50 47 45 44 43 42 43 44 42 44
54 53 53 53 48 42 37 33 31 29 26 32 35 34 35 36 37 38 39 39 39 39 39 38 38 40 41 41 42 43 43 45 46 49 50 47 45 44 44 43 44 45 45
52 50 49 45 42 38 36 34 32 32 33 33 33 34 35 36 37 37 38 37 37 38 39 41 42 42 41 41 42 44 46 48 49 51 53 53 52 49 48 49 48 46 46
52 49 44 35 39 37 37 37 37 29 27 31 32 36 38 38 38 38 38 40 42 42 40 39 40 41 42 43 44 44 46 47 49 51 53 54 55 54 54 52 52 49 45
49 42 30 29 36 37 34 34 34 34 32 34 36 39 39 37 38 39 41 42 41 42 43 43 43 43 45 46 48 48 50 51 51 52 53 54 54 55 54 53 53 52 50
39 27 22 23 27 31 36 35 34 34 36 39 40 39 38 37 38 40 40 42 43 45 45 46 46 41 38 37 38 40 43 45 47 48 49 48 47 47 46 46 48 49 48
28 25 22 22 24 28 28 31 32 37 40 42 40 38 37 37 38 38 40 43 45 44 43 37 35 33 31 33 35 37 38 39 40 42 45 45 43 40 38 39 41 42 43
29 28 26 26 27 24 24 36 39 40 40 38 37 36 37 37 38 39 41 43 42 35 32 31 34 35 33 34 38 40 39 38 36 39 42 42 43 41 37 36 39 39 42
30 28 27 26 29 33 34 38 38 37 36 35 35 35 37 38 37 38 40 39 33 31 30 31 31 33 33 31 33 35 37 32 34 35 37 39 36 38 38 37 36 38 39
25 26 29 31 32 34 34 34 34 33 33 34 34 34 35 37 36 37 34 30 30 30 30 28 28 27 24 21 22 26 27 26 28 30 32 34 33 32 33 35 37 38 39
31 30 31 32 32 32 31 31 32 33 34 34 33 33 33 32 33 31 25 25 26 29 29 28 25 24 22 19 18 20 21 22 24 25 25 27 29 29 28 29 31 36 39
29 31 30 30 30 30 31 31 32 33 34 33 33 32 31 27 27 22 20 20 20 21 24 25 23 23 22 19 19 16 17 19 21 23 23 23 23 23 26 27 29 31 33
30 28 28 29 29 30 30 33 32 32 32 33 33 32 29 24 20 16 15 14 14 17 21 23 26 24 19 13 11 12 12 13 17 19 18 18 21 22 23 24 26 24 26
26 26 28 30 30 31 31 31 31 31 32 32 33 32 28 23 15 13 12 11 14 17 21 24 24 15 10 6 4 5 7 9 12 10 9 11 15 18 18 19 20 18 18
24 27 30 31 32 31 30 28 29 30 29 31 30 30 24 22 14 11 9 10 13 16 19 22 23 15 9 5 4 4 4 4 4 3 3 4 5 5 8 11 15 16 15
26 30 31 31 31 29 28 28 29 29 28 28 28 25 22 18 11 8 7 8 12 16 16 18 22 21 15 10 7 6 5 3 2 1 2 1 5 5 4 7 10 10 6
30 32 32 30 29 28 28 30 30 29 28 25 25 21 19 14 9 6 5 8 13 14 15 16 18 21 22 19 14 8 5 4 2 0 2 5 3 4 6 8 6 5 3
32 32 29 28 26 26 28 28 29 28 26 26 21 18 15 12 8 5 4 6 9 13 16 16 16 17 19 21 21 18 14 9 3 1 3 2 3 4 6 7 7 7 9
31 28 26 25 25 27 26 28 27 26 25 23 20 16 10 8 6 5 3 4 7 11 14 15 15 15 15 16 19 21 21 20 17 10 5 6 7 8 8 9 10 12 14
25 24 22 24 25 25 27 27 26 25 24 21 20 14 9 7 4 3 2 2 5 8 12 14 15 15 15 15 15 16 16 17 19 20 18 9 2 7 7 6 7 9 10
22 21 20 22 22 24 27 26 24 23 22 22 18 12 8 6 5 3 1 1 3 5 9 11 13 13 14 14 15 15 14 14 16 17 18 19 16 6 2 6 7 8 7
19 17 20 21 21 24 27 25 24 22 22 19 19 13 9 6 5 3 2 1 1 3 6 9 10 11 12 13 13 13 13 13 14 15 15 17 17 17 15 8 3 2 4
15 17 19 20 20 24 26 24 23 23 20 17 19 17 9 6 5 4 3 2 1 2 3 6 8 10 11 11 12 12 13 13 14 13 13 14 14 15 15 15 13 10 5
17 18 19 19 20 23 25 23 22 23 19 16 17 18 11 8 5 5 4 3 2 2 2 4 6 7 8 9 10 11 12 13 13 12 13 13 14 14 13 12 11 10 8
18 17 18 17 19 22 23 22 21 21 19 16 15 16 14 10 6 4 4 3 2 1 4 5 5 6 7 8 9 10 11 12 12 12 12 12 12 12 11 10 9 9 8

GFSGL_700_spd_003.txt.gz
Wind_Speed
47 49 50 53 56 58 54 47 33 30 31 31 29 29 37 43 42 39 37 38 39 40 40 42 44 45 46 46 45 45 45 46 52 53 51 48 46 46 42 42 39 47 47
46 48 53 54 53 52 50 42 33 32 33 28 27 29 32 35 36 38 40 42 44 43 43 43 43 42 43 42 42 42 43 43 47 52 53 50 49 48 47 45 44 42 48
50 52 54 53 50 48 39 33 34 36 36 32 30 30 32 34 36 39 41 42 42 42 42 42 41 41 41 41 43 45 46 48 49 52 54 54 50 48 48 48 47 47 46
55 55 54 51 46 34 30 35 36 37 35 34 31 29 29 31 34 38 40 40 41 40 39 40 40 40 40 41 41 43 44 46 48 51 54 55 55 51 48 48 49 48 48
54 53 51 44 32 28 33 36 36 35 34 30 32 35 35 36 39 40 41 41 40 40 39 39 39 41 43 45 48 47 48 49 49 50 51 51 52 53 51 48 50 49 48
55 50 40 29 26 26 26 26 26 25 27 32 36 39 40 41 42 43 43 43 42 41 41 40 42 45 44 45 47 49 50 52 52 52 52 52 52 52 51 51 49 48 49
50 40 30 28 24 28 31 33 33 29 31 36 39 41 42 41 42 43 43 43 42 41 42 44 46 45 41 38 37 38 40 42 45 46 48 47 47 46 47 48 47 46 47
37 33 32 30 29 28 30 31 30 33 38 39 40 40 39 39 41 43 43 42 41 41 43 45 41 35 33 35 36 37 38 39 39 41 43 42 41 40 41 39 38 39 40
34 33 30 27 28 30 33 36 36 37 40 39 38 37 39 40 42 42 41 41 39 39 41 34 35 34 33 33 35 37 38 38 37 38 41 41 40 40 38 36 36 36 37
28 31 34 36 35 32 32 35 36 36 35 35 36 38 39 40 40 40 39 38 37 37 31 31 32 34 33 31 32 33 31 26 27 30 33 35 35 35 34 36 33 34 34
33 33 30 32 32 32 33 35 35 35 35 36 36 36 37 38 37 37 36 35 35 30 30 29 29 30 28 27 27 26 25 22 20 23 24 27 28 30 31 33 32 31 32
30 30 32 32 32 32 33 34 34 34 34 35 35 34 33 33 34 33 30 30 28 28 27 27 27 26 24 24 24 22 22 22 21 20 21 21 21 22 23 27 29 29 28
27 33 32 31 31 33 34 34 34 34 34 34 34 34 32 30 30 28 27 23 23 22 22 25 27 27 21 18 16 16 16 17 18 17 17 17 17 17 20 23 25 25 25
32 32 30 30 33 35 35 35 34 34 33 34 34 33 31 29 25 23 19 18 16 15 18 22 26 23 18 13 10 9 10 11 12 14 15 15 17 17 17 20 24 25 26
31 30 30 34 36 35 34 33 32 32 33 34 34 33 31 27 20 18 15 12 10 13 15 19 23 19 17 13 11 9 9 9 10 11 13 11 9 11 13 15 17 19 21
28 29 33 36 36 33 30 29 30 31 31 33 32 30 29 25 20 15 11 8 8 11 14 16 19 21 15 11 9 9 9 8 8 8 9 9 5 4 6 5 7 10 9
29 31 34 35 31 29 28 29 31 30 31 31 29 28 25 20 17 12 8 5 6 10 13 13 16 19 20 16 11 8 7 6 6 6 7 5 6 6 5 4 5 5 3
31 33 33 30 27 26 28 30 31 32 30 26 26 24 21 18 14 9 6 3 5 10 12 11 13 15 17 19 19 15 10 7 6 5 4 2 2 2 3 4 5 5 4
31 32 28 25 25 26 27 29 31 30 29 27 23 25 20 16 13 8 4 3 4 8 11 11 11 12 13 15 18 19 19 16 10 5 6 5 6 7 5 6 6 7 8
27 25 23 22 24 25 26 30 31 29 28 25 26 22 15 11 10 8 5 3 3 6 9 11 11 10 11 12 13 15 16 17 17 15 6 7 8 8 7 8 9 10 11
22 21 20 22 24 24 27 30 29 28 27 25 23 19 14 9 7 6 4 4 3 4 6 8 9 10 11 12 13 14 15 16 16 17 17 14 4 5 8 7 8 10 10
19 18 20 22 23 23 27 30 28 27 26 22 22 19 13 9 7 6 4 4 3 3 3 5 7 9 10 11 12 12 13 14 15 16 17 17 16 10 4 6 8 8 7
17 18 21 21 21 23 28 28 27 26 25 21 21 20 13 10 7 6 5 5 4 3 3 4 6 7 8 9 10 11 12 12 13 14 16 15 16 16 14 9 4 3 3
18 19 18 19 19 22 26 26 25 24 25 23 21 19 14 10 6 6 5 5 4 4 3 4 6 7 7 8 9 10 11 12 12 13 13 14 14 14 14 14 13 11 7
18 17 17 18 18 21 24 25 25 23 23 23 22 19 16 11 7 4 5 5 4 3 1 5 5 6 7 8 9 11 11 11 11 12 12 11 11 11 12 12 12 11 10
18 17 17 17 18 20 22 24 24 23 21 21 20 18 17 16 10 6 6 6 3 1 3 5 6 6 7 8 10 10 11 11 11 11 11 11 11 11 10 10 10 10 9

GFSGL_700_spd_006.txt.gz
Wind_Speed
41 41 45 51 56 57 55 55 53 47 39 31 30 31 33 28 32 34 34 35 35 36 36 37 38 39 40 41 43 44 46 48 52 54 53 51 50 52 50 47 45 44 45
41 46 51 56 54 57 55 51 47 39 32 33 34 35 30 29 30 31 32 32 35 38 41 42 42 41 41 40 40 41 43 43 47 50 49 49 48 47 49 48 48 45 45
45 51 51 56 56 54 50 43 36 32 32 36 35 35 31 31 31 31 32 33 36 39 40 40 40 40 39 39 40 42 42 44 45 49 50 50 50 48 47 47 46 47 46
50 52 56 58 56 48 42 33 30 33 32 31 31 33 31 31 32 32 33 36 38 39 39 39 39 39 40 40 40 40 42 44 46 48 49 50 50 48 48 48 47 46 47
51 54 56 54 47 38 30 30 27 28 29 30 28 31 34 34 36 39 40 41 40 39 37 37 37 39 40 41 44 44 46 48 49 50 50 50 51 51 49 45 47 43 44
54 54 50 43 37 33 32 30 30 29 23 25 31 35 37 38 40 42 42 42 41 41 41 39 39 39 40 43 44 46 46 46 46 47 47 48 48 49 49 46 45 44 43
52 47 38 38 33 34 32 32 33 34 35 36 37 37 38 38 40 41 41 42 42 42 41 40 41 40 42 43 40 38 38 38 40 41 42 40 40 38 39 40 40 41 41
43 39 37 33 32 35 37 35 33 33 34 36 36 37 36 36 38 39 41 42 41 40 38 40 40 39 35 36 37 36 35 34 35 37 41 41 40 37 36 35 33 34 34
37 35 34 36 35 31 30 31 31 32 34 35 36 36 36 37 39 39 41 40 38 35 37 36 36 33 33 34 35 35 34 32 31 31 32 35 37 36 35 34 33 31 31
38 38 35 32 31 31 31 31 32 35 36 36 35 36 37 37 37 37 38 37 34 35 32 30 28 30 29 32 32 32 30 27 25 23 23 25 26 28 29 32 30 30 29
35 35 29 31 33 32 31 34 36 36 36 36 35 35 35 36 36 36 36 35 35 32 28 25 24 26 29 30 30 29 26 24 22 21 20 19 18 20 22 25 28 29 28
38 29 31 34 33 32 34 37 38 36 36 35 34 33 33 33 34 34 33 34 31 29 25 24 24 26 28 24 22 21 21 20 19 17 17 17 18 18 18 21 22 25 26
27 30 34 32 32 34 38 38 36 35 34 34 35 35 33 31 30 30 31 28 26 23 22 22 23 25 20 16 14 12 10 10 11 13 14 15 16 17 18 20 20 20 19
29 32 33 32 33 37 38 35 34 33 33 35 36 35 33 30 28 28 24 22 19 17 16 16 19 22 19 13 12 12 11 11 10 10 11 11 11 12 15 17 16 16 18
30 31 32 34 37 37 34 31 31 33 35 37 37 35 33 30 27 21 19 16 13 12 12 13 15 18 17 15 13 12 11 11 10 10 11 12 11 8 7 11 13 13 14
28 30 32 35 36 34 30 28 30 32 35 35 33 33 30 28 24 19 15 13 11 10 10 11 13 17 19 15 12 10 10 9 8 8 8 8 9 9 7 3 3 5 5
28 31 33 34 31 29 28 30 31 32 33 33 31 29 28 27 20 16 13 10 9 9 10 11 11 13 17 20 17 12 9 8 5 5 5 5 7 9 8 7 8 10 6
29 30 31 29 28 26 28 29 32 35 32 29 27 28 27 20 16 13 10 8 8 9 10 9 9 10 12 14 16 17 16 13 8 5 3 4 4 4 4 2 2 1 1
27 27 25 24 24 26 28 29 33 33 31 30 26 25 24 18 14 11 7 6 7 8 8 9 10 10 11 12 13 14 16 17 17 15 7 7 6 5 5 3 4 4 4
21 22 22 22 24 26 27 30 32 30 30 29 26 25 21 15 11 10 8 6 6 7 8 8 9 10 11 11 11 13 15 16 16 17 17 9 6 8 8 7 8 10 10
20 21 22 23 25 24 26 30 30 29 29 28 27 26 22 14 9 8 7 6 5 6 6 7 7 8 9 11 12 13 13 14 15 15 16 17 15 7 6 7 7 7 8
20 21 23 22 22 22 25 29 29 28 27 27 26 25 21 14 9 8 7 6 5 5 6 6 6 8 8 9 10 11 13 14 14 13 13 15 17 18 13 7 5 7 8
19 21 22 21 21 21 24 27 28 27 26 26 26 25 22 15 11 8 8 7 6 5 5 4 4 6 7 8 9 10 11 11 11 12 14 15 15 15 15 14 12 8 6
19 20 21 21 20 20 22 25 26 27 25 24 24 24 22 18 13 8 8 7 6 5 3 1 4 5 6 8 8 9 10 10 10 11 12 13 13 13 13 13 12 11 11
18 20 20 20 20 20 22 24 25 25 25 24 22 21 20 20 15 9 7 7 7 4 1 3 4 5 7 7 8 9 10 10 10 11 11 12 11 12 12 12 11 11 10
17 19 18 18 19 20 21 22 24 24 23 22 21 20 18 18 17 14 10 9 7 4 2 3 5 6 7 8 9 9 10 10 11 11 11 11 11 11 11 11 11 11 11

GFSGL_700_spd_009.txt.gz
Wind_Speed
47 46 46 46 46 50 52 54 54 50 43 36 32 29 30 33 33 29 29 31 30 34 34 33 32 33 35 34 34 36 38 41 45 45 46 47 46 48 49 50 52 53 50
47 47 41 48 51 53 55 56 52 44 34 29 28 28 34 34 37 32 30 31 30 31 33 34 36 37 37 36 36 37 38 40 42 45 44 45 46 44 45 46 48 49 50
38 42 44 50 53 54 53 46 38 31 29 28 26 30 30 30 34 31 30 32 30 30 33 35 35 36 36 36 36 37 38 40 42 45 46 44 46 44 43 44 46 46 45
43 47 52 54 52 47 42 36 32 30 29 28 29 32 35 34 32 34 34 35 36 35 35 34 34 35 36 36 37 39 39 41 42 45 46 46 47 47 46 46 47 46 45
45 49 51 49 45 41 38 34 33 30 31 33 32 31 32 36 38 38 36 37 37 36 33 33 34 35 35 37 40 40 41 42 43 46 48 47 47 48 48 46 47 45 46
48 49 47 42 37 37 36 36 37 35 33 33 32 32 32 33 34 35 35 36 35 36 37 36 36 36 36 37 38 39 40 41 42 42 41 40 39 39 40 41 42 44 45
46 45 41 36 36 38 38 34 32 31 30 29 31 33 34 34 35 35 35 37 37 37 37 37 37 35 35 36 36 36 36 35 37 37 38 37 36 35 36 37 36 36 36
44 41 38 36 37 36 31 30 29 29 30 33 35 36 35 34 35 35 36 36 35 35 35 35 35 34 32 33 32 31 32 33 34 35 37 35 34 35 36 37 36 35 34
41 41 36 36 36 31 31 31 29 31 34 37 37 36 36 35 35 35 36 35 33 33 33 33 34 31 27 28 29 31 32 31 31 30 29 30 30 29 30 31 34 34 33
39 38 36 35 31 33 32 31 33 37 38 36 35 35 35 34 34 35 36 36 35 34 32 30 27 25 24 25 29 33 35 32 28 25 24 26 24 24 22 25 27 30 30
35 36 31 30 34 33 32 34 37 38 36 34 33 34 34 35 35 36 36 35 34 32 30 25 21 20 21 25 29 28 25 21 19 19 19 19 19 19 19 20 21 24 25
32 30 29 31 32 32 34 37 38 34 33 32 34 34 34 33 32 31 31 30 30 29 24 21 20 19 21 24 21 18 15 11 9 9 10 12 14 16 16 18 19 20 23
30 28 29 31 31 33 36 37 33 32 33 34 35 36 34 31 29 28 28 26 24 23 20 19 19 19 20 17 13 10 7 7 6 6 7 8 12 14 16 17 17 19 21
29 27 29 29 31 34 35 34 32 32 34 35 37 36 33 30 28 26 21 19 17 15 14 14 14 15 17 12 7 6 7 6 6 5 6 8 9 10 9 10 12 13 15
25 27 27 29 33 33 32 31 31 32 35 38 37 35 33 29 27 23 20 16 13 11 11 11 10 12 15 11 8 8 7 7 6 5 7 8 9 10 9 8 7 9 9
24 25 27 30 31 30 28 28 29 31 35 35 34 34 30 29 25 18 16 13 11 10 10 9 8 9 12 16 16 12 10 9 6 5 5 4 7 8 10 8 5 2 5
23 26 27 28 27 25 26 28 29 31 32 33 33 30 28 27 19 15 13 12 10 10 11 10 8 9 10 15 15 15 15 10 6 4 4 5 5 7 6 8 9 8 7
24 24 23 23 22 23 25 27 31 32 31 30 30 28 28 23 17 13 11 11 12 12 11 9 9 9 11 11 12 12 14 14 13 7 4 5 4 3 3 2 1 2 2
19 20 20 20 21 23 23 26 31 32 31 30 28 27 26 20 15 12 11 9 9 10 10 10 9 10 11 12 12 12 12 13 14 15 12 5 7 5 3 3 3 3 3
17 18 19 20 20 20 22 26 29 31 30 29 28 27 25 17 13 11 10 9 8 9 9 9 8 9 9 11 12 12 13 13 13 14 15 14 4 5 6 5 6 8 9
17 18 19 20 19 20 21 25 28 30 30 28 28 28 26 17 13 10 9 8 8 8 8 8 8 9 11 10 11 12 12 12 12 12 13 14 14 7 3 2 4 6 6
16 18 20 20 20 20 20 23 26 28 29 28 27 27 26 20 15 10 10 9 8 8 7 7 6 8 8 9 9 10 11 11 11 11 12 12 11 12 12 10 6 4 5
15 17 20 20 20 19 20 22 24 25 27 27 26 24 24 23 17 11 10 9 8 7 6 4 3 5 7 8 8 9 9 9 9 9 11 11 11 11 11 11 11 10 9
15 16 19 19 19 18 19 21 23 23 24 25 25 23 23 22 20 14 10 9 7 6 4 1 2 4 6 7 8 8 9 9 9 10 10 10 10 10 10 11 10 9 9
15 16 18 18 18 18 19 20 22 23 22 22 23 23 21 20 19 17 13 10 8 6 4 1 1 4 6 7 7 8 8 9 9 9 9 9 9 9 10 10 10 10 9
15 16 16 17 18 19 20 21 22 22 23 21 20 20 20 18 17 15 14 12 9 7 5 2 2 3 5 6 7 7 8 8 8 9 9 9 10 10 10 10 10 10 10

GFSGL_700_spd_012.txt.gz
Wind_Speed
40 37 38 38 42 44 47 51 53 50 45 39 34 30 29 26 31 37 39 34 29 29 31 31 31 33 33 35 34 31 32 32 35 36 37 37 38 41 43 46 48 50 51
31 33 40 43 46 48 51 50 43 38 34 31 29 27 26 34 39 36 36 33 31 30 31 33 33 32 34 36 36 36 35 35 37 39 38 38 40 42 43 43 44 47 48
37 43 45 47 49 50 48 41 35 32 26 27 28 30 32 35 38 38 35 32 33 34 35 35 36 36 36 36 36 37 37 37 38 40 40 39 41 41 41 43 43 43 45
39 43 47 48 48 46 40 36 35 32 27 29 32 35 37 36 36 34 37 38 39 39 38 35 34 33 34 33 35 37 37 39 39 40 42 42 42 41 41 43 44 43 43
45 47 47 47 44 39 36 35 37 35 32 30 30 30 30 31 33 33 34 36 36 36 35 34 34 35 34 36 38 38 38 39 40 40 39 41 40 40 41 42 45 44 45
45 46 46 44 41 36 35 36 34 31 29 28 27 28 32 34 37 36 36 36 36 35 35 34 34 35 35 36 37 37 36 37 38 39 40 41 40 39 38 38 39 40 42
44 44 43 40 37 34 34 31 29 30 29 29 32 35 37 36 36 36 36 35 34 33 32 32 33 33 34 35 34 33 33 34 35 35 37 36 36 36 36 38 39 39 39
42 42 41 39 35 35 30 31 30 30 31 34 37 37 35 34 35 34 34 34 34 34 33 33 33 32 31 31 32 31 31 32 32 32 34 33 33 33 34 35 36 37 38
42 40 37 36 35 30 32 33 32 33 35 36 34 33 33 33 36 37 37 37 36 34 33 32 31 30 29 29 29 29 29 28 30 34 34 32 30 28 27 30 32 33 34
40 37 35 34 33 31 33 33 34 36 36 33 32 32 34 35 36 37 38 37 35 33 30 28 28 27 25 25 26 27 28 29 30 28 27 25 23 22 23 26 25 28 29
38 36 34 33 30 31 32 33 35 35 34 32 33 34 35 37 36 34 33 33 31 30 28 25 23 22 21 21 23 25 25 22 20 18 15 16 17 18 19 21 23 23 23
36 35 33 30 28 30 32 33 34 34 32 33 34 36 37 36 33 30 29 28 28 27 23 21 19 19 19 19 21 19 15 12 9 7 6 6 9 11 14 18 21 21 20
34 31 33 26 28 29 32 32 32 31 33 34 36 38 36 34 31 28 27 26 23 21 20 18 17 17 16 17 16 12 9 8 6 5 4 5 7 9 12 14 17 18 17
34 31 24 26 26 28 30 30 30 31 33 35 38 37 36 32 29 28 24 19 17 15 14 13 12 11 13 13 8 5 6 4 4 3 3 5 6 7 9 10 10 12 14
27 21 23 24 26 26 27 26 27 30 34 36 36 36 35 31 28 24 20 17 14 11 10 10 8 9 11 12 3 1 2 2 1 1 2 3 5 7 9 8 7 6 8
18 20 22 24 24 23 22 24 27 29 34 35 34 34 31 30 25 19 16 14 12 10 9 9 8 7 7 9 10 10 7 5 3 2 1 1 3 5 7 8 8 5 3
18 20 21 20 20 20 21 22 25 30 33 31 32 33 31 28 21 15 14 12 10 11 11 10 8 7 7 8 10 11 12 11 7 4 3 2 1 3 4 5 6 7 7
18 17 18 18 18 20 20 21 24 28 31 31 31 31 31 26 18 13 12 11 12 11 10 10 9 8 8 8 9 10 11 11 11 10 4 5 4 3 3 2 2 2 2
15 15 17 17 18 18 18 20 23 27 30 30 30 31 31 24 18 13 11 11 10 10 9 9 9 9 7 10 11 10 9 9 10 12 12 4 4 5 5 6 6 5 5
14 15 16 17 18 18 19 20 23 25 28 29 30 29 29 24 19 14 13 11 10 9 9 9 9 8 9 10 10 10 9 9 9 10 11 12 5 2 5 7 8 8 9
14 15 16 18 18 18 18 19 22 24 26 28 29 28 27 27 21 15 13 11 10 9 9 9 7 7 8 8 9 9 9 9 10 10 10 10 10 8 4 3 6 8 9
15 15 16 18 18 18 18 19 20 23 24 25 27 27 26 26 25 17 14 12 11 9 8 7 5 5 6 7 8 9 9 9 9 8 8 8 8 8 8 8 6 4 4
15 15 15 17 18 17 17 18 20 22 24 24 24 25 25 24 24 21 16 14 11 9 8 5 2 3 5 6 7 8 8 8 8 7 6 6 6 7 7 6 6 6 6
15 15 15 17 17 17 18 19 20 21 23 24 23 23 23 22 21 21 19 15 12 10 9 7 4 3 4 5 6 7 7 7 6 6 6 6 7 7 7 6 7 7 7
15 15 16 16 16 17 18 20 21 22 22 22 22 21 21 21 20 18 17 16 14 11 10 9 7 4 3 5 6 6 6 7 7 7 7 7 7 8 8 8 8 8 8
15 15 15 15 15 17 18 20 20 21 21 22 21 21 19 19 19 18 16 15 14 12 11 9 8 7 6 5 6 7 8 8 8 8 8 8 8 8 8 9 9 9 9

GFSGL_700_spd_015.txt.gz
Wind_Speed
36 40 40 41 44 46 49 50 52 50 46 37 33 28 29 30 31 32 35 37 37 36 29 28 29 29 29 29 28 26 25 30 29 28 28 30 33 34 34 36 39 42 42
36 37 39 43 46 46 49 50 50 45 34 31 34 34 34 36 35 32 31 34 36 31 30 28 32 32 33 33 33 32 31 29 29 33 32 33 34 34 35 36 37 35 37
36 38 40 41 45 46 47 45 44 39 35 35 32 31 32 35 37 38 35 35 36 36 35 35 37 37 36 36 36 36 35 32 34 37 39 34 35 35 36 37 37 37 36
38 40 42 43 45 45 43 40 37 35 36 34 32 30 30 30 31 32 32 34 35 36 36 37 36 35 34 34 34 35 36 37 38 39 40 38 35 33 34 36 37 37 38
40 41 40 41 41 38 39 38 37 37 33 31 30 30 30 31 31 36 36 36 35 35 35 35 34 32 35 33 35 36 37 38 38 39 41 39 33 28 28 29 32 33 35
40 36 32 36 39 38 37 35 35 32 31 30 29 31 31 30 36 35 33 35 35 34 34 34 34 35 35 35 34 35 35 36 37 38 39 40 40 38 38 39 40 40 41
36 35 34 40 37 36 32 30 28 30 29 29 28 28 32 31 35 34 34 35 36 36 36 35 34 32 33 34 34 37 35 34 34 34 37 36 37 36 37 37 38 40 41
31 33 43 42 36 32 29 28 28 26 26 26 28 32 33 32 37 38 38 39 39 37 36 34 33 32 31 32 32 34 33 32 32 30 32 31 33 33 34 35 37 39 39
31 34 39 38 29 33 30 28 26 26 27 28 31 33 34 35 37 39 40 40 38 35 33 31 29 28 28 29 31 31 30 28 27 28 31 32 33 34 34 35 35 35 35
32 31 45 36 31 31 30 26 26 26 29 34 31 34 36 37 39 39 36 35 34 32 30 28 26 26 25 26 26 26 26 25 26 28 29 29 29 26 25 28 27 29 28
31 36 43 38 27 31 29 24 26 26 30 32 35 35 37 38 37 37 34 32 32 31 29 25 20 21 23 22 22 23 24 23 23 20 18 15 13 13 15 18 21 22 23
44 43 39 36 34 28 24 23 27 28 31 33 35 37 37 35 36 36 31 31 30 28 25 22 20 20 21 21 20 20 20 16 12 10 9 7 7 8 9 12 16 18 20
36 33 29 34 25 20 23 24 29 28 31 33 37 38 37 36 34 33 30 26 22 22 21 20 19 17 16 15 16 14 10 8 8 8 8 7 7 9 10 12 14 17 19
30 30 27 21 20 23 21 24 26 27 29 34 37 36 36 35 33 31 25 20 19 18 17 15 14 12 11 13 9 4 4 5 7 6 5 5 5 5 6 8 9 10 11
30 25 17 19 22 22 23 24 24 26 28 32 35 34 36 35 32 27 22 19 17 15 14 12 10 9 10 12 10 4 3 4 4 4 5 3 2 4 6 7 8 6 5
22 16 18 18 19 20 21 22 24 23 27 31 32 32 33 34 28 22 18 16 15 14 12 11 10 9 8 8 7 4 1 1 2 3 3 3 2 3 4 6 8 8 2
16 17 16 16 17 19 21 21 22 26 29 30 31 31 31 33 25 20 16 15 13 13 12 11 10 9 7 6 6 7 7 8 5 2 5 5 4 2 2 2 3 4 5
16 15 15 16 17 19 21 21 22 24 27 29 32 30 30 31 26 20 16 14 13 13 12 11 10 9 7 6 8 9 8 8 8 8 3 6 7 6 5 5 5 4 3
16 15 15 15 17 19 20 20 21 24 26 27 28 30 30 30 27 22 17 15 13 12 12 11 10 9 6 8 9 8 8 8 8 9 10 5 4 7 7 7 8 7 8
17 16 16 15 17 18 19 20 21 23 25 26 26 28 28 28 28 24 18 16 14 12 11 11 10 7 8 7 7 8 8 8 8 8 8 10 7 3 6 7 9 10 10
17 17 16 15 16 18 18 19 20 22 24 26 26 26 27 27 26 26 20 18 16 13 11 9 8 6 6 6 7 7 7 7 6 7 7 8 7 7 5 4 5 7 8
17 17 16 15 16 17 18 19 20 22 24 25 26 26 24 25 25 24 23 20 17 14 12 10 7 6 6 6 7 7 7 7 6 7 6 6 6 6 6 6 6 7 6
16 16 16 15 16 17 17 19 21 22 23 24 25 25 25 24 23 23 22 21 19 16 12 11 9 7 6 7 7 8 8 7 7 7 6 6 5 6 6 6 6 7 7
16 16 16 16 16 16 17 18 20 21 22 23 24 24 24 24 22 21 20 19 18 16 14 12 11 10 8 7 7 8 8 8 8 8 8 7 7 7 6 7 8 8 9
16 16 16 16 15 15 16 18 19 20 22 23 24 24 24 23 22 21 20 18 17 16 15 14 12 11 11 9 8 8 9 9 9 9 9 8 8 8 8 8 9 9 10
17 16 16 15 14 14 16 17 18 20 22 23 23 23 23 23 22 21 20 19 17 15 14 14 13 12 11 11 11 10 10 10 11 10 10 10 9 9 10 10 11 11 12

GFSGL_700_spd_018.txt.gz
Wind_Speed
38 41 40 39 41 42 46 46 47 48 48 44 40 33 35 36 37 36 37 34 30 31 26 25 28 29 27 27 27 27 27 26 31 29 25 24 26 30 28 29 39 41 41
43 39 38 38 41 43 46 45 45 45 42 40 37 36 32 32 33 36 37 37 35 32 27 30 32 33 33 33 36 35 33 32 33 35 33 33 30 30 32 32 31 34 35
38 38 40 40 41 45 48 41 42 42 40 37 34 32 31 32 32 32 32 33 31 33 34 35 35 33 34 33 33 33 33 35 36 38 39 34 35 32 31 33 35 36 37
43 48 46 45 48 48 42 44 41 40 38 35 31 32 31 31 32 33 33 34 33 34 33 33 34 34 34 31 31 32 33 34 34 35 36 36 35 33 31 31 32 31 33
41 48 40 40 38 46 46 49 40 36 38 36 33 31 30 31 30 33 33 31 32 33 33 33 33 32 33 34 34 37 35 34 35 35 36 37 36 34 28 29 32 32 31
35 39 34 47 43 42 49 48 38 34 39 37 33 32 31 32 35 35 34 33 34 37 37 36 35 34 32 28 30 34 34 33 33 33 34 36 35 34 34 34 37 37 38
45 46 40 45 47 37 47 45 37 35 36 36 33 33 33 33 36 38 38 38 39 39 40 39 36 34 33 33 35 36 34 33 33 31 33 32 34 32 34 35 37 40 43
39 43 40 51 42 34 45 46 36 34 36 33 33 35 34 34 37 40 40 40 40 38 37 35 32 30 29 31 32 32 32 32 34 35 34 29 30 30 31 32 34 37 37
34 41 42 49 33 31 48 43 29 35 34 32 33 36 35 37 39 41 40 38 37 36 33 30 28 27 26 26 28 29 29 29 29 29 29 28 27 28 29 33 36 38 38
39 44 45 40 39 38 46 29 30 36 30 33 32 31 35 39 39 38 39 37 35 33 31 28 24 23 23 22 23 24 25 23 25 25 25 25 27 27 26 30 31 32 30
45 46 41 38 37 38 33 28 37 31 32 33 30 33 37 38 36 38 38 36 35 33 28 24 20 18 20 22 22 23 24 24 22 22 21 18 15 13 11 12 14 17 18
42 39 34 28 20 26 28 24 28 31 29 28 30 35 38 36 36 37 36 32 28 27 25 23 21 19 18 19 20 20 20 19 17 13 11 9 8 7 7 8 10 12 14
39 35 30 28 27 23 20 26 28 28 27 28 31 36 38 36 36 36 29 25 23 23 22 20 18 17 15 14 15 15 12 8 8 7 7 7 7 7 9 9 11 13 15
37 32 27 22 18 19 20 23 26 26 26 27 31 35 37 35 37 31 25 20 19 19 19 17 16 14 12 12 12 6 3 5 5 6 5 6 6 4 4 5 8 10 10
32 27 19 18 19 18 19 22 23 23 25 27 30 33 36 34 35 31 24 21 19 19 18 16 14 12 12 11 11 7 3 3 4 5 5 5 4 2 3 4 6 8 4
28 20 19 18 16 17 18 20 22 23 24 26 28 29 32 32 33 29 22 19 18 18 17 15 14 13 12 12 11 11 8 4 4 5 6 6 5 2 1 2 4 7 5
23 20 18 16 16 17 19 21 22 23 24 25 27 28 30 32 33 30 22 18 16 15 15 15 14 14 12 8 8 8 7 6 4 4 7 8 7 6 4 3 2 3 3
20 20 17 16 16 17 19 20 22 22 23 26 28 28 29 32 31 30 23 18 17 16 15 15 14 13 10 8 10 10 9 7 6 6 4 6 10 9 7 6 5 5 4
20 18 18 17 17 17 18 19 20 21 23 25 26 28 28 29 30 29 26 21 18 16 14 14 13 11 6 9 10 10 10 9 8 8 9 6 4 8 9 8 8 9 9
21 18 18 17 16 17 18 19 19 21 23 25 27 26 26 26 27 28 27 24 20 17 14 13 11 8 6 7 9 10 10 10 9 9 8 7 6 3 3 5 8 10 11
19 19 18 17 16 17 17 18 19 21 23 24 26 26 26 25 25 25 26 25 22 18 15 13 11 9 8 8 8 9 9 9 8 8 8 7 7 6 6 5 5 5 6
19 18 18 17 16 16 17 18 18 20 22 24 25 26 25 25 24 24 24 24 22 20 17 14 11 9 8 8 8 8 9 9 8 8 8 7 7 6 6 6 6 6 6
19 18 17 17 16 16 16 16 17 18 20 22 24 25 25 26 25 22 22 23 22 19 18 15 13 11 11 9 8 8 8 8 8 7 7 7 7 7 7 7 7 7 7
20 19 18 17 17 16 15 15 16 17 19 21 23 24 24 25 25 23 21 21 21 20 18 16 14 13 12 11 10 8 8 9 9 9 8 8 8 7 7 7 8 7 8
19 20 19 18 17 15 14 15 16 17 19 21 22 22 23 24 25 24 22 20 20 20 18 17 15 14 13 12 12 12 11 10 10 10 9 9 9 9 8 8 8 9 9
21 21 19 17 16 15 14 15 16 17 19 20 21 21 22 22 23 24 23 21 19 18 18 17 16 14 14 13 12 12 12 11 10 10 10 9 9 9 9 9 10 11 11

GFSGL_700_spd_021.txt.gz
Wind_Speed
43 43 42 44 41 45 47 42 47 45 45 44 46 43 40 39 37 34 34 36 34 33 30 27 25 25 32 33 28 27 26 25 32 35 32 28 25 23 24 21 25 27 31
42 43 44 43 47 48 49 47 47 43 47 49 47 41 40 37 35 35 35 35 34 33 32 30 33 34 33 32 35 36 34 36 38 41 40 35 30 28 29 28 25 27 29
42 43 45 46 49 44 50 43 42 39 42 45 42 39 38 36 35 34 34 33 32 32 33 34 36 35 33 33 34 35 36 35 36 37 38 37 35 29 30 31 32 31 32
41 41 46 45 45 52 54 51 44 41 38 41 40 42 41 36 34 32 31 31 32 33 33 34 34 34 34 33 34 34 34 33 34 34 35 36 34 29 30 31 31 32 32
40 41 46 50 49 46 50 48 60 36 36 44 43 42 42 35 30 31 32 33 35 37 38 38 37 37 35 35 36 36 35 35 35 33 33 33 32 29 29 29 31 31 31
38 44 50 48 42 45 48 44 38 39 45 39 37 41 39 30 32 35 38 40 40 42 43 42 40 37 36 35 37 36 36 36 36 35 33 32 29 29 29 31 32 33 32
46 51 52 43 47 49 51 44 42 27 44 42 34 40 31 33 37 40 43 44 43 40 39 39 37 34 32 31 32 33 33 35 35 37 37 31 30 27 29 30 32 33 35
54 48 44 44 44 47 49 40 38 36 45 35 36 32 32 34 37 41 43 42 40 39 37 34 33 31 29 28 28 29 29 29 31 33 33 30 30 26 28 30 30 32 35
45 47 46 46 43 41 39 36 37 34 28 33 30 29 31 33 38 42 40 41 39 37 34 32 29 27 25 24 25 26 25 24 25 27 28 28 28 25 23 25 26 30 31
45 48 48 44 41 35 30 23 26 34 33 29 27 27 29 35 39 41 40 42 38 32 26 23 21 21 21 20 23 21 22 21 23 23 23 23 23 22 22 24 25 27 28
46 46 43 39 33 28 23 28 27 28 27 26 26 27 32 36 39 39 40 38 33 28 26 24 21 18 17 18 20 20 19 19 18 18 18 18 18 16 13 10 9 11 12
43 42 40 35 29 25 22 21 24 25 24 24 25 26 31 34 37 37 36 31 27 27 26 23 21 19 17 15 15 15 16 15 13 12 11 9 9 9 10 10 9 10 11
39 37 35 30 23 17 18 19 21 22 23 24 25 27 30 33 34 35 32 26 23 23 23 22 20 18 16 14 15 16 12 8 7 5 6 6 6 7 7 8 8 8 9
34 33 30 24 19 17 17 20 20 21 22 23 24 27 29 31 34 33 29 21 20 21 20 19 18 17 17 15 13 12 8 5 3 3 4 4 3 3 4 4 4 8 9
30 29 25 21 19 16 17 18 20 20 21 22 24 26 28 29 32 34 32 25 21 21 20 18 17 17 16 13 12 10 7 4 3 3 2 2 3 3 2 2 2 5 2
29 24 22 20 18 16 16 17 19 19 19 20 22 24 26 28 29 31 32 27 23 20 19 18 17 17 16 13 12 13 13 11 6 4 4 6 6 5 4 2 1 5 5
27 23 20 19 17 17 16 16 16 17 19 20 22 24 25 27 27 29 30 28 24 20 19 18 17 16 14 11 11 13 13 12 9 6 6 9 9 8 6 5 4 2 2
24 21 21 19 17 17 17 17 17 18 18 21 23 25 26 26 26 26 27 28 24 22 19 17 16 14 10 9 10 12 12 11 10 10 9 4 10 10 9 8 7 7 7
21 19 19 18 17 17 16 17 17 17 19 21 23 24 25 25 25 25 25 25 25 23 20 17 15 12 8 7 8 10 11 10 9 9 9 9 5 6 10 11 10 10 10
20 19 19 18 18 17 17 16 16 17 18 20 21 23 24 24 24 23 23 22 23 23 21 18 15 13 10 8 8 9 10 10 9 8 7 7 6 6 4 5 7 8 10
18 18 19 18 18 17 17 16 16 16 16 18 20 22 24 24 23 22 21 21 21 21 20 19 16 13 12 11 10 9 10 10 9 8 7 6 6 5 4 2 3 2 3
18 18 19 19 18 17 16 16 15 15 15 17 19 21 22 23 23 23 21 20 20 20 19 18 16 14 12 12 11 9 9 10 9 9 8 7 6 5 6 5 4 3 4
18 18 19 18 18 18 16 16 14 14 15 17 19 20 21 21 23 23 22 20 19 18 18 17 16 15 14 12 11 10 8 8 9 8 8 8 8 7 7 6 5 6 5
18 19 20 20 19 17 17 15 14 14 15 16 17 19 20 20 21 22 22 21 19 17 17 17 16 15 15 14 13 12 11 11 10 8 8 8 8 7 7 6 6 6 6
17 19 20 21 19 17 16 15 14 15 15 16 17 18 18 18 19 21 22 22 21 19 17 17 16 16 15 15 14 13 12 12 11 10 9 8 8 7 7 7 7 7 7
21 20 20 20 20 18 17 16 16 16 16 16 17 17 18 18 18 19 21 22 22 21 19 17 16 16 15 15 15 14 13 12 11 10 10 8 8 7 7 8 8 8 9

GFSGL_700_spd_024.txt.gz
Wind_Speed
42 41 41 44 45 46 48 48 48 49 50 42 47 44 35 35 37 41 42 40 38 35 34 32 31 31 31 33 34 34 35 37 38 36 32 33 33 33 31 29 27 21 27
40 40 42 45 47 49 50 51 54 46 47 49 50 34 30 34 35 40 39 35 32 31 31 32 33 35 36 36 36 36 37 39 41 42 41 41 40 38 36 33 30 30 27
39 40 43 46 48 49 54 55 52 39 42 45 37 30 32 34 34 39 37 32 30 32 34 36 38 38 38 37 37 37 37 37 38 40 39 38 37 35 35 35 35 34 33
41 43 45 46 47 49 57 55 46 42 47 43 41 39 30 33 34 36 36 33 33 35 38 40 42 42 42 41 41 40 40 39 38 39 39 38 36 33 30 33 34 33 33
45 45 43 47 52 55 42 45 49 50 46 41 41 32 34 32 34 36 34 34 37 40 43 42 42 42 41 40 40 40 40 38 37 37 38 38 35 32 29 29 33 34 32
44 45 50 54 50 43 42 45 47 47 45 42 23 33 28 34 33 35 35 37 41 44 43 41 41 41 40 38 36 36 37 36 36 37 38 38 33 31 29 29 31 32 32
49 51 51 42 44 44 44 41 38 36 33 23 27 25 31 31 34 34 38 42 44 42 42 43 41 38 36 34 31 30 31 31 33 34 36 35 34 31 30 29 29 31 31
48 42 41 42 43 41 41 36 31 24 20 26 23 23 29 32 33 36 39 42 42 42 40 36 34 32 29 27 26 25 26 26 27 30 31 30 30 28 29 28 29 31 32
40 39 40 42 41 39 38 33 28 22 29 20 24 27 29 30 32 36 40 41 41 37 31 28 30 29 26 24 22 23 23 20 22 24 25 26 26 25 25 27 26 28 27
40 41 42 41 39 38 34 30 28 27 21 23 25 27 28 31 34 36 41 41 39 31 25 24 25 24 22 21 21 21 20 17 20 21 22 24 24 22 22 21 20 22 23
42 42 40 38 37 33 29 23 18 18 21 23 25 26 27 31 33 35 38 39 36 28 27 27 24 21 19 17 17 18 17 14 13 14 15 17 17 18 17 16 15 13 11
37 37 35 34 33 28 22 19 18 19 21 23 24 25 27 29 31 33 36 37 31 27 26 26 24 22 20 18 16 16 16 15 11 9 8 8 9 9 9 10 11 11 10
35 35 34 32 27 23 21 19 18 18 21 22 23 23 25 27 29 30 32 32 26 25 24 25 23 22 20 18 16 16 14 10 7 5 4 5 6 6 7 9 11 11 10
33 33 32 28 24 21 21 19 18 19 21 21 21 22 25 27 28 28 28 28 25 23 22 23 22 21 21 18 15 15 11 7 4 3 2 2 2 3 4 4 5 6 9
32 32 29 26 23 22 20 18 18 18 19 19 20 22 25 26 27 28 29 29 29 26 23 22 22 21 19 15 12 12 12 9 5 2 0 2 3 2 3 3 1 4 2
31 30 27 23 22 21 20 19 19 19 19 19 20 22 24 25 26 26 26 27 28 26 23 22 21 21 17 14 11 14 13 11 9 3 2 3 4 5 6 3 1 3 5
31 28 24 22 20 20 19 18 16 18 19 18 19 22 23 24 25 25 25 26 26 27 24 22 20 19 16 13 12 13 14 12 10 9 5 6 8 9 8 6 5 5 3
29 25 21 20 20 20 19 18 17 16 16 16 18 20 22 23 24 24 24 24 24 24 24 21 19 17 15 13 11 12 13 13 11 9 8 5 6 10 10 10 9 9 9
27 23 21 20 20 19 18 18 17 16 17 16 16 19 21 22 23 23 24 23 22 22 22 21 19 17 15 13 12 11 12 11 10 9 8 7 6 2 6 10 12 12 11
25 22 20 20 20 19 19 18 17 16 17 16 16 18 20 21 22 22 22 22 21 21 20 20 20 18 16 15 13 12 11 13 12 10 9 7 6 5 3 3 6 9 11
22 20 20 20 20 19 19 18 17 16 16 15 15 16 18 20 20 21 21 21 21 20 19 19 18 18 17 15 14 13 12 10 11 11 9 8 7 6 4 3 3 3 4
20 19 20 20 20 21 20 18 17 17 16 14 14 16 16 18 18 19 20 21 21 20 19 18 17 17 16 15 15 13 13 12 10 10 10 9 8 7 6 5 5 5 5
19 19 20 20 21 21 20 18 17 16 15 15 15 15 15 16 17 18 19 20 20 20 20 18 17 17 17 16 15 14 13 12 12 12 10 10 9 8 7 6 7 7 6
19 19 19 21 21 21 20 18 18 17 16 16 16 16 15 16 16 17 17 19 20 20 20 21 19 18 17 17 16 15 15 14 13 12 12 11 9 8 8 7 7 7 6
20 21 21 21 21 21 20 19 18 18 17 17 17 17 16 16 16 17 17 18 19 20 20 21 21 19 18 17 17 17 16 14 14 13 12 11 11 9 8 8 8 8 7
22 21 21 22 22 21 21 20 19 19 19 19 18 18 18 17 17 18 18 18 19 20 20 22 22 21 20 18 17 17 16 15 14 13 12 11 10 10 10 9 8 8 8

GFSGL_700_spd_027.txt.gz
Wind_Speed
41 40 39 41 43 44 46 48 52 54 53 56 54 46 45 45 26 27 33 37 37 36 34 34 35 36 36 37 37 37 38 38 43 42 42 41 40 37 33 33 32 33 31
40 39 41 43 45 46 49 51 52 57 60 49 42 41 43 44 33 30 32 35 38 34 32 34 36 38 40 41 41 41 41 39 40 41 38 39 40 38 39 40 41 39 41
39 43 44 45 47 47 50 54 59 56 49 48 47 46 43 38 28 33 33 36 35 32 34 37 41 43 44 42 41 41 42 42 41 42 41 39 38 36 36 36 34 37 38
43 44 44 46 46 52 56 55 49 46 44 43 40 38 32 33 32 34 36 37 34 34 37 41 44 45 45 45 43 42 40 40 39 41 41 40 38 36 35 34 32 32 35
43 44 46 49 51 51 49 48 43 41 39 35 30 20 22 26 30 33 36 33 34 37 41 44 44 45 45 45 43 41 39 38 37 37 36 38 37 36 33 32 33 31 31
43 45 47 48 46 46 45 42 39 37 33 26 17 22 25 25 30 29 31 33 37 41 44 44 44 42 39 36 34 34 34 34 34 32 32 34 34 34 33 32 32 30 31
46 47 46 46 45 45 42 39 37 33 27 22 25 26 24 27 29 32 33 36 39 42 43 43 41 37 35 34 32 30 28 28 30 29 29 30 30 28 30 31 31 30 30
47 46 47 46 45 42 38 37 35 31 27 26 24 24 26 28 30 32 34 36 38 41 41 36 33 33 33 32 30 27 24 22 23 24 26 25 25 25 26 28 28 29 29
44 45 44 44 41 38 35 35 34 29 24 21 21 24 26 28 30 33 35 36 38 40 35 29 30 30 30 28 26 25 22 19 21 23 23 23 22 22 21 22 22 24 25
42 41 41 41 38 36 34 33 29 24 21 21 23 25 26 28 30 33 35 37 39 39 30 26 27 28 27 25 25 23 22 18 17 17 20 20 20 19 18 19 20 20 21
37 38 38 38 36 35 33 30 25 23 21 22 23 24 26 28 29 33 35 37 38 37 31 26 25 26 25 24 22 21 19 17 16 14 12 12 14 14 14 15 15 16 16
36 37 38 37 36 34 30 26 24 22 22 22 23 24 25 27 30 32 34 35 36 36 30 26 25 25 26 24 22 20 17 15 11 8 8 7 7 7 7 7 8 9 9
38 39 38 36 34 32 28 25 24 22 21 22 22 22 24 27 30 31 32 31 31 32 29 26 24 25 26 23 19 18 16 12 8 6 5 4 3 3 4 4 6 8 10
37 36 35 34 33 29 26 24 22 21 21 21 21 22 23 26 28 29 29 29 28 29 28 25 23 23 24 22 17 15 15 12 8 5 3 2 1 1 2 2 4 6 7
36 34 34 33 30 26 24 23 22 21 20 20 21 21 23 25 27 28 29 28 27 27 28 26 23 21 19 18 15 16 17 13 8 5 2 0 0 0 1 2 1 5 3
37 35 32 30 27 25 23 22 22 21 20 20 20 21 22 24 26 27 27 27 26 26 27 27 24 20 17 16 16 15 16 14 11 8 3 3 3 3 3 4 2 2 2
37 34 31 29 25 23 24 21 20 21 20 20 19 20 21 23 25 26 26 27 26 26 26 25 24 21 18 16 15 15 15 16 13 11 9 5 6 6 6 7 6 5 3
35 33 30 28 25 22 22 22 21 20 18 18 19 19 20 21 23 23 24 25 26 24 23 23 22 22 19 17 15 14 13 15 15 13 11 9 6 7 10 10 9 9 7
34 31 29 26 25 23 23 22 21 20 19 17 18 18 18 20 21 22 22 23 24 24 22 22 22 21 20 19 17 15 13 11 12 13 11 10 8 6 6 10 11 12 11
31 30 27 24 23 23 22 21 21 20 19 18 17 16 17 18 19 20 21 22 23 23 22 21 21 21 20 19 18 17 15 14 12 12 13 11 9 7 5 4 4 7 9
30 28 25 22 22 22 22 22 21 20 19 19 18 17 17 18 18 18 19 20 21 22 22 21 20 21 20 19 19 18 17 14 12 12 10 11 10 8 7 6 5 4 4
28 26 24 22 23 23 22 23 23 21 20 19 18 17 17 17 18 17 18 19 19 20 21 22 21 20 20 19 18 18 17 16 15 13 12 11 10 10 8 8 6 5 5
26 25 24 23 23 22 23 24 23 21 20 20 18 18 18 18 18 18 17 18 19 19 19 21 22 22 21 20 19 18 17 17 16 15 14 13 13 11 9 9 8 7 6
26 24 24 24 25 25 23 23 23 22 20 19 19 19 19 19 19 19 18 18 19 19 19 20 21 22 24 22 21 20 18 17 16 15 14 14 13 13 11 9 9 8 8
26 25 24 25 25 25 25 24 23 22 22 21 21 21 21 20 19 19 19 19 19 20 20 20 21 21 23 24 23 21 20 18 17 16 14 14 13 12 12 12 10 9 9
27 26 25 25 25 26 26 25 25 25 24 24 23 23 23 23 21 20 21 20 20 20 21 21 21 22 23 24 24 23 20 19 17 16 14 13 12 12 11 11 12 11 10

GFSGL_700_spd_030.txt.gz
Wind_Speed
38 38 39 40 42 44 47 48 50 53 56 53 49 47 45 42 41 38 38 32 29 32 36 40 38 38 38 37 38 40 42 42 47 46 42 38 38 37 37 38 38 37 34
37 37 39 41 44 45 48 52 55 55 51 49 44 41 39 37 34 31 34 28 33 35 39 39 37 37 40 41 43 43 42 41 42 44 40 38 39 38 37 36 33 35 41
36 38 41 43 45 49 51 52 51 50 48 43 38 37 34 29 22 27 32 31 36 38 37 36 38 40 43 44 44 44 42 41 41 41 40 38 37 37 37 37 33 32 35
39 42 44 47 49 50 50 50 48 46 43 37 34 30 28 18 26 25 29 31 33 33 34 37 40 43 44 44 43 41 38 36 35 35 35 36 35 33 35 35 34 32 31
42 44 46 49 49 49 49 48 45 41 37 35 30 26 20 26 29 26 27 27 30 33 36 38 42 44 42 39 36 35 36 35 34 33 31 30 30 30 30 32 33 31 30
43 46 48 48 48 49 48 46 41 38 35 32 29 26 27 25 25 26 28 30 32 36 37 39 42 40 34 33 33 33 32 32 31 29 27 26 27 27 27 28 30 30 29
45 46 46 47 47 47 45 42 40 35 34 32 29 25 24 24 25 27 28 30 33 35 38 40 41 34 32 34 33 31 29 27 27 26 24 24 23 22 22 25 27 28 28
44 44 45 46 44 42 41 39 37 33 31 29 25 22 22 24 26 27 29 31 33 36 37 39 37 31 31 31 31 30 27 24 22 23 24 24 23 21 19 20 22 24 24
43 44 44 43 41 40 39 37 35 32 29 26 24 23 23 25 26 27 30 33 35 35 36 38 35 30 29 29 29 28 27 23 19 18 20 21 19 18 19 19 17 18 18
42 42 41 40 41 40 38 36 34 30 27 26 24 24 24 25 25 27 31 34 35 35 34 35 32 29 28 28 28 28 25 21 19 17 17 16 15 12 14 16 15 17 16
39 39 39 40 39 37 36 35 32 29 26 25 23 22 23 24 24 28 31 34 35 35 34 34 30 27 26 26 26 24 23 22 17 14 9 9 9 9 7 9 12 14 14
38 38 39 39 38 36 36 35 30 26 25 23 22 22 23 23 24 27 30 33 34 34 32 32 31 27 24 24 23 21 20 19 15 11 8 7 6 5 4 4 4 5 7
37 38 39 39 37 36 35 33 28 26 24 22 21 21 22 22 24 27 29 31 32 31 31 30 30 27 23 22 22 20 19 19 14 9 7 6 5 4 3 3 3 1 3
38 38 39 38 37 34 33 29 26 25 24 22 21 21 21 21 23 26 28 30 29 29 27 27 29 27 23 21 19 18 20 19 14 9 7 5 4 3 3 4 1 2 3
39 39 38 38 36 33 30 28 25 24 23 21 20 20 21 21 22 24 27 28 28 27 26 25 26 25 21 19 20 18 17 18 16 12 7 5 2 2 2 3 3 6 4
38 38 37 36 34 32 28 27 25 23 22 20 19 19 20 20 20 23 25 26 27 27 26 24 25 25 22 19 17 17 16 16 16 13 11 6 5 3 1 3 3 4 3
37 36 34 34 33 30 26 24 24 23 23 21 20 20 20 19 19 21 23 24 25 26 26 24 23 23 23 21 18 17 16 14 15 15 13 10 6 8 7 4 4 4 2
35 34 33 32 31 28 24 22 23 23 21 20 21 20 20 19 19 20 21 22 23 24 25 24 22 22 22 21 20 18 16 16 14 15 14 13 11 9 7 8 8 7 6
35 33 31 30 29 26 23 22 22 22 22 20 19 19 19 18 18 19 19 20 20 21 23 23 22 21 21 21 21 20 18 16 14 13 13 13 12 11 9 6 8 11 10
32 30 29 28 27 24 23 23 22 23 22 21 20 20 19 19 18 18 18 18 19 19 20 21 22 22 20 20 21 20 19 18 17 15 14 12 12 10 9 8 7 6 7
31 30 29 27 26 23 22 22 22 22 23 23 21 20 20 19 18 18 18 18 17 18 18 18 20 22 22 21 20 20 20 19 17 15 14 13 11 11 9 8 7 6 5
30 29 28 27 25 24 23 23 23 23 23 23 21 21 21 19 19 19 18 18 18 17 18 17 18 20 21 22 21 20 19 20 19 17 15 13 12 11 10 9 8 7 6
31 30 28 27 26 25 24 24 25 24 23 23 22 20 21 21 20 20 19 19 18 18 18 18 18 18 19 21 22 22 20 19 19 18 17 15 13 12 11 11 9 8 7
31 30 28 27 26 26 26 26 26 25 25 24 23 22 22 22 22 21 21 20 19 18 19 19 19 19 19 20 21 22 22 19 18 18 17 16 14 13 12 11 11 10 9
32 30 28 27 26 26 26 27 27 27 27 27 25 24 23 23 23 23 22 22 20 19 19 20 20 20 20 21 21 21 22 22 19 17 17 16 14 13 12 12 11 11 11
31 29 28 27 26 26 27 28 28 28 27 27 27 27 25 25 24 24 24 24 23 21 21 21 21 20 20 21 21 21 22 22 20 18 16 15 14 13 12 11 11 11 11

GFSGL_700_spd_033.txt.gz
Wind_Speed
39 35 35 38 40 42 43 45 46 48 49 49 49 45 40 35 32 33 29 27 25 28 30 34 36 39 38 37 39 41 43 44 47 45 43 40 39 38 36 35 37 36 36
32 36 37 38 40 42 43 45 47 49 49 49 46 40 36 33 29 27 22 28 28 28 33 35 36 36 37 39 41 43 44 43 43 42 39 38 37 37 38 35 35 36 35
32 34 37 39 40 43 45 46 47 48 47 44 40 36 33 30 27 21 25 27 26 29 31 32 34 36 37 40 42 43 40 37 36 38 37 35 35 34 34 34 34 35 35
33 36 38 40 43 44 46 46 46 46 44 40 36 32 29 26 24 23 26 24 26 27 29 32 34 36 39 41 40 35 34 36 35 36 34 32 31 30 29 30 30 31 33
34 37 39 42 44 45 45 45 44 44 41 37 33 31 30 27 25 23 24 25 26 28 30 32 34 36 38 37 33 32 34 34 33 33 32 30 27 25 25 24 27 29 31
35 38 41 42 43 44 44 43 43 42 39 35 32 30 28 24 22 22 24 24 26 30 33 34 34 35 36 31 29 30 32 31 30 29 29 27 26 21 21 20 23 27 29
36 39 41 42 42 43 43 43 42 40 36 34 31 28 24 22 22 23 23 24 27 31 33 34 33 34 35 32 29 30 30 28 27 26 27 26 24 22 21 19 19 23 25
37 39 41 42 42 42 41 41 39 38 35 33 29 26 24 22 23 23 22 24 28 31 33 33 33 34 34 31 30 30 30 28 25 23 21 21 20 21 22 19 17 18 19
38 40 41 42 41 40 39 38 37 36 34 31 27 25 23 23 23 23 22 25 28 30 32 32 33 33 33 30 29 30 29 24 23 22 21 21 18 15 15 17 17 16 15
39 40 41 41 40 39 38 38 36 35 32 28 26 25 23 21 22 22 23 25 28 30 31 31 31 32 31 28 27 28 25 23 22 18 16 14 11 10 9 11 13 15 15
39 40 39 39 39 38 38 37 35 34 30 26 25 24 21 20 20 21 23 26 29 30 31 30 29 30 28 26 24 23 22 22 20 17 13 10 9 9 7 5 6 9 12
39 39 38 37 38 38 37 36 33 32 27 25 24 23 21 20 20 20 22 25 28 30 29 29 28 27 27 24 21 20 21 21 19 14 11 9 8 6 5 4 4 3 4
38 38 37 37 37 36 35 34 32 29 26 25 24 22 21 19 19 19 20 24 26 28 28 28 27 26 25 23 20 20 19 20 19 13 10 8 6 5 5 6 6 3 2
37 37 37 36 36 34 33 32 30 27 24 24 23 22 20 19 18 18 19 21 24 26 26 26 25 25 25 24 21 20 19 17 17 15 9 6 4 2 3 3 4 5 2
36 35 34 34 34 32 32 30 28 25 23 23 22 21 20 18 17 17 18 20 22 24 25 25 23 23 23 22 21 19 18 17 17 15 13 7 4 2 1 1 2 5 5
33 32 33 33 33 32 30 28 25 23 22 22 21 20 19 18 17 16 16 18 20 22 23 23 23 21 21 20 20 19 17 16 15 15 13 11 6 5 5 2 1 2 4
32 33 33 33 32 30 28 26 23 21 23 22 22 20 20 17 16 16 15 16 17 19 21 22 22 21 20 20 20 20 18 17 15 13 14 12 11 7 7 8 5 2 2
33 33 33 31 29 28 26 25 22 21 21 20 22 22 20 19 17 16 15 15 16 16 18 19 20 21 20 19 19 19 19 18 16 15 13 13 12 10 8 5 8 7 6
33 33 32 29 29 27 25 23 21 21 20 21 20 21 22 20 19 17 15 15 15 15 16 17 18 19 20 20 19 19 18 18 17 16 14 13 12 11 10 8 6 5 8
33 33 31 30 29 27 25 23 22 21 21 21 20 21 21 20 19 19 17 16 15 15 15 15 16 17 18 19 20 19 19 18 18 17 16 15 13 11 11 9 8 6 5
35 34 33 30 29 27 25 24 22 22 22 21 21 21 21 20 19 20 18 17 16 15 15 15 15 16 16 18 19 20 19 19 17 16 16 15 14 13 11 10 8 7 6
35 34 33 31 29 27 25 23 23 23 22 22 21 20 21 20 19 19 19 19 18 17 16 16 16 16 16 16 17 19 20 20 19 17 16 15 14 13 12 10 9 8 7
36 35 33 31 29 27 26 24 23 23 23 23 23 22 22 22 21 20 20 20 20 19 18 17 16 17 16 16 16 17 18 19 19 18 16 15 15 14 13 12 11 9 7
36 35 33 31 29 26 25 24 24 24 24 24 24 24 24 23 22 21 21 22 22 21 20 19 17 17 17 17 17 17 17 18 19 19 17 15 14 14 13 12 11 10 10
38 35 32 30 27 25 24 23 23 24 25 27 27 27 26 25 24 23 22 23 24 23 22 21 20 20 19 18 17 17 17 17 18 19 17 15 14 13 13 13 12 11 10
36 33 30 28 25 24 24 24 24 25 26 27 27 28 28 28 27 25 24 24 24 24 25 23 23 23 21 20 19 19 18 18 18 18 18 16 14 13 13 12 11 10 10

GFSGL_700_spd_036.txt.gz
Wind_Speed
36 41 39 33 33 35 37 39 41 42 43 44 44 44 43 39 34 31 29 26 31 27 30 29 30 33 36 35 33 33 32 32 37 43 36 34 36 36 35 36 36 33 31
36 40 32 31 33 35 37 39 41 43 44 44 44 43 40 35 31 30 28 27 25 30 27 29 31 32 34 35 35 35 38 41 42 41 37 38 39 37 37 37 35 32 30
37 30 30 33 34 36 38 40 42 43 43 43 43 41 38 33 30 28 26 23 28 26 27 29 30 32 33 35 37 40 42 40 36 37 38 38 37 34 33 32 32 30 28
29 31 32 34 35 38 40 41 42 42 42 42 41 39 35 31 29 26 25 24 24 25 26 28 30 32 34 36 37 38 38 34 34 35 36 36 33 28 25 25 24 22 21
30 30 32 35 37 40 41 41 41 40 41 41 40 37 33 30 27 23 21 22 24 25 26 29 32 33 34 34 35 35 32 31 32 34 35 32 27 22 21 22 22 21 22
30 30 33 36 38 39 39 40 40 40 40 39 38 36 32 29 26 23 21 23 23 25 27 29 32 34 33 32 32 32 30 30 31 32 32 31 28 24 24 19 22 20 20
28 31 34 36 38 38 39 39 40 39 39 38 36 34 30 29 25 23 22 22 22 24 27 30 31 32 32 31 32 30 27 28 30 30 29 26 24 22 21 21 21 20 21
29 32 35 37 38 38 39 39 39 38 37 36 34 32 29 27 24 22 22 21 22 24 28 30 31 30 30 31 31 28 26 27 26 25 26 27 25 21 20 21 21 20 20
30 34 36 37 38 39 39 39 37 36 36 34 32 29 26 26 23 22 21 21 21 24 27 29 29 29 29 29 29 26 25 23 23 24 23 21 18 16 14 16 17 17 18
33 35 35 37 39 39 39 37 36 35 35 33 30 27 25 24 22 21 20 20 21 24 26 27 29 28 28 28 27 24 23 22 22 20 17 16 12 11 12 11 12 13 15
34 33 35 38 39 38 37 36 35 34 33 31 29 26 25 23 21 19 19 20 21 23 25 26 27 27 26 26 25 22 22 22 22 18 14 12 10 9 8 8 10 12 11
32 34 37 38 38 37 35 34 33 32 31 30 27 25 24 22 20 19 18 19 20 23 23 25 25 25 24 24 23 21 20 20 20 18 13 10 8 6 5 7 8 7 9
31 34 37 38 36 33 32 32 31 31 30 28 26 24 22 21 20 18 18 18 19 21 22 24 24 23 23 22 23 21 19 19 17 18 13 9 6 4 2 6 6 5 5
31 34 36 34 33 32 33 32 31 30 29 26 24 22 22 20 19 18 18 17 18 19 20 21 22 22 21 22 22 22 20 19 16 16 15 9 7 5 3 2 2 5 3
31 33 33 32 32 31 31 30 29 28 27 24 22 22 22 20 20 18 17 17 17 17 18 19 20 21 21 21 21 21 20 19 18 15 16 13 8 7 5 5 3 2 1
31 31 32 31 31 31 30 29 29 26 25 22 21 22 21 21 20 18 18 17 16 16 16 17 17 19 20 20 19 20 20 19 18 16 14 14 12 8 8 7 6 4 1
30 31 31 30 31 31 30 29 28 26 24 21 22 21 21 21 19 18 18 17 16 16 15 15 15 16 18 19 19 18 18 19 18 17 15 13 13 11 8 8 8 7 7
31 31 31 31 31 31 30 29 27 26 24 22 21 21 22 22 20 18 18 18 17 16 15 15 14 14 16 17 18 19 18 18 18 17 16 15 13 12 10 8 6 9 9
31 31 31 31 31 30 30 29 27 26 25 23 21 21 22 22 21 20 19 18 18 17 16 16 15 14 15 15 16 17 18 18 17 17 16 16 14 13 11 9 7 5 8
35 34 33 33 32 32 31 30 28 27 25 23 22 21 22 22 20 20 20 19 19 19 18 17 16 16 15 15 15 16 16 17 18 17 16 16 15 14 12 10 9 6 5
38 37 36 35 33 32 32 31 29 27 26 24 23 22 21 21 19 19 19 19 19 20 19 19 18 17 16 16 16 16 16 16 17 17 16 16 15 15 13 11 10 8 6
40 39 38 36 35 34 32 32 30 27 26 25 24 23 22 22 21 20 19 19 20 20 21 21 20 19 18 17 16 16 16 16 16 16 17 16 15 15 14 12 10 9 8
41 40 39 37 35 34 33 31 29 27 26 25 24 24 23 23 22 21 21 20 21 21 22 22 22 21 20 18 18 17 17 16 16 16 16 16 16 15 14 14 12 10 9
39 38 38 39 38 34 32 30 28 25 24 24 24 25 25 25 24 24 23 22 22 22 22 23 23 23 22 20 19 19 18 17 16 16 16 16 16 15 14 14 13 12 10
36 37 37 35 32 30 29 29 25 24 23 24 24 25 26 27 27 27 26 26 25 24 24 23 24 24 24 23 21 20 19 18 18 17 16 16 16 15 15 14 14 12 11
31 30 33 34 30 28 29 27 23 23 24 26 26 26 26 27 27 28 27 26 26 26 26 25 25 25 25 25 23 21 21 20 19 18 17 16 16 15 15 14 13 13 11

GFSGL_700_spd_042.txt.gz
Wind_Speed
32 32 35 38 39 43 42 32 31 30 33 36 39 40 40 41 41 40 40 37 35 33 31 32 31 31 32 33 34 31 34 37 42 44 44 44 46 43 41 36 34 35 37
34 36 38 43 40 44 39 32 31 31 35 37 39 41 42 43 40 38 38 36 34 30 29 29 30 31 31 29 29 32 34 36 40 46 45 43 43 42 38 34 34 35 35
37 36 39 42 42 47 33 32 31 33 36 38 39 40 41 41 41 39 36 35 32 29 29 31 30 28 28 29 31 34 36 39 40 42 42 40 41 37 34 33 32 30 27
36 36 39 47 40 42 30 30 30 33 36 37 39 40 40 40 40 37 33 32 31 30 29 31 29 29 29 30 32 35 37 38 38 38 38 38 36 33 32 32 31 27 27
36 36 41 42 44 32 29 28 29 32 35 37 39 43 43 40 39 32 31 31 31 30 28 29 28 29 30 31 33 35 35 35 35 36 36 34 32 31 30 28 26 25 22
35 39 43 44 34 28 26 27 30 32 36 38 39 40 37 36 36 31 30 30 29 28 28 27 26 27 30 33 35 35 35 35 34 34 32 31 29 28 30 30 31 32 31
38 43 45 39 34 24 27 31 28 33 36 38 38 39 34 33 33 31 30 29 28 27 27 26 25 26 29 31 32 32 32 31 32 32 31 29 30 28 28 27 25 23 22
41 43 45 34 29 28 26 25 30 35 38 37 36 37 34 32 33 32 30 28 28 27 26 25 25 26 28 30 31 30 29 29 29 27 27 27 27 23 23 21 18 17 13
44 39 33 28 32 23 22 26 32 36 37 36 34 32 32 33 33 32 30 27 28 26 24 24 24 25 26 29 29 29 27 27 27 25 25 25 24 20 19 18 14 14 15
42 33 28 22 17 20 24 28 32 35 35 35 34 31 31 31 33 31 27 26 27 25 22 22 23 23 25 27 28 28 27 26 26 22 22 21 20 17 15 15 14 13 16
46 28 18 17 18 22 25 30 33 32 33 33 33 31 29 30 31 28 25 26 26 24 22 21 23 22 23 25 26 26 26 26 25 24 21 19 19 15 12 10 10 13 14
37 26 19 18 21 25 29 31 33 34 32 32 33 31 30 30 28 25 22 23 25 23 21 20 21 21 22 23 24 25 25 24 24 23 21 19 19 16 12 10 9 12 12
24 23 19 21 24 28 30 32 33 34 33 30 32 32 31 28 26 26 24 23 23 22 22 20 20 20 20 20 22 23 22 21 22 23 21 19 18 19 14 12 12 11 13
25 28 24 24 28 29 31 32 34 34 35 34 33 33 30 26 24 25 25 24 23 21 21 21 20 20 19 18 19 20 22 23 22 21 22 21 19 17 18 14 12 12 12
21 21 25 27 29 31 32 34 35 35 36 36 32 32 29 27 25 24 23 24 25 24 22 21 20 20 19 18 18 19 20 21 21 21 21 21 20 17 17 16 13 12 11
24 27 29 31 33 33 34 35 34 36 36 35 31 28 27 27 26 25 24 23 24 25 24 22 21 20 19 19 18 18 18 19 20 21 21 20 20 19 17 16 15 11 10
29 31 33 35 36 36 37 38 38 36 35 34 31 28 26 25 25 26 25 24 23 24 23 22 22 21 20 19 18 18 18 18 19 20 21 20 20 19 18 16 15 13 10
32 34 36 38 39 41 41 40 38 37 36 33 31 30 27 25 24 25 25 25 23 23 23 21 21 21 21 19 18 18 17 17 18 19 20 20 19 19 17 16 14 13 11
37 39 40 42 44 42 40 39 39 37 36 34 32 30 28 25 25 25 24 24 23 22 22 20 19 21 21 19 19 18 17 17 17 18 18 19 18 18 17 16 15 13 12
41 42 42 41 42 44 43 44 40 37 41 35 32 30 29 28 24 24 24 23 22 21 20 20 19 20 21 20 19 19 18 17 17 17 17 17 18 17 17 16 15 14 12
45 42 42 44 44 43 42 41 37 36 39 38 35 31 29 30 26 25 25 24 23 21 20 19 17 18 19 20 20 20 19 18 17 17 17 17 17 16 16 15 15 14 13
49 48 46 40 39 41 40 38 35 34 33 34 29 30 33 29 25 25 24 22 22 22 21 21 19 18 19 19 20 20 20 19 18 17 17 16 16 15 15 15 14 13 12
51 49 48 41 39 38 38 32 33 27 31 31 27 28 27 26 23 25 25 23 22 22 22 22 22 22 21 20 20 20 21 21 19 17 17 17 16 16 15 14 14 13 12
46 44 42 39 31 37 36 28 31 31 32 30 27 26 26 29 27 25 25 25 25 25 25 24 24 24 24 23 21 21 21 22 22 19 18 18 17 17 16 14 14 13 12
44 40 35 30 26 26 29 33 32 32 30 30 29 25 23 24 25 26 23 25 25 25 25 25 24 23 22 22 22 21 21 23 23 22 19 19 19 18 17 15 14 13 12
38 30 26 25 23 26 31 32 34 29 29 30 29 29 31 33 31 24 23 24 23 22 22 22 23 23 22 22 23 22 22 21 22 23 21 20 19 19 18 16 15 14 12

GFSGL_700_spd_045.txt.gz
Wind_Speed
32 30 31 31 34 34 36 44 45 44 28 27 28 30 33 35 35 36 38 39 38 35 33 32 31 31 31 31 30 31 31 32 35 38 38 41 42 42 40 39 40 39 35
34 36 37 36 37 39 39 48 49 35 25 27 28 31 34 36 37 39 39 38 37 34 32 31 29 30 29 29 28 29 29 31 35 40 41 40 39 38 39 39 37 34 32
36 40 38 39 42 46 47 41 47 35 27 27 30 32 35 37 38 39 39 37 35 33 32 32 31 32 30 29 27 27 29 32 36 39 40 38 38 36 36 34 33 32 31
41 38 37 41 43 43 39 51 34 28 27 30 32 32 35 39 40 37 34 35 33 31 31 31 31 32 30 28 26 28 31 33 35 36 36 35 33 31 31 32 31 28 28
40 38 40 42 43 45 48 35 32 24 29 29 28 30 36 39 38 33 32 32 33 31 30 30 31 30 29 26 26 29 32 34 34 35 33 32 30 29 29 29 30 29 24
37 40 43 43 44 43 38 32 23 29 27 26 29 33 36 36 34 32 30 31 31 31 30 30 31 28 25 24 26 30 33 35 34 34 33 31 28 27 28 28 27 27 22
42 44 47 45 51 43 41 31 29 24 25 25 28 33 34 32 32 30 29 30 30 29 29 31 29 27 22 22 26 28 29 30 32 32 31 29 28 26 28 24 22 22 19
44 48 46 48 48 46 43 26 23 22 23 27 33 35 32 32 31 31 30 30 30 28 30 30 28 25 21 22 25 26 27 28 27 29 30 28 27 26 25 23 21 19 15
45 49 51 51 48 41 31 26 21 20 25 30 33 33 31 31 31 31 30 30 29 29 30 28 26 24 21 22 23 24 25 25 25 26 27 25 25 25 24 21 19 16 13
49 51 55 54 33 34 28 21 23 24 28 31 32 32 31 30 31 31 31 30 29 28 27 26 24 22 21 21 22 23 24 24 24 23 23 23 23 21 21 19 17 13 12
51 51 44 36 34 22 27 22 23 28 30 30 30 31 31 30 30 32 30 29 27 26 25 23 23 21 20 20 20 21 23 23 24 24 23 22 21 20 19 16 16 14 14
45 37 32 22 28 22 20 24 28 29 31 32 32 30 32 32 32 32 31 28 25 25 24 23 21 22 21 20 20 20 21 22 23 22 22 22 21 19 17 17 15 14 14
19 21 20 19 18 21 26 28 30 32 33 34 35 33 32 34 33 32 30 28 26 25 23 23 21 21 22 19 19 19 18 19 21 21 21 21 22 21 19 18 14 14 14
18 18 18 20 22 26 28 30 32 34 35 35 36 36 35 35 34 33 29 27 26 25 23 22 22 22 22 20 19 17 17 18 19 21 21 21 21 22 20 18 17 12 12
19 21 23 26 28 29 31 33 34 35 36 37 36 37 35 34 33 32 30 28 26 25 25 23 20 21 22 20 18 18 16 16 17 18 20 21 21 20 21 19 17 15 10
23 25 27 30 32 34 36 36 35 36 36 35 35 36 35 34 33 32 31 28 26 26 25 23 22 22 21 20 18 17 16 15 16 16 18 19 21 21 20 19 18 16 12
28 30 32 34 36 38 40 42 43 42 40 36 35 33 33 33 31 31 30 28 27 26 25 23 23 22 21 20 18 18 16 15 15 15 16 17 19 20 20 19 18 16 14
36 36 37 37 39 41 43 44 40 39 41 40 39 34 33 32 30 28 28 27 27 25 23 22 20 21 20 19 18 18 16 16 15 15 15 16 17 18 18 18 17 16 13
38 41 43 45 46 45 41 41 44 44 45 44 43 36 31 33 30 27 25 25 25 25 23 21 18 18 17 18 17 18 17 16 15 14 14 15 16 16 16 17 16 16 15
43 45 46 47 48 47 45 44 44 45 46 44 42 36 34 33 32 25 25 25 24 23 21 21 19 17 15 15 15 15 16 16 16 14 14 14 14 14 15 15 16 14 13
50 51 51 50 49 47 46 43 41 43 41 36 34 34 28 27 24 26 30 26 24 23 22 20 19 16 15 14 14 14 16 16 16 15 15 14 13 13 14 14 14 14 13
51 51 50 49 47 44 40 38 33 35 34 31 29 26 29 27 28 31 29 23 22 21 20 20 20 18 16 15 14 14 15 16 16 16 16 15 14 12 13 13 13 12 12
52 50 48 45 41 38 35 32 27 24 27 24 25 26 26 25 25 25 24 22 22 21 22 20 22 22 20 20 20 18 16 15 17 17 17 17 15 13 13 13 12 12 11
46 44 42 40 36 31 27 26 25 29 24 23 25 25 27 29 24 22 23 25 24 26 27 25 24 24 23 22 21 20 19 17 17 17 18 18 17 14 13 13 12 12 11
43 42 40 37 32 28 23 20 19 29 28 25 29 27 25 27 28 27 20 18 23 24 24 25 25 23 24 22 21 20 19 19 17 17 18 19 18 17 14 13 13 12 11
43 42 39 36 32 30 28 27 24 25 25 28 30 28 27 26 26 25 28 34 35 28 26 23 21 19 19 21 21 20 19 19 18 18 19 19 19 18 16 15 14 13 11

GFSGL_700_spd_048.txt.gz
Wind_Speed
26 32 32 33 36 37 38 40 34 39 46 54 42 48 31 34 34 34 35 38 39 37 36 35 35 34 33 31 30 30 31 33 34 35 35 37 40 42 42 41 41 41 40
27 31 34 32 37 38 47 46 41 45 55 47 42 38 32 34 32 32 34 38 37 36 35 35 34 33 31 29 29 29 30 30 32 35 37 38 40 40 41 39 36 36 36
28 29 26 33 40 40 42 42 46 57 50 56 48 34 33 35 32 32 35 38 39 37 36 35 34 33 32 31 31 29 27 28 32 35 38 37 38 37 36 35 33 30 30
30 29 30 36 33 39 42 50 53 51 56 46 36 34 37 34 29 31 35 37 36 37 35 34 33 33 32 32 30 28 29 30 32 34 35 35 33 31 32 32 29 29 26
27 32 35 37 40 42 45 50 49 54 47 39 35 39 38 30 27 33 36 36 36 35 35 34 34 34 31 30 29 28 29 30 31 33 34 33 32 30 30 28 29 29 20
30 32 36 39 43 48 50 52 54 50 45 41 39 32 23 26 30 35 37 35 34 34 33 34 33 33 30 28 27 28 28 30 31 33 33 32 31 30 27 27 28 26 21
36 37 39 43 46 49 53 58 60 48 39 39 24 24 25 29 32 33 34 34 34 33 33 33 32 30 29 27 26 26 26 28 31 31 31 30 29 28 27 25 24 23 21
35 39 40 43 48 54 59 50 34 41 29 23 24 24 30 31 31 32 34 34 33 33 32 31 30 30 29 27 25 24 24 25 27 29 29 28 29 27 27 26 24 20 16
38 42 45 49 53 54 35 39 29 24 24 20 25 29 31 31 31 33 35 34 33 32 32 31 29 29 29 26 24 23 22 23 24 26 27 27 27 27 27 26 25 20 14
40 43 48 48 45 36 40 26 22 19 21 25 28 29 30 32 33 33 33 34 33 33 31 30 29 29 28 25 24 22 21 21 22 23 24 25 25 25 25 25 25 20 16
38 47 38 36 36 29 25 23 22 22 25 29 31 31 32 33 34 35 34 34 32 32 30 29 29 29 26 25 23 21 21 20 20 21 23 24 24 24 23 23 23 23 18
36 35 30 28 27 27 25 25 25 28 30 32 34 35 35 35 36 35 35 34 33 33 30 28 28 28 26 25 23 21 20 19 19 20 21 22 22 22 22 21 20 22 20
29 25 25 25 25 27 28 28 30 32 34 36 37 37 38 38 38 37 37 35 33 32 30 29 27 26 26 26 24 21 20 19 19 19 19 19 21 22 21 21 20 20 18
24 24 25 27 28 29 31 33 35 36 37 38 39 40 41 40 38 36 36 35 32 31 29 29 27 25 25 26 25 22 21 20 19 18 18 18 19 21 22 21 19 17 18
22 25 27 29 30 32 33 36 38 39 39 40 41 42 41 39 35 36 36 34 32 31 30 29 26 24 23 24 26 23 22 20 19 18 17 17 18 19 21 21 20 18 17
25 27 29 32 35 37 39 41 41 42 40 39 39 37 36 38 38 38 37 34 32 30 31 28 25 24 24 24 23 22 21 19 18 18 17 17 17 17 19 20 20 19 16
30 32 35 37 40 42 43 45 47 45 44 41 37 37 35 43 39 38 35 32 30 29 31 27 25 24 24 24 22 21 20 19 19 18 16 16 16 16 18 19 19 17 16
37 40 43 45 46 47 48 49 49 49 49 45 41 41 41 38 38 37 35 33 31 28 28 27 25 24 24 22 21 19 19 19 19 17 16 15 15 15 16 17 17 17 15
41 43 45 46 47 48 49 50 50 50 51 50 44 41 37 37 38 37 33 35 32 27 25 25 24 22 23 21 19 18 18 18 19 17 16 15 15 15 15 15 15 16 15
46 47 48 50 51 51 50 49 48 47 46 43 39 34 36 34 32 30 28 28 26 25 25 23 22 22 21 20 18 16 16 17 18 17 16 15 14 15 15 13 13 13 14
48 50 52 52 51 49 46 44 41 40 40 38 34 28 34 32 29 26 26 24 22 26 28 22 21 22 22 20 18 16 14 14 15 16 16 16 15 14 15 13 12 12 12
52 52 50 49 47 45 43 40 38 37 35 29 23 25 28 26 25 25 25 25 25 24 22 20 19 21 21 20 19 17 15 13 13 15 16 16 16 15 14 13 12 12 11
50 48 46 44 43 42 41 38 35 32 28 24 20 24 22 20 22 23 22 21 18 21 20 18 17 20 21 21 21 21 19 18 16 16 16 17 17 16 15 13 13 12 11
46 44 43 43 42 41 38 35 31 27 23 15 20 21 21 19 22 23 21 24 23 21 20 19 23 25 25 23 22 22 22 20 20 18 17 17 18 17 17 15 13 12 12
43 42 42 42 40 39 36 33 31 30 27 31 24 21 22 22 21 22 24 24 27 26 23 22 25 23 22 23 25 24 22 21 20 20 19 17 17 18 18 17 15 13 11
40 40 39 38 37 36 36 33 31 30 32 36 36 33 29 26 24 23 25 25 24 26 34 32 30 28 22 19 19 21 21 21 21 20 19 18 17 17 18 17 16 14 12

GFSGL_700_spd_051.txt.gz
Wind_Speed
25 22 22 24 26 32 33 31 37 39 47 37 44 43 50 50 58 51 40 42 47 47 45 38 39 39 38 36 35 34 34 35 35 33 34 35 36 39 42 43 44 43 41
20 19 20 27 23 25 29 33 40 42 44 43 46 46 47 53 58 47 45 48 46 39 34 37 39 38 37 36 35 34 33 34 34 34 32 34 36 39 42 43 39 38 37
22 23 26 29 28 24 30 33 34 40 42 48 47 52 54 58 51 45 42 39 33 35 36 38 38 37 35 35 35 34 34 32 32 31 31 34 36 37 38 37 35 32 30
27 28 28 26 28 32 32 33 39 43 48 54 46 57 55 42 44 39 31 31 33 36 39 40 38 37 35 35 35 34 33 32 31 30 31 34 35 34 34 35 31 30 28
31 31 26 27 31 32 33 37 44 46 47 53 56 43 40 40 30 29 31 33 37 38 38 38 38 37 36 35 34 33 32 31 29 29 31 33 33 33 33 32 31 29 26
31 30 31 32 32 35 37 44 47 49 54 45 32 39 39 29 28 27 33 35 37 38 38 38 36 36 36 34 32 32 31 30 28 29 30 31 32 32 31 32 30 29 25
29 31 29 31 34 37 43 50 54 46 39 37 43 33 28 25 27 31 34 36 37 38 37 37 36 35 34 33 31 31 30 28 28 28 29 30 30 31 30 29 28 27 25
27 28 30 32 36 44 44 49 48 39 42 38 28 28 26 27 30 33 35 36 38 38 38 37 35 34 32 32 30 29 27 25 26 27 28 28 29 28 29 29 27 26 23
28 31 34 38 36 42 49 44 39 40 31 30 28 28 28 29 32 35 37 38 39 39 38 37 35 33 31 30 29 28 25 24 25 26 27 27 27 28 29 29 28 28 23
32 34 39 39 45 41 35 42 37 32 31 32 32 31 32 34 35 37 38 39 40 39 38 36 34 33 31 30 29 28 25 24 24 25 25 25 26 26 27 27 28 28 24
38 37 33 33 38 41 37 31 33 32 34 35 37 36 36 38 39 39 40 41 41 40 38 34 33 33 30 28 29 27 25 24 23 24 23 23 24 25 24 24 26 28 26
31 37 39 37 35 32 32 33 33 36 38 39 40 40 40 41 42 42 42 43 42 42 38 34 32 31 30 28 28 26 25 25 24 23 23 22 23 24 23 22 23 24 25
34 36 31 31 32 33 33 35 37 39 41 43 44 44 44 44 44 43 43 44 41 39 37 33 31 30 29 27 27 27 27 25 24 23 23 22 22 23 23 21 21 23 24
28 29 31 31 31 33 36 39 42 43 45 47 47 48 47 47 46 44 43 40 38 37 36 33 31 30 29 27 26 26 28 26 25 23 23 22 22 21 22 22 21 21 21
28 28 30 33 35 37 39 42 44 46 48 50 50 50 50 50 46 42 40 39 36 37 38 34 30 29 27 27 26 26 27 27 25 24 23 22 22 21 21 21 20 21 21
28 30 33 36 38 41 45 47 47 49 49 50 51 52 53 50 45 40 41 42 35 36 36 35 30 27 27 27 27 26 25 25 24 24 23 22 21 20 19 19 19 20 21
32 35 38 41 44 47 50 52 55 53 53 53 54 53 50 50 47 41 41 44 42 35 36 34 31 27 27 26 27 26 24 23 24 22 23 21 20 19 18 17 17 19 19
37 40 43 46 48 50 52 54 55 57 57 55 51 51 49 45 44 44 40 37 35 37 34 34 29 27 24 25 25 24 23 22 21 21 22 21 20 18 17 16 16 18 17
40 43 46 48 50 52 53 53 52 51 50 49 47 43 41 38 32 25 33 33 32 33 34 34 25 23 23 22 24 22 22 20 20 21 21 21 20 18 16 14 14 17 16
43 46 48 51 52 53 52 50 48 46 46 44 40 39 36 28 20 23 31 25 26 28 28 23 22 24 23 22 22 22 21 20 19 20 20 21 21 18 16 14 14 15 15
46 48 50 51 51 50 48 46 46 45 44 42 37 34 28 23 22 22 27 24 25 27 27 27 27 24 22 20 21 23 21 19 18 17 18 20 20 18 16 14 13 15 14
47 49 50 49 48 45 45 45 44 43 40 38 35 29 23 20 21 24 24 22 22 22 21 19 21 20 21 22 20 21 22 20 17 15 15 18 19 18 17 16 13 14 13
47 48 47 45 44 43 43 41 40 39 37 34 30 26 21 25 25 23 22 22 23 20 20 23 21 21 21 22 19 19 20 21 19 17 17 16 17 18 17 17 15 14 14
46 45 44 43 42 42 40 38 36 36 36 34 32 32 33 25 23 24 23 23 23 23 22 21 23 22 24 20 20 21 21 21 22 21 21 21 18 17 17 17 17 15 14
44 43 41 40 40 38 36 35 35 34 34 34 31 30 33 38 32 26 23 24 25 21 21 24 26 26 23 20 19 21 26 23 21 21 21 22 20 18 17 18 18 17 15
42 41 39 38 37 35 34 33 32 32 32 32 32 29 28 28 24 25 25 25 24 22 21 23 23 29 27 21 24 24 19 20 22 22 22 23 22 19 17 17 17 18 15

GFSGL_700_spd_054.txt.gz
Wind_Speed
23 23 24 21 20 21 24 26 25 26 26 36 39 34 40 41 45 49 51 39 41 44 44 40 36 37 38 40 41 40 38 38 39 37 36 36 36 35 35 37 38 40 40
20 21 22 24 23 23 24 26 25 26 29 26 36 37 43 44 51 46 38 42 43 38 34 34 35 38 39 40 40 39 38 38 38 37 35 34 33 33 35 36 37 38 38
22 24 24 23 24 23 23 25 28 29 29 40 33 43 45 44 46 39 43 41 33 32 33 35 38 39 40 40 39 37 37 37 37 37 35 32 30 31 33 34 34 34 34
26 28 29 29 29 20 24 28 31 33 41 30 42 41 47 41 39 41 37 31 31 32 35 37 38 39 39 39 38 37 37 36 36 35 34 31 29 31 32 33 31 32 31
28 29 29 29 31 28 26 30 36 36 41 44 45 48 39 42 42 35 32 32 32 35 36 37 39 40 40 40 39 37 37 36 35 34 32 30 29 29 30 31 33 30 29
28 27 27 26 27 33 30 38 39 43 46 49 41 39 44 40 33 32 31 32 35 36 37 38 39 40 40 39 38 37 36 35 35 34 31 29 27 28 29 31 32 32 29
24 25 25 26 29 30 33 35 39 38 46 46 40 43 37 34 32 30 33 36 37 37 39 39 41 41 41 39 37 36 34 33 33 32 29 27 26 27 28 29 30 30 28
24 21 23 26 29 32 37 43 46 44 38 36 42 37 34 31 32 35 36 38 39 39 40 41 42 41 41 39 37 35 32 32 32 30 28 26 26 26 27 28 28 30 28
21 24 26 28 32 36 42 47 35 37 40 38 34 35 34 35 37 38 39 40 41 41 42 43 43 42 40 38 36 33 32 30 30 28 27 25 25 25 26 26 27 30 29
24 26 28 30 39 33 28 39 41 40 34 35 36 35 38 41 40 40 41 43 44 43 44 45 43 42 39 37 35 32 30 29 29 27 26 25 25 25 25 26 27 29 31
26 26 28 25 29 38 41 37 34 35 37 38 38 40 43 44 45 45 46 47 46 45 45 44 41 39 38 36 34 31 29 28 27 26 25 24 25 24 24 24 25 28 28
29 30 35 39 40 38 35 35 36 37 38 40 44 45 46 47 48 48 49 48 46 46 45 43 38 35 35 35 33 30 29 28 27 26 24 24 25 24 23 23 24 26 27
34 33 31 33 31 34 34 34 37 39 43 46 48 50 51 51 51 50 50 48 47 46 43 40 38 35 34 33 32 28 29 29 28 26 24 23 24 24 23 23 22 24 25
28 27 29 30 31 33 36 38 42 44 47 50 53 55 56 57 55 53 51 49 48 46 42 40 43 35 31 29 29 27 28 29 29 27 24 24 24 23 22 23 22 22 22
26 27 28 31 34 36 38 41 44 46 50 53 55 57 60 61 59 56 55 52 47 43 42 46 43 30 29 27 27 28 28 30 30 27 25 24 23 23 21 22 21 22 22
26 28 31 33 36 39 43 45 47 50 52 54 56 58 58 57 54 51 49 48 43 44 39 38 32 29 29 28 27 27 29 29 29 27 25 24 23 22 20 20 20 21 20
29 32 34 37 40 44 47 50 54 54 55 55 54 52 49 49 47 44 42 40 38 39 42 35 37 33 28 27 26 25 26 27 26 26 23 23 22 21 20 19 19 19 18
32 35 38 40 44 47 50 53 56 58 58 55 49 46 45 44 43 40 38 34 30 24 26 31 34 33 27 31 26 23 25 26 24 23 20 21 20 19 18 18 18 17 16
34 36 39 42 45 49 51 53 53 52 51 50 48 46 44 39 35 34 27 23 18 23 26 26 25 24 24 21 22 22 23 24 22 21 19 20 19 18 18 17 17 16 14
36 39 42 44 47 50 51 50 49 48 47 47 46 45 44 39 33 25 19 17 16 22 22 22 21 22 21 21 24 22 23 24 21 19 18 18 18 18 17 17 16 15 14
38 40 43 46 47 48 49 48 46 46 45 44 42 41 40 38 31 23 21 27 23 23 23 22 21 21 21 25 22 20 20 22 20 18 17 16 16 16 17 16 16 15 13
39 42 44 46 47 47 46 45 44 43 42 40 38 36 36 34 29 24 21 22 26 25 22 20 20 18 20 18 19 22 24 19 19 18 17 14 14 15 15 14 15 15 14
40 42 44 46 46 45 44 42 42 41 39 37 36 35 35 35 29 30 26 24 23 21 20 22 21 22 25 21 21 19 19 18 15 17 18 17 14 14 14 14 15 14 14
41 43 44 45 45 44 42 40 39 37 36 34 33 33 33 35 33 28 30 33 26 23 24 23 24 23 23 21 19 20 21 19 17 17 18 20 19 18 16 14 15 15 15
42 44 44 44 44 42 40 38 37 35 33 32 31 31 32 33 32 29 27 25 27 26 22 22 23 23 20 21 21 20 16 15 21 21 20 20 20 19 18 16 15 15 15
43 44 44 43 42 39 38 36 34 33 32 32 32 32 33 32 31 28 27 25 24 24 25 22 21 21 21 19 23 25 22 20 19 21 21 21 21 19 18 17 15 15 15

GFSGL_700_spd_057.txt.gz
Wind_Speed
23 25 28 26 24 22 21 22 24 25 29 15 27 31 39 29 27 32 37 42 42 39 41 35 32 31 31 34 36 37 39 40 42 41 41 38 37 37 37 36 34 34 35
18 21 24 25 22 21 21 25 26 31 28 18 26 33 30 34 37 42 41 37 39 38 34 32 30 31 32 35 36 37 39 40 40 40 38 38 37 36 35 33 33 33 34
16 19 21 23 28 29 30 25 29 39 26 27 36 27 42 34 34 39 34 38 36 34 31 31 31 33 34 36 37 38 38 38 39 40 38 37 36 35 33 31 31 31 31
21 21 25 26 27 27 26 26 25 28 28 36 38 36 34 45 40 34 40 36 34 33 32 32 34 34 35 37 38 38 38 38 38 39 38 36 35 34 32 31 30 29 30
25 25 26 26 28 27 29 30 35 25 31 42 34 39 47 40 37 40 35 33 33 33 34 35 35 36 37 38 38 39 39 38 38 38 37 36 34 33 30 30 30 28 28
31 30 30 30 28 28 28 33 25 32 37 36 34 38 39 36 41 35 33 32 33 35 37 38 37 37 39 39 39 39 38 37 37 37 36 34 33 32 29 29 28 28 27
25 26 26 28 30 28 23 28 36 34 36 40 31 33 42 39 35 33 31 35 37 39 40 40 40 40 40 40 40 41 39 37 36 35 34 32 32 30 28 28 27 27 27
27 29 30 28 23 25 29 30 35 37 34 30 40 42 37 32 33 32 34 38 41 42 42 42 42 41 41 40 41 41 39 36 34 34 33 31 31 29 27 27 26 26 26
26 25 25 25 23 30 28 31 28 28 38 39 36 32 33 33 32 35 39 42 45 45 44 43 43 43 40 40 42 40 37 34 33 34 32 30 29 28 26 26 25 26 25
23 24 23 22 23 23 24 28 35 37 33 33 33 33 34 36 37 39 42 46 48 48 46 46 46 44 41 40 41 36 34 31 33 32 30 29 28 28 26 25 24 25 25
21 20 24 22 22 28 33 33 31 31 32 33 35 36 39 41 43 45 47 49 51 51 51 49 47 43 40 39 37 34 32 31 31 30 29 28 27 28 26 25 23 23 24
24 24 27 28 26 25 26 28 29 31 33 36 39 42 44 46 48 50 51 52 52 54 54 52 48 42 39 38 36 35 31 31 30 29 28 27 26 27 27 24 23 22 23
27 27 22 22 24 26 26 29 31 34 38 41 45 48 50 53 54 55 55 54 54 53 52 50 44 40 38 38 37 36 30 29 27 28 28 27 26 27 26 24 22 21 21
21 21 22 23 24 26 30 33 36 38 41 44 48 51 54 57 59 60 59 57 54 50 47 43 40 42 39 39 44 33 27 27 26 29 29 28 27 25 25 23 21 20 20
21 22 22 24 26 29 32 34 37 40 44 48 51 55 58 59 58 57 55 52 49 46 45 41 36 34 33 38 30 22 25 27 28 30 30 28 27 26 23 22 20 19 19
21 23 25 28 30 32 34 36 39 42 45 49 51 53 54 52 52 51 50 49 45 42 40 37 35 33 31 30 20 22 25 26 26 28 27 26 25 25 22 21 19 18 18
23 26 29 31 33 35 38 40 42 44 47 49 50 51 51 50 49 48 46 44 39 35 33 30 26 23 29 29 27 27 25 24 23 24 24 23 24 23 20 19 18 16 16
27 29 31 33 35 38 39 41 44 48 50 51 51 51 50 48 47 45 43 39 36 27 24 16 15 18 18 25 26 26 27 23 23 23 23 22 23 20 18 17 16 15 15
29 31 33 35 37 38 40 43 46 49 51 52 51 49 48 45 43 41 37 34 31 21 18 18 16 15 21 19 21 21 19 21 20 23 22 20 21 17 16 16 15 15 14
31 32 35 36 37 39 42 45 47 49 50 50 49 48 46 44 41 39 36 29 24 22 21 20 17 18 19 18 19 20 21 23 22 23 22 18 19 15 15 15 14 14 14
32 35 36 37 38 40 43 46 48 49 48 47 45 43 41 40 38 36 36 34 26 25 25 25 21 23 21 19 19 18 22 21 20 20 19 17 16 13 13 14 13 14 14
34 35 36 37 39 41 44 46 47 47 45 43 40 38 36 34 34 33 34 34 29 28 25 23 24 22 20 18 17 16 18 20 20 19 17 16 14 12 11 11 12 13 13
35 36 37 38 40 42 44 45 45 43 41 39 38 36 34 33 32 32 32 34 31 27 29 24 22 22 20 20 21 21 19 19 18 16 14 15 15 13 10 10 11 12 13
36 37 38 40 41 42 43 43 41 39 38 36 35 34 33 33 33 33 32 32 30 27 26 27 24 22 24 22 21 22 21 18 20 19 15 14 16 16 14 13 12 12 12
37 38 39 40 41 41 41 40 38 36 35 34 34 34 34 34 34 34 33 32 30 27 25 25 25 21 21 22 23 22 23 19 20 18 19 17 16 17 17 15 15 13 13
38 39 39 40 40 41 40 38 36 35 34 33 33 34 35 36 36 35 35 33 30 26 25 23 22 25 20 20 22 22 20 24 21 18 13 19 21 21 17 17 15 14 13

GFSGL_700_spd_063.txt.gz
Wind_Speed
30 32 31 30 31 32 32 33 34 33 34 34 36 37 35 32 35 32 29 29 32 36 38 39 37 38 38 36 36 36 36 37 41 41 39 36 38 35 37 43 44 41 40
29 30 34 32 32 31 30 31 32 32 30 35 32 32 27 33 32 35 30 37 40 36 33 37 35 37 36 35 35 36 37 40 41 43 41 38 35 36 38 40 43 41 37
30 34 32 27 24 25 27 29 29 30 31 31 29 33 31 29 37 37 28 36 43 37 35 38 38 40 36 35 36 38 40 40 40 39 40 39 35 37 36 39 42 38 39
26 26 23 24 25 26 28 30 31 31 32 33 31 32 32 30 30 33 35 36 34 39 43 43 39 35 34 36 38 39 41 42 40 38 39 37 35 36 37 39 39 33 32
26 25 25 27 27 29 31 33 32 32 33 30 31 32 33 30 30 30 30 33 38 43 39 35 36 37 38 39 39 41 42 43 44 40 40 39 40 39 40 34 36 32 39
27 28 29 30 32 33 34 33 33 31 28 30 33 32 32 33 29 32 34 39 36 35 34 34 37 40 43 46 48 47 45 44 46 46 46 44 43 43 40 35 34 39 39
32 33 32 31 30 30 30 30 31 33 32 30 32 32 30 30 31 34 35 35 35 35 36 39 40 41 43 46 48 51 52 45 44 43 44 41 41 40 36 34 37 40 37
23 24 26 27 29 30 31 31 31 31 32 31 30 28 28 32 31 31 33 34 36 38 40 42 44 46 47 49 50 49 44 47 47 44 46 45 42 40 37 36 36 39 37
23 24 26 26 27 28 30 31 30 28 25 24 26 29 28 29 32 31 33 37 39 41 42 44 46 48 49 48 49 50 46 46 46 47 48 44 39 40 37 36 35 36 34
24 25 25 27 28 29 28 26 25 25 25 25 25 26 27 28 34 33 33 38 41 43 46 47 48 50 50 51 51 49 44 44 43 42 45 43 41 41 36 33 33 32 30
24 25 26 26 26 26 25 25 23 22 24 24 24 26 29 31 34 36 37 38 42 47 48 50 51 52 53 52 49 48 46 41 42 40 41 40 41 41 37 35 30 28 27
24 25 25 26 26 26 23 22 23 23 24 26 28 28 30 32 36 40 39 41 44 48 50 51 53 54 53 51 49 45 42 40 38 39 35 38 41 42 33 28 30 29 28
25 25 25 26 24 22 22 23 23 24 26 28 29 31 33 35 38 42 42 44 46 49 50 52 51 49 46 44 41 38 36 37 36 34 39 36 43 33 30 28 27 28 29
26 27 27 25 23 23 23 24 25 26 28 30 32 34 36 37 40 42 45 47 49 51 52 51 48 45 42 40 37 32 30 32 34 36 34 34 29 32 29 29 29 30 29
28 28 25 24 24 24 24 26 28 28 29 31 34 36 37 39 42 44 47 50 51 52 52 49 46 42 41 37 28 25 22 25 26 25 24 26 24 27 28 28 29 29 28
28 25 24 24 24 25 28 28 28 30 31 32 34 36 38 41 44 46 49 50 50 48 47 46 42 39 36 30 26 21 21 23 20 20 18 19 23 26 24 24 26 25 26
28 26 24 24 25 26 28 29 33 32 32 34 35 38 39 43 45 47 49 49 48 45 43 41 39 36 32 24 21 20 18 16 20 18 19 19 22 23 23 21 23 24 24
26 24 24 25 26 27 28 30 32 34 36 40 42 40 40 41 44 47 47 46 44 41 39 37 35 32 29 23 20 18 14 9 14 19 24 22 21 18 19 21 24 23 24
22 24 26 25 27 28 30 32 33 35 37 38 39 42 44 44 46 47 46 45 43 40 37 35 33 31 28 25 27 27 22 22 20 18 17 16 17 20 20 20 22 22 22
24 22 22 26 28 30 32 33 35 37 38 40 41 42 43 44 45 45 44 43 40 38 36 35 32 30 29 28 26 30 25 23 19 15 16 17 19 19 19 21 21 22 20
21 20 24 28 31 32 34 35 37 38 40 41 42 43 43 44 45 44 42 41 39 38 37 35 32 30 29 28 26 26 26 23 22 23 20 20 19 18 19 20 19 20 19
21 23 27 30 32 33 34 36 38 39 41 42 42 43 44 44 43 41 40 38 37 36 36 36 34 31 30 29 27 25 24 24 24 22 20 19 21 21 21 19 17 18 18
24 28 30 32 33 34 35 37 38 40 42 42 43 44 43 43 41 39 38 37 37 36 36 35 33 32 30 29 26 25 24 24 24 22 21 22 18 18 19 17 16 16 17
28 31 33 34 34 35 37 38 40 42 43 43 44 43 42 41 39 38 37 36 36 36 35 34 33 31 28 26 24 23 24 25 25 24 23 23 20 18 20 17 15 14 14
32 34 35 36 37 38 39 40 42 43 44 44 44 42 41 39 37 36 36 35 35 34 33 32 30 29 27 24 22 23 23 25 24 24 24 24 20 17 20 18 17 14 12
36 37 38 39 40 41 42 42 43 44 44 43 42 40 38 37 35 34 34 34 34 33 31 29 29 29 27 24 22 22 22 22 21 23 23 22 21 18 18 19 17 17 15

GFSGL_700_spd_066.txt.gz
Wind_Speed
33 33 32 32 30 35 29 30 31 32 34 31 30 28 27 33 33 33 23 28 37 36 33 35 40 40 36 33 39 44 41 36 38 39 39 40 41 42 43 43 45 45 48
37 36 37 32 32 28 28 29 29 29 28 29 29 30 33 34 34 32 24 26 31 38 32 32 38 38 38 43 38 33 32 34 38 42 43 44 44 44 44 44 42 42 46
29 28 31 28 28 29 25 21 24 25 28 30 30 30 31 31 32 34 25 32 30 36 33 35 35 39 43 36 34 34 35 37 40 42 47 46 45 43 42 40 41 42 46
29 27 26 26 24 21 23 25 26 28 30 31 32 32 33 32 31 35 37 32 33 33 34 34 37 35 35 34 34 35 37 39 41 44 44 45 46 45 45 40 43 47 48
25 24 25 25 24 24 26 30 30 31 32 32 32 33 32 32 35 31 37 34 32 32 35 35 34 33 34 36 38 40 41 43 44 45 46 47 49 50 51 50 48 46 44
27 28 27 27 29 28 31 32 33 34 34 34 32 32 35 36 35 35 31 31 33 34 34 33 33 34 35 38 40 42 45 47 49 49 50 49 46 46 45 43 40 42 45
30 29 30 30 34 35 33 31 32 32 33 33 33 33 33 34 32 29 29 31 31 31 32 33 34 36 37 38 41 44 47 49 50 51 52 49 50 49 43 38 38 39 41
32 35 33 30 28 30 31 31 30 30 31 32 32 31 29 29 28 29 29 30 31 32 33 35 38 39 40 43 46 49 50 51 52 51 49 50 51 48 47 42 38 38 39
22 24 26 28 28 27 26 27 29 30 30 29 28 28 28 31 28 26 28 31 33 34 36 37 39 41 43 46 49 51 53 53 51 50 47 46 47 46 42 41 38 38 39
23 23 24 25 25 26 27 28 28 28 29 28 27 25 26 31 31 29 29 31 34 36 37 38 40 43 46 47 49 52 54 52 52 50 46 43 43 42 37 38 33 36 38
24 25 26 26 26 26 27 28 30 29 27 24 26 26 28 31 33 30 30 33 37 38 40 41 43 44 47 49 49 50 50 49 48 46 43 40 39 40 39 36 38 34 37
26 26 26 27 28 28 29 30 29 26 26 26 25 27 29 32 33 33 33 35 38 41 43 44 45 47 48 49 48 47 46 46 46 43 40 37 34 33 32 32 36 36 32
27 27 28 28 29 30 30 27 27 26 26 26 28 29 31 31 34 35 36 38 40 42 44 45 46 48 49 48 45 42 41 41 39 37 35 34 31 31 33 31 40 29 26
29 29 30 30 30 32 29 28 26 25 26 28 29 30 30 32 35 36 38 40 42 44 45 46 47 47 47 46 43 40 38 35 31 29 26 29 26 27 27 23 32 28 25
31 31 31 32 32 31 28 27 25 26 28 29 30 31 32 34 37 39 40 41 44 45 46 48 48 48 46 43 39 37 34 30 27 25 26 22 21 19 21 28 22 24 25
34 33 33 32 30 30 26 27 27 27 27 28 30 32 34 35 38 40 41 43 45 45 46 47 47 46 44 42 38 35 29 24 25 24 22 18 17 16 19 20 24 23 19
36 36 36 32 29 27 27 28 28 27 27 28 30 32 34 36 39 42 43 43 45 45 46 46 45 43 41 38 36 32 27 17 15 23 16 17 15 16 17 19 20 21 19
40 41 37 31 26 25 27 26 27 29 30 31 32 35 37 35 37 41 42 43 44 44 45 44 42 40 38 36 34 31 27 26 23 13 11 14 19 20 20 19 17 17 19
43 38 28 25 27 26 22 24 26 29 32 33 36 39 41 40 41 43 44 45 45 45 44 42 40 38 36 35 32 30 28 27 30 22 21 20 17 17 18 18 18 17 18
34 25 23 25 27 26 24 25 27 30 33 34 35 37 38 39 41 43 44 45 45 45 43 41 39 37 35 34 32 30 28 26 24 26 19 20 19 17 16 16 18 18 20
22 24 26 26 24 23 25 27 29 32 33 34 36 38 39 40 43 44 45 45 45 43 41 40 39 37 36 34 32 30 29 27 24 24 27 22 18 19 17 17 18 18 21
24 23 24 24 26 26 28 31 32 34 35 36 38 39 41 43 44 45 45 44 43 41 39 38 38 37 36 34 32 30 28 26 24 24 24 27 24 22 21 20 19 19 19
24 25 26 27 29 30 33 34 35 37 38 39 40 41 43 44 44 44 44 43 41 39 37 36 36 35 34 32 30 28 26 24 22 22 23 24 26 23 16 15 16 18 18
27 28 30 32 33 34 36 37 38 40 41 42 43 43 44 44 44 43 42 41 39 37 35 35 34 34 32 30 27 25 25 23 22 20 23 23 24 23 21 15 18 16 16
31 32 34 36 38 39 40 41 42 43 43 43 43 43 43 43 42 41 39 38 36 35 33 33 33 32 30 28 27 26 24 22 21 21 22 23 24 23 19 17 17 18 16
35 37 39 41 43 44 45 45 45 44 44 43 42 42 41 41 39 38 36 35 34 32 31 31 30 29 29 28 27 25 24 22 21 21 20 21 23 23 20 18 17 19 16

GFSGL_700_spd_069.txt.gz
Wind_Speed
30 31 32 33 32 34 36 33 32 32 24 24 25 25 23 26 29 28 29 30 25 27 33 31 30 37 35 31 34 35 38 39 39 36 34 32 35 36 36 40 41 43 43
29 31 31 33 36 31 43 45 15 18 20 22 24 23 26 28 29 30 31 24 31 29 24 35 34 38 33 32 35 37 34 33 35 38 38 36 38 40 42 42 40 42 45
26 30 32 30 22 29 17 17 23 21 22 22 23 24 26 28 28 33 33 30 26 30 37 33 35 33 32 34 33 34 32 33 34 38 43 42 42 41 42 43 46 42 44
20 17 24 28 25 24 21 22 19 19 23 24 26 29 29 30 29 29 32 32 37 29 33 32 30 32 33 32 32 32 33 35 37 41 45 46 46 45 46 48 49 46 43
22 23 26 24 22 22 21 21 22 24 28 31 32 32 30 33 31 30 31 34 32 35 27 29 32 31 30 31 33 35 37 40 41 44 47 48 50 49 47 46 48 50 47
24 27 27 25 24 26 25 26 28 31 33 33 31 32 32 29 31 31 33 33 27 26 28 29 28 29 31 33 37 38 39 42 45 48 51 54 55 55 50 46 49 50 49
32 31 31 30 27 26 29 31 35 31 29 30 31 30 29 29 31 32 28 26 26 27 27 28 29 30 34 37 38 39 40 41 44 49 52 53 56 56 53 49 50 50 48
34 32 31 28 28 32 33 29 30 31 30 28 29 30 31 30 29 28 27 26 25 26 27 29 32 33 36 39 42 43 44 45 47 49 52 54 55 55 54 50 50 51 46
26 25 28 29 25 26 29 30 30 28 27 28 29 31 30 29 26 25 25 25 27 28 30 31 34 37 39 40 44 46 48 47 49 51 52 53 52 51 49 49 49 47 43
20 19 21 23 24 26 27 26 26 26 27 29 29 30 29 26 25 24 26 29 30 31 32 33 35 38 40 42 46 48 49 50 50 50 50 50 49 46 44 42 42 44 39
20 21 22 23 25 25 26 26 27 27 28 30 30 28 28 29 27 27 29 29 31 32 34 35 36 39 41 44 45 47 49 50 50 50 49 48 47 44 39 36 34 38 37
23 23 24 25 26 27 28 29 29 30 28 28 28 31 30 30 28 29 29 31 33 34 36 37 40 42 43 44 45 46 48 48 48 48 47 46 44 39 35 32 27 30 28
25 26 27 28 29 29 29 31 31 30 28 27 28 30 31 31 31 31 31 33 35 37 39 41 43 44 44 44 45 46 47 46 46 45 43 41 35 30 30 28 26 27 28
29 28 29 31 31 31 31 31 32 31 31 30 29 29 31 32 31 32 33 34 36 38 40 42 44 44 44 44 45 44 44 43 42 42 40 37 27 26 23 19 19 20 17
33 33 33 34 34 33 32 32 32 31 31 30 29 28 30 30 31 33 34 35 38 40 41 43 44 44 44 44 44 44 42 39 37 36 34 30 24 23 20 17 19 17 26
38 37 38 37 36 35 34 33 31 30 29 28 30 29 29 31 32 35 36 38 40 41 42 44 44 44 45 45 45 44 42 38 35 30 22 23 21 19 17 20 10 20 15
41 39 39 40 39 37 36 31 28 27 25 31 29 27 30 31 32 36 39 39 40 41 43 43 43 44 45 45 45 43 40 37 34 31 27 25 20 23 11 15 14 16 17
45 41 40 40 40 38 31 28 29 31 31 29 29 31 31 30 32 36 39 39 39 40 42 42 43 44 44 44 43 41 37 35 32 30 27 31 23 19 21 13 17 18 18
42 41 42 40 34 26 27 30 32 33 33 31 31 32 32 33 34 37 38 39 40 41 41 42 43 44 44 43 41 39 36 34 32 30 27 26 30 23 22 22 18 19 18
44 36 28 28 29 28 28 29 30 29 29 30 31 33 35 36 38 39 40 41 42 43 43 44 44 44 43 41 39 37 35 33 31 29 28 25 24 24 24 21 17 16 18
24 27 27 26 26 26 27 28 29 30 31 32 34 34 36 38 39 40 41 42 43 43 43 43 43 42 41 40 38 36 34 32 30 29 27 24 24 25 22 23 21 19 18
23 23 23 24 26 27 29 31 31 32 34 35 36 38 39 41 42 43 43 43 43 43 43 42 41 40 39 37 36 34 33 30 28 27 25 24 23 28 23 20 20 20 18
19 21 23 26 28 31 33 34 35 36 37 38 39 41 42 43 43 44 44 43 43 42 41 40 39 38 35 34 33 32 31 29 26 25 23 20 21 25 25 22 21 21 18
23 26 30 33 34 35 35 37 38 40 42 43 44 44 45 44 44 43 42 42 41 39 37 37 36 34 33 32 31 29 29 28 27 24 22 20 18 22 22 25 22 19 20
31 33 34 36 38 39 41 42 43 44 45 45 45 44 44 43 42 41 40 39 38 36 35 33 32 31 31 30 28 28 28 27 26 24 22 21 18 21 22 24 25 21 21
36 38 39 41 42 43 44 45 45 46 46 44 44 43 42 41 40 39 38 36 34 32 30 29 28 29 28 27 27 27 27 27 25 23 23 20 19 21 23 24 23 21 21

GFSGL_700_spd_072.txt.gz
Wind_Speed
20 22 24 28 31 33 33 34 32 36 37 36 22 22 21 25 28 25 30 32 28 29 30 30 29 31 27 35 37 37 33 33 40 40 39 36 36 36 36 38 40 43 45
28 26 26 30 31 35 39 34 37 18 36 11 28 26 25 27 28 26 30 28 31 35 31 28 28 29 36 32 37 39 36 37 41 43 39 38 38 38 40 41 42 45 46
24 26 25 32 32 29 37 28 22 16 12 13 17 20 24 28 29 28 29 28 33 35 31 26 34 33 34 39 37 36 38 38 37 41 43 42 41 39 41 43 44 46 46
31 28 25 17 19 26 21 23 19 18 16 18 19 21 26 29 31 29 30 31 35 33 29 36 31 35 38 34 36 38 36 37 37 40 43 44 44 43 45 48 50 48 49
24 24 25 21 18 19 20 23 21 22 22 22 23 25 29 31 29 27 27 38 29 35 30 34 39 36 32 36 34 33 35 37 39 41 43 46 47 47 48 50 53 53 53
24 25 24 23 23 24 23 25 24 24 25 26 29 31 30 28 30 31 31 30 30 30 38 32 29 31 31 33 34 35 37 39 41 44 46 48 50 52 54 56 59 59 58
25 26 29 31 30 29 28 29 27 26 27 31 29 29 30 30 30 29 29 30 32 30 27 27 30 32 32 33 33 35 37 39 42 45 49 49 51 52 55 56 58 58 56
27 30 32 30 30 31 30 28 28 29 27 28 29 30 29 28 27 26 26 27 27 27 28 29 31 32 34 35 36 37 38 39 42 44 47 49 51 52 54 56 56 55 53
31 33 28 25 23 23 25 24 24 26 27 28 28 27 26 25 25 26 27 26 27 28 29 32 32 33 35 36 39 41 42 43 44 46 48 49 50 51 52 54 53 51 50
31 26 24 21 18 20 22 24 26 27 28 27 27 27 27 28 28 27 26 27 28 30 31 32 34 35 36 38 41 44 46 47 48 49 48 48 48 48 49 49 48 45 41
24 22 21 20 22 23 25 26 27 27 27 27 28 29 29 28 28 28 28 29 30 32 33 33 35 37 38 41 43 46 48 50 50 51 51 50 49 48 47 46 43 38 34
23 23 24 25 26 26 26 27 28 28 28 29 30 31 30 28 27 29 31 32 33 34 33 34 36 38 40 42 44 46 48 49 50 50 50 49 48 45 43 42 37 34 33
25 27 29 29 29 29 30 30 29 31 32 33 33 33 32 31 31 32 32 33 33 34 34 36 38 39 41 42 45 47 48 48 49 49 48 47 45 43 39 35 30 30 28
29 32 33 33 33 34 33 32 33 33 34 35 35 34 33 33 33 32 32 33 34 35 37 38 40 41 42 44 45 46 47 48 48 47 46 45 42 40 35 28 27 24 23
32 35 36 37 37 37 37 37 37 36 35 35 35 34 33 32 30 32 39 35 36 37 38 39 41 42 43 44 45 45 45 46 46 45 43 41 38 35 31 25 23 21 21
35 38 40 40 40 38 39 39 38 38 37 32 29 30 30 34 40 40 35 36 38 40 41 41 42 44 45 45 45 45 45 45 45 44 42 39 35 31 27 21 22 22 21
39 41 42 42 42 42 41 41 41 39 35 30 31 36 39 39 38 35 39 41 41 41 41 42 44 45 46 46 46 45 45 45 45 44 41 38 35 29 27 23 23 11 15
41 44 45 45 45 45 46 46 42 38 38 38 38 39 41 42 40 40 41 40 41 40 41 43 45 46 46 46 46 46 46 44 43 42 39 36 33 29 26 25 20 18 9
42 44 44 44 45 45 43 39 35 34 33 34 36 38 38 37 37 38 39 41 41 42 43 45 46 46 46 46 46 45 45 43 41 39 37 35 32 29 26 26 24 25 22
35 37 38 37 35 31 31 32 31 31 33 35 36 37 38 39 40 41 42 41 42 44 45 45 46 46 47 46 45 44 43 41 38 37 35 33 32 29 26 25 26 25 23
36 32 28 26 26 26 27 27 29 31 33 35 37 40 41 42 43 43 43 43 45 46 47 47 47 46 46 46 44 42 41 38 36 35 33 31 29 26 25 24 24 23 23
20 20 21 22 23 24 27 29 32 35 38 40 41 43 44 45 46 46 48 49 49 49 48 48 46 45 45 43 41 40 38 35 33 32 29 28 26 23 23 23 26 22 21
16 17 19 23 26 29 32 35 38 41 43 44 45 45 45 47 48 49 49 49 48 47 46 44 43 43 41 39 38 36 34 32 31 29 27 25 23 22 22 21 25 24 21
20 23 27 30 34 37 40 42 43 44 45 46 47 47 48 49 49 49 48 48 47 45 43 42 41 39 37 35 33 32 31 30 29 27 26 24 21 20 20 20 22 24 21
28 31 34 37 39 41 43 44 46 47 48 49 50 50 49 49 49 48 46 45 43 41 40 38 37 35 33 31 30 29 28 28 27 27 26 23 20 19 20 19 21 25 24
35 37 40 42 44 45 46 47 48 48 49 49 48 48 46 45 43 42 41 39 38 37 35 34 32 31 29 28 27 26 26 26 27 27 26 23 19 18 21 18 22 23 25

GFSGL_700_spd_075.txt.gz
Wind_Speed
18 21 24 27 28 29 29 31 31 33 34 35 38 42 43 38 28 30 28 27 36 37 37 36 36 38 37 38 36 35 37 42 41 43 37 34 38 37 37 40 41 44 45
28 21 19 21 21 32 27 37 32 41 48 25 20 21 23 28 27 29 30 33 38 33 39 38 37 41 42 36 36 41 49 39 44 43 40 40 38 37 39 42 42 44 46
32 27 26 20 19 17 28 33 28 27 29 23 19 18 19 30 28 27 30 34 34 36 36 34 39 44 40 32 40 42 41 44 42 42 43 39 40 39 42 42 43 45 46
23 26 25 26 21 18 18 26 31 25 18 19 20 23 21 24 26 29 32 36 38 37 35 44 41 42 39 42 45 39 47 43 41 41 41 42 42 42 44 46 48 47 49
17 21 23 21 20 18 19 18 20 19 20 21 22 25 26 28 28 34 37 37 37 34 36 43 43 42 42 44 43 45 39 41 40 40 41 43 44 45 46 47 50 51 52
15 19 21 22 21 23 23 25 24 24 25 24 25 29 31 33 34 39 35 34 35 38 43 45 40 39 39 48 39 39 39 39 40 42 42 44 45 45 48 50 52 53 56
23 21 23 23 23 25 28 31 30 28 28 29 30 31 33 36 32 32 33 36 41 40 36 39 40 43 46 40 38 38 39 40 41 42 44 44 47 48 49 51 53 54 56
23 23 22 24 26 30 33 29 26 26 28 29 30 29 28 29 30 32 34 35 34 35 37 39 44 41 39 38 39 39 39 40 42 43 46 46 48 49 50 52 54 55 55
20 24 26 29 29 29 25 22 21 22 25 24 26 27 28 28 29 30 32 33 35 37 38 41 40 38 38 39 39 39 39 41 42 43 45 46 47 47 49 51 52 55 55
21 23 27 27 25 22 20 19 20 22 23 24 25 26 27 29 30 31 33 35 36 37 37 38 38 38 39 40 40 40 42 42 43 44 45 45 46 46 47 49 51 52 53
23 25 25 24 22 20 19 20 22 23 24 25 27 28 30 30 31 32 33 34 35 35 36 38 38 38 39 39 40 42 44 45 46 47 47 47 46 46 46 48 49 50 50
22 22 23 23 23 23 23 24 25 27 27 28 29 30 30 31 33 33 33 34 35 36 38 38 38 39 39 41 43 43 45 46 47 48 48 47 47 47 47 48 47 45 44
23 23 23 25 26 27 28 29 29 30 31 32 32 32 32 32 32 33 34 35 36 36 35 36 38 39 41 42 44 44 45 46 47 47 46 47 47 47 47 47 45 42 38
25 26 27 29 30 30 31 32 34 35 36 36 36 36 36 35 36 36 37 37 36 36 37 43 45 43 43 43 44 46 45 45 45 46 46 46 47 47 46 45 43 39 35
27 28 30 32 34 34 35 36 37 38 39 39 40 40 40 40 38 38 38 40 44 47 47 46 44 44 46 47 46 45 44 44 45 46 46 47 47 47 45 42 39 34 31
27 28 31 33 35 37 38 39 41 43 43 44 45 47 46 46 45 46 47 47 46 46 46 46 47 48 49 48 46 44 45 46 46 46 47 47 47 46 44 39 35 32 28
30 26 27 29 32 34 35 37 39 41 45 47 48 47 44 42 44 44 43 45 48 51 49 48 50 50 48 47 46 46 46 45 46 46 47 48 47 44 42 38 32 29 23
30 30 29 30 32 33 32 34 37 39 41 41 41 39 38 37 38 41 45 47 46 47 49 49 49 48 47 47 47 46 46 46 47 48 49 47 45 43 40 35 30 27 25
31 31 31 30 29 31 35 37 38 37 36 36 35 36 36 37 40 41 43 44 45 47 48 49 50 49 49 48 48 48 48 47 48 48 46 45 43 40 36 32 29 26 26
32 29 28 29 34 38 37 34 32 32 32 33 34 35 38 39 41 44 46 48 49 50 51 51 50 49 49 50 50 49 47 46 45 45 44 42 39 36 33 30 27 26 25
27 29 33 37 34 30 28 27 28 30 31 33 36 38 41 43 46 48 50 51 52 51 50 50 50 50 50 49 48 47 44 43 43 43 41 37 34 32 29 27 25 24 23
29 28 24 24 24 25 26 28 30 33 36 38 41 44 46 48 50 52 52 53 53 53 52 52 51 50 48 47 45 43 42 41 40 38 35 33 30 28 27 25 23 22 21
18 19 20 22 25 28 31 34 37 40 42 45 47 49 51 52 53 54 54 54 54 53 52 51 49 46 45 44 42 41 39 38 35 33 31 29 26 25 24 23 22 20 20
19 23 26 29 32 35 38 41 43 46 48 49 50 50 51 52 52 53 53 53 52 51 48 46 44 42 40 39 37 36 35 33 31 30 29 27 24 23 22 21 20 19 20
27 30 33 35 38 40 42 43 44 45 47 48 49 49 50 50 50 49 48 47 45 42 40 39 38 37 35 34 32 31 29 28 28 28 27 25 23 21 20 20 19 18 20
32 35 36 37 37 39 40 42 43 43 44 44 44 44 43 42 41 39 37 35 35 34 34 33 32 31 30 29 27 26 25 25 25 25 26 24 23 20 19 19 19 18 21

GFSGL_700_spd_081.txt.gz
Wind_Speed
19 19 19 19 19 20 22 22 23 25 28 29 30 31 33 36 39 41 40 44 44 46 54 55 53 38 32 37 39 31 34 37 40 38 42 39 34 35 42 38 41 42 41
15 18 20 18 18 19 21 23 24 28 29 30 31 33 38 37 44 49 45 45 36 46 48 39 39 36 39 49 36 30 36 38 42 41 41 41 37 43 45 39 43 42 40
17 19 19 23 27 25 23 41 30 29 32 31 32 34 31 36 44 40 36 29 34 32 32 31 30 33 42 45 30 37 44 47 46 43 50 41 45 44 44 45 40 40 41
15 16 17 18 22 24 16 18 20 17 20 26 32 36 40 38 31 33 31 32 32 34 35 38 40 40 43 34 37 43 48 41 50 49 49 51 48 44 47 46 43 43 43
10 10 9 11 14 20 27 22 24 24 24 26 29 30 33 31 33 33 32 34 37 37 37 38 38 40 38 39 40 43 47 44 42 49 53 50 45 49 53 48 47 46 45
9 9 12 14 14 15 20 23 28 29 29 27 27 27 29 31 34 37 36 38 40 39 40 39 41 37 36 44 47 43 40 40 46 51 47 46 52 52 50 47 48 49 50
14 15 14 17 19 18 20 23 24 26 27 29 31 31 33 35 35 36 39 42 40 41 40 41 38 42 44 43 45 44 47 53 55 49 50 57 54 49 48 48 48 49 53
19 19 20 19 22 22 22 24 25 26 29 31 33 34 37 39 40 40 40 40 42 38 40 41 38 36 42 46 42 48 57 53 51 54 55 53 48 47 48 47 49 57 59
22 23 25 24 24 25 25 25 27 28 30 32 35 37 35 35 36 37 37 36 36 40 37 43 44 45 44 47 52 54 49 53 55 57 54 49 48 48 47 53 59 60 58
26 27 27 25 24 25 27 28 29 31 33 35 34 31 31 31 31 32 33 36 37 37 41 43 45 47 51 51 48 51 55 53 51 49 48 47 49 50 56 60 57 56 56
29 27 25 24 24 25 27 28 30 32 32 30 28 27 30 30 32 34 36 37 38 41 43 45 48 49 49 51 53 54 52 52 50 50 51 52 55 60 62 56 57 57 52
30 29 26 24 23 23 24 25 27 27 27 28 29 31 33 35 36 37 39 40 42 43 45 46 48 51 53 54 54 54 54 53 54 55 59 59 58 58 58 55 51 49 45
28 27 25 23 22 22 23 23 22 24 26 28 30 33 34 35 36 37 40 41 43 44 47 49 51 53 55 56 56 55 55 55 53 52 53 55 53 51 49 48 45 43 42
25 25 25 25 25 23 23 23 23 25 27 29 30 31 32 34 36 37 40 42 43 45 47 49 49 49 50 51 50 49 49 49 50 51 52 51 49 49 48 47 46 43 42
25 23 26 25 24 22 21 22 24 26 27 26 27 29 30 31 32 34 37 40 42 43 44 46 48 49 49 48 48 48 49 51 51 51 50 50 49 49 48 46 45 44 41
23 22 22 22 20 19 19 21 21 21 21 23 22 23 26 28 31 35 39 41 42 44 46 47 47 45 45 47 48 49 50 50 51 51 51 50 50 49 47 44 42 41 40
23 23 23 19 16 18 18 19 20 21 22 22 23 25 28 33 37 39 40 41 41 41 41 42 43 44 45 47 49 51 51 51 51 51 50 49 47 46 45 43 41 41 39
22 21 24 22 19 20 21 21 21 20 22 24 27 31 34 35 35 34 34 36 37 39 40 42 45 47 49 50 51 52 53 52 51 50 49 48 46 44 42 41 40 39 38
16 15 16 19 21 20 20 20 21 23 26 28 30 30 29 29 31 33 35 38 41 44 47 49 52 53 54 55 55 55 54 53 51 49 47 45 43 42 40 38 38 37 36
20 19 21 23 22 21 21 22 24 25 25 25 25 27 29 32 36 39 42 44 47 49 51 52 53 54 55 55 55 54 52 50 48 46 44 41 39 38 37 36 35 34 33
22 21 21 19 18 20 21 22 21 21 23 26 30 33 36 38 41 43 44 45 47 49 50 50 51 51 51 50 49 48 46 43 41 39 37 35 34 32 31 30 29 29 29
13 14 15 16 16 16 17 19 22 26 28 31 34 36 37 39 41 42 43 44 45 46 46 46 45 44 42 41 39 37 35 33 32 31 30 29 28 27 26 25 25 26 26
11 11 11 13 15 19 22 24 27 29 31 32 34 35 36 37 38 38 39 39 39 39 39 38 37 35 33 32 31 30 29 27 26 26 25 24 23 22 22 22 22 22 22
10 13 16 19 21 23 24 26 28 29 31 31 32 33 33 34 34 35 35 35 34 34 33 33 32 31 30 29 28 26 25 24 23 22 21 20 18 19 20 20 20 20 20
16 18 19 20 21 23 25 26 27 27 28 28 29 30 31 32 32 32 31 30 30 30 30 30 30 28 27 26 25 24 22 21 21 20 19 18 18 18 18 18 19 18 17
16 18 19 21 22 23 24 24 25 26 27 28 28 29 30 29 28 28 28 28 28 27 27 27 26 25 24 23 21 20 20 20 20 21 20 19 18 18 18 18 17 16 13

GFSGL_700_spd_084.txt.gz
Wind_Speed
17 17 17 17 18 18 18 19 21 24 27 29 32 34 34 35 36 37 37 38 41 43 43 46 47 50 52 52 57 50 47 42 42 40 29 32 37 37 40 44 37 38 47
19 20 20 20 20 21 20 20 21 23 25 27 30 32 34 35 36 38 38 41 44 47 50 57 45 41 40 43 41 36 45 43 41 33 36 36 37 37 44 40 37 46 46
18 18 21 23 22 21 19 21 23 26 29 29 31 33 33 36 38 39 41 42 45 48 45 32 39 39 34 35 33 33 36 37 37 41 33 35 39 40 36 38 47 47 44
21 21 22 22 24 24 25 27 27 31 35 29 31 34 35 36 40 42 43 45 47 45 42 41 35 37 37 36 40 42 38 43 39 35 37 42 38 35 42 49 47 43 48
22 21 22 21 25 29 30 32 33 24 29 29 28 32 35 39 41 43 44 42 42 39 39 38 39 40 42 40 38 37 39 40 38 40 48 39 41 47 51 53 50 49 53
20 17 17 19 23 24 29 33 35 30 31 32 34 37 35 34 34 36 39 41 43 45 45 42 42 43 40 41 38 40 39 43 40 43 47 43 44 49 55 53 51 56 52
19 16 16 19 20 22 23 24 25 31 35 37 39 38 37 37 36 36 38 40 43 42 43 43 44 42 46 40 40 41 43 47 45 44 45 44 48 56 54 55 58 54 51
22 20 19 19 19 22 25 26 25 28 33 36 39 40 40 40 40 40 41 44 45 45 46 44 44 45 41 44 44 39 42 49 46 43 46 55 55 54 58 60 56 53 54
27 25 25 25 26 26 25 29 30 30 32 34 35 37 39 41 42 43 43 38 37 39 40 40 36 38 42 40 43 48 44 42 46 53 58 57 59 61 59 58 54 58 58
33 32 30 30 30 29 27 29 32 32 33 35 36 38 39 40 42 39 34 33 32 35 37 37 41 45 42 43 43 47 50 53 54 57 59 61 60 57 55 56 55 56 57
36 37 35 35 33 31 29 29 32 33 33 35 37 38 39 39 35 32 32 31 34 37 37 39 42 43 46 48 50 50 52 58 59 59 58 56 55 55 56 56 55 54 55
39 40 38 37 35 32 29 31 31 32 33 34 35 36 32 31 32 35 35 36 38 40 41 43 45 47 48 50 52 53 52 53 54 55 55 55 55 54 53 53 53 52 52
38 37 37 37 34 30 30 31 31 32 33 32 32 30 32 35 36 37 39 37 37 40 42 44 46 47 48 50 50 51 52 54 54 54 55 55 53 53 53 52 51 50 50
35 36 34 32 31 32 31 32 31 32 31 30 30 32 34 35 34 32 37 39 40 40 38 39 43 46 48 51 53 53 54 54 53 53 52 53 53 53 52 51 52 50 50
33 33 32 33 30 29 31 29 27 29 28 29 30 31 31 30 31 33 34 34 34 36 40 44 47 48 50 51 52 52 51 51 51 52 52 53 54 55 54 54 53 52 50
25 25 25 25 28 25 27 30 29 27 30 28 24 26 26 28 30 31 32 35 38 41 44 46 47 46 47 47 48 49 50 52 54 55 56 57 57 57 56 54 52 50 49
19 21 23 24 24 26 22 20 19 19 19 20 22 24 25 27 29 32 35 39 41 41 40 40 41 43 45 47 50 52 54 56 57 57 57 56 56 55 54 52 50 49 47
22 18 19 19 17 16 19 19 20 19 20 22 24 25 27 30 33 36 36 35 35 36 38 41 44 47 48 50 52 53 54 55 55 55 55 55 53 52 50 48 45 44 43
12 18 14 18 21 20 19 20 20 21 21 22 24 27 30 30 30 30 32 35 38 41 42 44 46 47 48 50 51 51 52 52 51 51 50 48 45 44 42 40 38 37 36
20 21 22 23 23 22 21 20 20 21 23 24 24 24 25 28 31 33 35 37 39 41 42 44 45 46 47 47 47 47 46 45 43 41 40 38 36 34 33 32 31 31 30
20 18 18 18 18 17 18 19 19 19 20 21 24 26 29 31 32 34 36 37 38 39 40 41 42 42 42 41 40 39 37 36 34 33 31 30 29 29 28 27 27 26 26
17 16 15 15 15 16 16 16 18 20 23 25 26 27 29 31 32 33 34 36 37 37 38 38 37 36 35 34 34 33 32 31 30 29 28 27 26 25 25 24 24 24 23
10 10 11 12 13 15 17 19 21 22 23 25 26 27 28 30 31 32 34 35 35 35 34 33 32 31 31 31 31 30 29 28 27 26 25 23 22 23 23 22 22 21 21
8 9 12 13 15 17 18 19 21 22 23 24 25 27 28 30 31 32 32 32 32 31 31 30 29 28 28 28 28 27 26 24 23 22 21 20 20 21 21 21 21 21 20
10 11 13 15 16 18 19 20 20 21 23 24 26 27 28 28 29 29 29 29 29 29 28 27 26 26 25 25 23 22 21 21 21 21 21 21 20 20 21 21 21 20 19
12 14 15 17 17 18 18 19 20 22 23 24 25 26 26 26 26 26 27 27 27 26 26 25 24 24 22 21 20 20 20 21 22 23 21 19 17 17 18 18 18 17 15

GFSGL_700_spd_087.txt.gz
Wind_Speed
14 13 13 13 13 15 17 21 24 25 25 26 29 35 38 40 41 41 38 37 36 35 37 39 40 39 42 44 48 53 48 41 44 45 52 44 36 34 33 40 41 37 37
16 15 14 14 15 16 16 17 20 22 25 26 29 33 39 41 43 41 38 36 37 38 39 41 42 43 43 44 40 32 37 34 34 38 33 33 37 36 43 43 42 40 42
20 19 19 18 17 16 16 16 18 20 22 24 26 28 32 36 37 36 37 37 38 41 43 45 46 45 48 44 44 40 39 36 41 40 37 44 43 35 41 41 46 44 42
19 20 20 20 20 20 22 23 25 26 28 28 27 29 32 34 34 36 38 40 42 44 46 46 48 46 44 42 40 39 42 41 39 39 37 42 40 37 41 46 44 42 44
24 23 22 22 23 24 27 27 29 29 28 27 27 34 34 33 35 37 38 41 44 45 46 46 47 49 43 44 45 41 43 43 41 34 40 43 38 42 45 48 48 49 51
29 26 25 26 27 27 30 31 31 31 31 31 28 34 39 36 35 33 35 38 40 41 42 43 44 45 47 47 43 45 42 36 40 45 39 42 40 49 46 48 51 47 52
33 31 28 27 27 29 30 31 31 32 36 36 34 30 32 36 40 37 38 39 41 41 42 43 44 46 47 42 46 42 41 39 40 44 41 37 42 45 45 50 49 55 57
30 29 28 25 24 24 25 26 27 26 27 30 37 41 39 41 43 41 39 41 42 44 45 46 45 44 45 45 42 47 47 44 41 37 38 46 52 48 45 51 58 62 61
29 30 29 26 24 23 23 25 28 28 26 27 31 36 41 43 43 43 42 43 45 46 47 46 39 39 43 47 42 39 36 39 39 42 45 44 49 56 60 58 55 57 57
35 35 34 33 32 30 30 30 29 28 30 34 34 36 37 39 41 41 42 43 45 45 42 37 36 37 38 38 41 44 44 41 43 47 50 52 53 54 54 55 55 56 56
33 40 41 40 40 39 33 34 34 33 32 35 37 37 39 41 42 42 42 42 40 34 34 33 35 36 38 39 40 44 46 49 49 50 51 53 55 57 57 57 55 54 54
42 42 43 45 44 42 41 41 39 36 35 37 39 40 41 42 42 42 40 33 32 37 34 34 37 42 43 44 44 45 46 48 51 53 55 55 56 57 56 56 54 53 54
52 44 44 46 47 48 47 42 41 39 39 39 38 40 41 41 39 33 32 35 35 33 39 41 38 40 43 43 44 46 49 52 53 54 55 54 54 54 54 54 55 55 56
52 45 45 44 45 46 37 39 46 40 38 38 38 38 35 36 35 36 36 37 39 40 37 37 37 39 41 44 47 50 51 52 51 50 51 52 53 55 57 59 61 61 61
34 37 45 40 41 41 41 42 38 42 37 31 32 34 35 36 33 31 31 34 32 32 35 37 38 41 45 48 49 48 47 48 51 53 55 57 58 60 60 60 61 60 60
20 26 29 33 34 34 34 35 35 34 34 33 33 36 28 25 24 26 28 30 31 33 35 39 43 44 43 43 45 47 50 53 55 56 57 58 59 59 59 58 57 55 54
25 26 25 25 29 31 29 29 28 25 24 23 23 22 23 25 26 27 28 30 33 36 39 40 39 40 43 45 48 50 51 52 54 54 55 55 55 55 54 52 50 47 45
14 17 20 19 17 15 16 14 15 16 19 20 22 24 25 26 28 29 32 35 35 33 35 38 41 43 44 46 47 48 48 49 49 50 49 49 47 46 44 43 40 38 37
12 14 16 16 14 17 19 21 20 17 19 22 24 23 24 27 30 31 30 31 34 37 38 39 41 41 43 44 44 44 44 44 44 43 42 40 38 37 35 34 33 32 32
19 18 17 17 19 18 18 15 16 16 17 19 23 26 27 26 26 28 30 32 34 36 36 38 39 40 40 40 40 40 39 39 38 37 35 33 33 32 32 31 30 30 29
16 14 15 15 17 17 19 19 19 19 20 20 20 22 24 26 28 29 31 31 32 34 35 36 37 37 36 36 36 35 35 34 33 32 31 31 31 30 30 29 28 28 27
16 15 15 15 16 16 16 16 17 17 18 19 21 23 25 26 28 29 30 31 32 33 33 33 33 33 32 32 32 31 30 30 30 29 29 28 27 27 27 27 27 26 26
14 13 13 13 13 14 14 15 16 18 19 21 22 23 25 26 27 28 29 30 31 31 31 31 31 30 30 29 28 28 28 27 26 26 25 24 25 26 26 27 26 26 25
11 11 11 11 11 12 14 16 18 19 20 21 22 23 24 25 26 27 29 29 30 30 30 29 29 28 27 26 26 25 25 24 23 23 23 24 25 25 26 25 25 25 24
9 9 9 11 13 15 16 17 18 19 20 21 22 23 25 26 27 27 28 28 28 28 28 27 26 25 24 24 24 23 22 21 22 24 23 21 20 20 22 23 23 23 22
8 10 12 14 16 17 17 18 19 19 20 21 22 23 24 25 26 26 27 27 26 25 24 24 24 24 23 22 21 20 20 21 23 21 17 17 19 20 21 22 22 23 22

GFSGL_700_spd_093.txt.gz
Wind_Speed
7 5 3 4 7 12 13 16 17 25 22 21 23 29 33 35 36 31 29 28 29 34 33 32 32 30 31 31 31 33 32 36 42 36 35 34 36 34 35 34 30 32 32
10 9 7 6 5 6 8 11 16 19 28 27 25 26 29 35 37 37 35 32 33 36 36 36 32 33 33 33 34 36 36 39 43 42 41 40 37 34 37 36 34 34 36
14 12 11 11 9 7 8 10 13 16 20 23 30 30 31 32 34 34 35 37 36 37 39 38 37 36 37 36 38 40 39 39 42 43 42 42 41 36 42 39 37 43 37
17 15 15 13 12 12 12 13 14 14 16 17 18 22 26 27 30 33 34 36 37 36 36 37 38 40 40 41 41 39 40 39 38 38 40 41 41 40 45 40 36 40 46
20 19 16 16 16 16 16 17 18 19 19 19 20 21 23 25 27 29 30 32 36 36 34 37 41 41 41 41 41 42 39 36 34 35 40 46 49 43 45 52 41 46 52
25 24 22 21 20 19 19 18 19 21 23 24 25 25 27 27 27 27 28 31 33 31 35 39 38 40 40 40 39 39 38 33 44 40 46 49 50 52 47 53 49 48 44
30 32 29 27 26 24 23 22 22 22 23 24 24 26 27 27 28 30 31 33 34 38 41 41 42 43 43 43 43 45 46 44 43 48 50 48 54 50 52 39 35 38 40
16 25 35 34 31 30 28 27 25 26 25 24 25 27 29 29 31 32 34 36 36 37 40 42 45 47 50 50 52 45 44 46 47 49 47 46 47 38 36 36 35 36 43
17 18 23 30 35 36 35 33 32 30 29 30 30 30 32 33 33 34 35 37 38 40 40 41 41 46 49 41 47 51 44 47 43 44 46 43 35 34 41 43 44 45 48
29 23 21 21 26 30 32 37 37 37 34 33 33 34 37 37 36 37 37 39 41 43 46 44 42 42 45 46 49 45 54 50 44 47 35 31 35 40 41 44 45 47 50
39 36 31 28 25 32 33 35 35 37 37 38 38 40 41 39 39 39 41 43 44 44 45 49 48 54 55 48 53 51 42 42 37 35 35 37 37 40 43 45 46 47 49
36 40 44 40 30 32 27 26 31 35 37 37 38 41 39 43 45 44 44 42 42 43 47 48 54 58 56 42 44 42 35 33 30 33 36 38 39 41 42 45 47 49 51
33 38 39 38 35 34 43 42 29 32 34 32 33 36 37 42 46 49 49 53 57 51 54 56 51 39 36 34 33 26 28 33 35 37 38 37 40 43 45 47 49 50 50
31 40 40 40 41 41 41 45 47 51 50 43 39 41 44 44 51 57 62 63 50 54 44 40 30 28 18 21 27 31 32 35 37 38 39 41 42 43 46 48 49 49 50
24 36 36 38 40 41 41 40 45 48 50 41 45 52 49 47 50 54 22 32 32 19 14 14 15 19 25 27 30 33 35 36 37 38 40 42 44 46 47 48 48 48 48
19 20 22 28 40 38 49 48 45 46 41 44 46 49 44 37 26 20 9 8 9 15 17 21 23 26 29 32 34 35 37 37 38 39 41 43 43 44 44 44 44 42 40
19 18 14 13 14 25 37 40 40 39 37 34 23 15 6 4 4 9 10 15 20 19 21 24 27 29 31 31 31 32 34 36 39 40 41 41 41 41 40 38 37 35 34
10 10 14 10 10 8 5 4 3 4 4 5 9 11 13 12 11 13 14 17 19 22 26 28 28 28 28 30 31 32 34 35 36 37 37 37 37 36 35 34 33 32 31
11 10 9 7 7 11 8 6 4 4 4 5 7 7 10 11 12 15 18 20 23 23 23 25 26 27 29 30 31 31 32 33 34 34 35 34 34 32 31 30 30 30 30
11 11 10 10 9 7 7 8 8 7 7 8 10 10 12 16 17 18 18 19 21 23 24 25 26 27 28 28 30 31 32 32 32 32 32 30 29 28 27 27 28 30 29
13 12 11 9 7 7 8 8 9 9 10 10 11 13 14 15 15 16 17 19 20 22 23 23 24 25 27 28 29 30 30 30 29 29 28 27 26 25 25 27 25 24 24
10 10 10 9 9 9 9 9 10 10 11 11 11 11 12 14 16 18 19 20 21 22 23 25 25 25 27 28 29 29 28 27 26 25 24 23 22 23 23 20 20 21 22
7 7 8 9 9 9 9 9 10 10 10 11 12 14 15 16 18 19 20 21 22 23 24 25 25 26 26 26 25 25 25 24 22 20 20 20 22 21 17 18 19 19 21
7 7 7 7 7 8 7 7 9 11 12 14 15 15 16 17 18 19 20 21 22 23 23 23 23 23 24 24 24 23 22 21 20 18 18 20 20 17 18 19 19 21 24
8 8 8 6 6 7 9 10 12 13 14 15 16 16 18 18 19 20 21 21 22 22 22 22 22 22 22 22 22 21 21 19 19 17 18 20 17 17 19 19 20 23 26
7 4 4 6 8 10 11 12 13 14 15 16 17 18 19 18 19 20 20 20 20 20 21 21 21 21 21 21 21 20 19 19 18 18 19 18 16 18 19 19 22 25 29

GFSGL_700_spd_096.txt.gz
Wind_Speed
7 6 3 4 9 14 17 20 19 23 21 16 19 28 28 34 38 38 35 35 35 34 31 28 28 28 29 30 30 30 30 32 36 35 35 34 33 32 34 35 34 35 33
11 8 6 4 5 8 13 14 18 20 24 22 20 22 33 37 40 40 35 33 32 34 31 32 34 32 32 32 32 34 34 35 38 42 38 37 37 38 38 35 35 38 33
15 12 11 8 6 5 7 12 15 16 22 24 25 25 29 35 38 39 33 31 29 30 31 31 34 36 37 36 36 36 37 40 40 45 44 41 39 42 37 38 42 37 40
17 16 14 12 11 10 9 9 10 14 17 23 25 27 31 32 34 36 35 35 33 34 34 34 36 40 42 41 42 42 40 44 43 45 46 45 44 39 43 39 39 42 44
21 18 17 16 15 15 15 15 14 14 14 19 21 23 26 29 32 35 37 37 37 38 37 37 39 42 43 42 42 41 46 45 46 46 46 44 42 51 44 40 47 46 47
21 21 21 20 19 18 18 18 19 19 19 19 20 22 22 23 26 29 34 38 38 38 38 38 41 45 44 44 45 47 46 45 46 48 49 48 49 48 49 51 50 48 50
16 19 22 26 25 23 22 22 22 22 24 25 25 26 26 26 27 29 31 33 35 36 36 38 41 42 42 44 45 46 47 48 50 53 56 57 52 64 43 51 52 50 41
18 14 15 23 27 29 28 27 26 27 27 27 28 28 30 29 30 32 34 37 37 38 39 40 40 42 44 47 47 51 51 52 53 55 50 56 54 45 52 50 49 45 41
25 26 21 15 17 25 31 32 31 31 31 29 30 31 32 31 32 34 37 39 40 42 44 45 45 43 47 48 49 48 53 52 58 60 57 52 47 43 46 47 40 35 39
29 30 34 28 21 20 21 26 30 34 36 36 34 33 33 34 33 36 37 39 42 43 43 44 48 52 54 50 49 62 51 57 61 57 52 43 41 43 38 32 36 41 43
32 34 34 34 36 30 24 22 23 28 31 36 39 37 38 39 39 38 37 38 40 44 46 52 53 51 47 54 57 61 67 60 48 39 32 32 32 31 34 41 43 45 46
32 35 35 34 35 36 41 36 25 22 26 32 32 34 37 39 37 42 43 45 41 44 47 50 60 60 59 59 60 58 53 43 26 23 24 29 33 36 39 41 44 45 47
34 32 35 35 36 37 37 36 35 34 35 25 26 31 34 37 42 44 51 49 44 51 50 55 61 64 58 49 29 19 14 17 21 25 28 31 35 39 40 42 42 41 43
29 29 28 31 34 38 37 36 39 38 39 40 40 41 43 38 44 50 50 51 52 56 58 58 43 26 17 10 14 19 22 26 30 32 34 36 39 37 38 39 41 42 42
19 18 18 24 26 32 33 37 38 44 50 47 42 43 43 46 50 61 47 50 48 27 18 11 10 12 15 19 22 24 26 29 30 30 31 32 34 37 38 39 42 43 43
11 10 13 18 21 28 33 29 36 45 51 38 47 48 46 47 45 35 11 2 1 7 11 13 14 17 18 21 24 26 26 26 27 29 31 34 35 37 38 39 40 40 40
9 8 11 8 9 6 1 10 31 36 31 21 11 6 4 9 7 8 6 11 12 13 13 15 16 19 23 24 23 24 25 27 29 32 34 35 36 37 36 36 37 37 36
7 6 7 5 5 5 5 3 6 7 5 7 2 6 9 10 10 10 10 11 12 14 17 19 20 19 20 21 22 24 26 28 31 32 33 33 34 34 34 34 34 33 33
13 11 9 7 9 10 6 3 2 1 1 3 6 8 9 10 10 10 10 12 14 14 15 15 16 19 21 23 24 26 27 29 30 31 31 32 32 32 32 31 30 31 32
15 13 13 11 10 8 6 5 5 5 5 6 6 7 7 8 10 12 13 13 13 14 15 17 19 21 22 24 25 26 28 29 30 30 31 31 30 29 27 27 27 27 26
16 16 14 12 8 7 7 7 6 6 6 7 9 10 11 12 12 13 13 14 15 16 18 19 20 21 22 23 25 26 27 28 28 28 28 26 24 24 24 24 23 23 23
14 11 11 9 9 8 8 8 8 9 9 10 9 9 10 11 12 14 15 16 17 18 19 21 21 22 23 24 25 24 24 24 24 24 23 23 23 22 22 21 20 21 22
12 9 9 10 10 9 10 9 9 9 8 9 10 11 12 13 15 16 17 18 19 20 21 22 22 22 23 23 23 23 22 21 22 22 22 22 21 21 20 18 18 19 20
11 10 10 11 11 11 10 9 8 8 10 11 12 13 14 15 16 16 18 19 20 20 21 21 21 22 21 22 22 22 21 21 20 20 20 20 20 21 19 18 19 20 21
12 12 13 12 11 9 8 8 10 11 12 12 13 14 15 17 17 18 19 19 19 20 20 21 21 22 23 23 22 22 21 21 20 20 19 19 20 21 19 18 20 20 22
13 12 10 8 6 6 8 11 12 13 14 15 15 16 18 19 19 19 19 20 20 21 22 22 23 23 22 22 22 22 21 21 20 19 19 19 19 20 18 19 20 22 24

GFSGL_700_spd_099.txt.gz
Wind_Speed
12 9 6 7 9 11 12 15 14 14 16 19 24 25 25 30 32 30 28 30 26 34 36 35 32 31 32 35 34 37 27 28 35 32 29 27 29 30 32 36 37 38 37
13 10 7 6 7 7 9 11 16 15 21 20 18 23 27 31 33 39 34 35 34 36 36 31 34 39 40 33 34 33 32 33 36 35 34 34 35 38 38 39 40 42 43
15 13 11 8 7 7 6 8 11 15 16 25 23 21 26 28 30 36 34 36 36 34 34 33 37 34 30 33 35 36 36 35 36 39 39 41 42 43 45 44 43 44 46
17 16 14 11 9 9 9 8 9 11 13 16 19 23 22 27 28 29 33 37 35 34 35 34 36 33 34 33 37 39 38 40 42 44 47 47 47 48 48 47 47 47 49
15 16 15 14 13 12 13 13 11 11 12 13 15 16 20 25 30 33 36 38 38 35 34 33 33 35 34 37 40 41 43 47 48 49 50 50 50 52 49 50 51 51 55
15 14 15 17 15 15 16 16 17 15 15 15 16 17 17 20 24 30 33 36 38 40 40 40 38 38 40 40 40 42 45 49 52 51 51 52 53 53 56 52 56 59 53
13 13 15 15 17 18 18 19 20 21 21 20 19 19 20 21 24 27 31 35 38 39 40 42 41 41 43 46 47 49 49 50 52 52 53 53 56 50 57 61 62 56 65
12 14 13 14 16 19 20 22 23 25 26 26 25 24 24 24 26 28 31 35 36 37 39 41 43 44 47 47 49 48 50 51 52 54 55 56 58 54 55 61 65 60 63
14 19 19 23 19 18 19 23 27 28 29 29 29 30 30 30 31 33 37 39 40 41 42 44 46 48 51 51 49 50 51 51 55 55 54 59 59 61 56 60 58 55 53
17 19 20 21 23 29 28 23 21 25 30 32 33 34 34 35 37 39 40 43 44 45 45 47 48 49 50 48 53 54 53 57 55 59 62 62 62 61 56 51 47 36 34
25 25 27 29 30 30 32 35 32 23 24 26 32 34 38 40 40 41 43 43 42 44 44 47 49 49 52 51 53 55 59 67 58 64 58 58 46 36 33 28 30 35 38
34 37 32 31 33 32 32 33 37 37 36 36 32 36 38 39 39 43 40 41 42 40 42 44 46 48 53 51 58 66 70 61 60 39 27 23 23 25 29 32 36 38 39
30 30 30 33 36 35 31 33 33 36 39 44 44 52 53 45 39 39 39 36 37 38 43 52 58 60 55 65 61 33 31 22 15 17 20 25 29 31 33 34 36 37 38
16 21 23 24 29 33 31 26 28 31 34 43 42 41 44 39 39 55 40 40 51 51 54 56 53 48 50 36 22 17 19 19 18 22 25 28 30 30 30 31 33 35 37
12 11 11 16 16 22 26 28 24 24 33 37 39 49 44 48 53 51 45 50 46 50 57 45 32 21 14 16 15 15 18 20 22 23 25 28 29 30 30 32 34 35 36
11 10 10 8 8 13 18 23 25 28 32 33 35 35 38 38 39 23 18 6 4 5 5 9 11 13 14 16 16 18 21 23 24 24 26 27 28 29 30 32 33 34 35
12 12 11 10 9 9 11 10 12 18 23 24 26 22 13 11 10 9 11 11 10 10 10 9 10 12 15 18 19 19 19 20 22 23 23 24 26 28 29 30 31 31 32
9 10 13 12 11 10 10 8 6 4 3 4 3 1 3 6 8 10 8 8 9 8 10 12 16 17 17 16 16 18 20 20 22 23 24 25 26 27 28 29 29 29 29
11 14 12 12 11 11 7 6 5 4 3 3 3 5 8 9 9 8 8 9 10 12 14 14 13 13 15 16 18 19 20 22 22 23 23 24 25 26 27 27 26 26 26
13 14 17 14 13 11 8 5 4 5 5 4 4 6 8 8 9 11 12 12 12 11 12 13 14 16 17 18 19 20 21 21 22 22 23 24 24 24 24 24 25 25 25
15 15 13 13 11 9 7 6 5 6 6 6 8 9 11 12 13 11 10 10 11 12 13 14 15 17 17 18 20 20 21 21 22 23 24 23 22 22 23 23 23 23 22
16 15 13 12 10 9 8 9 8 8 9 10 12 12 11 11 11 12 13 14 14 15 15 16 17 18 18 19 20 21 22 22 22 22 22 21 21 21 21 20 21 21 22
14 13 12 12 11 11 11 11 11 11 12 11 10 9 10 11 12 13 13 14 15 15 16 17 18 19 20 21 21 21 22 22 21 21 21 21 21 20 20 21 21 20 20
13 13 14 14 13 13 14 14 14 12 10 9 10 12 13 14 14 15 15 16 17 18 19 19 20 21 21 22 22 22 22 22 22 22 22 22 22 21 21 21 20 19 20
13 14 14 15 15 15 14 13 11 10 9 10 12 14 14 15 15 16 17 18 18 19 20 21 22 22 22 22 22 22 22 22 21 21 22 22 22 22 21 21 21 20 21
13 14 15 15 13 11 9 7 8 10 12 13 15 16 16 17 17 18 19 19 19 20 20 21 21 22 22 22 22 22 22 22 22 22 22 22 23 23 22 21 21 20 21

GFSGL_700_spd_102.txt.gz
Wind_Speed
20 15 12 10 8 7 6 9 11 10 9 14 15 19 22 23 22 25 41 48 34 22 32 48 38 37 37 36 37 36 29 32 34 26 32 31 31 32 32 33 34 35 36
18 14 11 8 5 4 4 5 9 11 11 8 8 11 14 16 15 28 38 33 35 27 24 39 39 33 32 30 29 32 33 34 36 29 32 29 33 35 36 37 38 39 41
17 14 12 9 6 4 4 4 6 7 12 12 11 11 10 14 16 23 25 29 28 27 24 27 33 33 32 29 29 31 33 36 40 37 38 37 36 37 39 40 41 43 45
17 14 13 11 9 6 5 5 7 6 9 11 14 15 14 15 22 25 25 30 32 27 31 32 32 33 29 33 36 34 33 36 43 41 42 41 42 42 44 46 46 48 49
18 13 13 12 11 9 8 8 8 8 8 10 11 15 16 19 21 27 26 30 35 32 34 35 36 32 31 34 40 34 38 37 39 42 47 43 45 48 49 50 50 52 54
19 16 13 12 12 11 11 11 11 12 11 11 11 12 14 15 19 22 26 26 27 30 33 33 31 33 37 32 35 37 38 41 46 45 47 49 46 50 52 53 55 54 57
15 14 12 10 7 7 10 13 14 15 15 15 14 14 14 16 17 20 23 27 30 33 36 38 38 38 38 40 44 43 45 47 50 48 47 52 55 56 55 55 54 57 55
20 15 11 9 6 5 7 8 12 17 20 20 20 20 19 19 22 24 26 27 30 34 37 40 43 44 46 47 48 50 53 53 52 52 53 56 58 58 58 58 54 64 58
6 6 9 23 19 13 9 9 9 14 17 20 24 25 25 25 26 28 31 33 35 36 37 40 42 43 45 46 49 51 52 54 57 56 55 53 56 58 58 59 59 61 65
8 10 13 15 19 19 19 24 27 23 21 25 29 29 30 31 32 33 36 39 41 42 44 46 47 48 49 49 49 49 50 54 55 58 54 55 58 61 58 62 67 52 49
13 16 16 17 17 20 23 24 27 29 30 30 29 31 42 37 34 35 37 42 45 45 47 49 49 51 51 51 50 52 52 53 56 60 58 62 62 56 47 47 35 30 30
23 26 29 31 32 32 31 30 30 32 32 34 35 34 37 40 43 44 45 44 49 48 51 53 57 52 49 51 52 56 55 58 64 58 52 49 33 28 26 26 27 29 32
23 25 30 32 31 30 33 34 33 32 33 33 34 37 40 41 44 42 46 50 55 60 54 55 57 58 53 56 68 69 65 49 34 27 22 19 17 20 23 26 29 30 31
8 11 15 23 28 30 30 29 27 29 33 32 32 34 40 44 38 49 49 48 42 46 44 47 48 51 55 46 36 26 20 18 16 16 16 20 21 23 23 23 25 28 30
7 7 7 7 8 12 14 17 19 20 21 26 32 34 39 42 41 43 34 40 40 36 35 33 22 18 12 11 12 13 14 14 14 17 19 20 21 22 23 25 27 29 30
7 8 7 9 8 7 9 10 14 17 18 22 23 24 31 30 29 30 26 18 12 5 2 4 5 7 8 9 10 11 14 16 17 18 19 19 21 23 25 25 26 27 28
10 9 8 8 9 8 8 8 6 4 3 6 12 12 12 11 7 7 5 6 7 6 6 4 5 7 9 11 14 15 17 16 16 17 18 20 22 23 24 25 25 26 26
9 8 8 9 8 9 8 6 5 4 3 2 2 2 2 3 3 4 5 5 4 4 5 7 9 12 15 14 13 13 14 16 18 19 20 20 21 22 23 23 23 24 25
11 10 12 11 11 11 9 7 6 5 3 3 2 1 2 1 2 3 4 6 8 8 10 13 14 13 12 13 15 16 17 18 18 19 20 21 22 22 22 22 22 23 22
17 16 14 13 12 11 9 7 5 4 4 4 4 4 5 6 7 8 9 11 12 12 12 11 10 11 13 14 15 17 17 18 19 20 20 21 21 21 22 21 21 20 19
13 12 12 11 10 9 7 6 7 6 7 7 7 8 9 9 10 12 12 11 9 9 10 11 12 14 15 16 17 18 19 20 20 21 21 21 21 21 21 20 18 18 17
13 12 12 11 10 10 9 10 10 10 10 10 11 11 11 11 10 9 9 9 10 11 12 13 14 15 16 17 18 18 19 20 20 20 20 20 20 19 18 18 17 17 18
12 12 12 12 12 12 12 12 12 12 12 12 12 12 11 10 10 10 11 12 13 13 13 14 15 16 16 17 18 19 20 20 20 19 19 19 18 18 18 18 18 19 18
11 11 11 12 13 13 14 14 14 14 14 12 10 9 8 9 10 11 12 13 13 14 15 16 17 18 18 19 19 20 20 20 20 20 20 20 20 19 18 18 18 18 18
11 11 12 13 13 14 14 14 14 13 11 9 8 8 10 11 12 14 14 14 15 16 16 17 18 19 19 20 20 20 20 21 21 21 21 21 21 20 19 19 20 20 19
12 12 13 13 13 13 12 11 10 8 8 8 9 12 13 14 14 14 15 16 17 18 18 19 19 20 20 21 21 21 21 21 21 21 21 21 21 21 20 21 21 20 19

GFSGL_700_spd_105.txt.gz
Wind_Speed
30 24 21 21 16 11 8 7 9 10 6 8 13 14 22 23 24 23 24 24 38 36 40 40 41 51 43 38 36 31 28 32 40 38 43 36 37 36 35 33 33 35 38
31 25 23 19 15 11 6 5 7 7 8 7 10 10 16 26 29 26 28 27 28 32 41 37 29 41 42 38 36 30 34 32 34 44 34 38 32 37 37 37 39 38 40
30 24 23 20 15 12 9 6 6 7 8 7 8 9 11 16 18 19 16 22 24 33 39 27 24 36 46 40 35 35 31 33 34 35 39 37 32 30 33 35 34 40 42
29 24 22 21 17 13 11 9 7 7 5 6 7 5 8 11 11 13 10 10 10 23 22 21 21 26 28 43 34 32 30 32 32 37 39 38 38 41 40 39 41 43 46
28 23 21 20 19 16 13 10 8 7 6 5 6 5 5 3 6 8 13 13 13 17 21 22 23 23 22 30 31 32 32 35 34 39 37 37 38 40 44 44 48 46 49
26 23 21 21 19 17 15 13 11 10 8 7 7 7 7 7 6 8 9 15 20 22 26 28 29 28 30 31 35 34 35 36 39 43 45 43 42 43 44 49 50 47 46
21 19 18 18 18 17 15 14 13 12 11 10 9 9 9 10 11 11 14 17 23 24 29 32 34 33 37 37 41 39 39 42 40 46 48 46 48 48 48 51 53 55 58
24 25 22 19 16 14 12 9 8 10 11 11 12 13 13 13 14 17 18 19 21 24 27 28 30 34 38 39 41 43 45 46 46 49 52 53 54 53 51 56 56 55 58
17 23 29 20 20 17 9 7 5 4 6 8 10 13 16 17 19 20 22 24 24 24 26 29 33 36 39 43 47 51 53 55 54 54 55 55 55 56 58 62 59 60 65
11 16 13 11 7 20 26 22 20 18 14 14 17 19 20 22 19 21 25 28 29 31 33 33 33 36 38 42 49 53 54 55 54 53 54 55 58 55 60 58 64 62 57
15 14 10 10 12 15 17 20 21 24 24 24 24 24 24 23 23 25 24 25 30 32 36 39 39 41 44 46 48 52 52 54 57 59 62 62 58 59 59 55 57 43 34
10 12 14 17 20 22 22 22 24 27 30 30 31 30 28 28 28 27 25 25 32 33 33 38 43 47 50 52 55 59 57 67 65 60 57 53 53 46 37 34 32 26 26
15 18 19 21 24 27 29 28 28 28 27 29 31 33 32 33 34 34 35 35 38 37 39 40 43 48 48 46 54 49 49 54 50 47 40 26 22 20 20 20 22 24 24
1 4 7 9 13 18 22 24 25 25 24 26 29 31 32 32 33 36 36 39 41 43 39 39 42 38 42 37 32 31 26 24 21 18 17 17 17 18 20 21 20 21 22
4 4 4 4 6 6 8 12 15 18 16 17 19 22 25 29 32 31 34 32 32 32 30 31 29 30 25 17 13 11 10 11 11 12 14 17 19 19 17 19 20 21 22
6 6 6 6 6 6 6 5 5 5 10 14 18 17 19 23 24 23 28 31 32 28 16 7 5 3 4 4 5 7 8 10 13 15 17 15 16 16 17 19 21 22 23
9 9 8 8 7 8 8 8 7 5 4 6 9 12 15 16 16 13 7 8 8 6 6 5 5 4 5 6 8 10 13 16 16 14 14 14 16 18 19 20 21 22 23
9 8 7 7 6 6 7 8 8 7 6 5 5 5 5 5 3 3 5 6 5 4 4 4 5 6 8 10 11 12 11 10 10 12 14 15 17 18 19 20 21 22 22
8 7 7 7 8 8 7 7 7 6 5 5 5 4 4 4 4 4 3 3 3 5 6 7 9 9 9 9 9 9 11 12 14 16 17 18 18 19 20 20 20 21 21
12 14 13 11 8 8 7 6 6 6 6 6 5 5 5 5 5 6 7 8 8 9 9 8 8 8 8 9 10 12 13 14 15 16 17 18 18 19 20 21 21 21 20
9 9 9 8 8 7 6 6 5 5 6 7 7 7 8 9 9 9 9 9 9 9 9 9 9 10 10 12 13 14 14 15 16 18 18 19 20 20 20 21 20 20 19
10 9 9 9 8 8 7 7 8 8 9 10 11 11 12 12 11 10 10 9 9 9 10 10 11 12 12 14 15 15 16 17 18 18 19 20 20 20 20 20 20 20 18
9 8 8 9 9 9 9 10 10 11 11 12 12 12 12 11 10 10 10 10 10 11 12 13 14 15 15 16 16 17 18 18 18 19 19 20 19 19 20 20 19 19 17
9 9 9 9 9 10 10 11 12 12 12 12 12 11 10 9 9 9 10 11 12 13 14 15 15 16 16 17 17 18 18 19 19 19 19 19 19 20 20 19 19 18 18
9 10 10 10 10 11 11 12 12 12 12 11 10 9 9 9 10 11 13 13 14 14 15 15 16 17 18 18 19 19 19 20 20 20 20 20 20 20 20 19 19 19 18
10 11 11 11 11 11 11 11 10 10 9 9 9 9 10 12 13 13 14 14 14 15 16 16 17 18 19 19 19 19 20 20 21 21 21 21 21 21 20 20 19 19 18

GFSGL_700_spd_108.txt.gz
Wind_Speed
37 40 36 33 28 24 20 20 19 17 13 16 17 16 18 25 32 34 34 34 38 34 34 31 35 45 50 43 46 45 45 47 49 49 42 39 33 31 37 40 37 44 41
34 33 36 33 28 23 20 18 17 13 12 12 10 11 12 15 19 24 35 29 32 31 31 40 40 40 51 45 46 47 43 31 40 44 39 33 40 38 38 42 46 47 48
34 32 38 35 28 23 20 19 15 12 10 9 8 7 7 14 18 19 23 25 27 25 25 29 36 43 30 43 48 48 37 32 33 31 32 32 38 42 46 44 35 47 53
31 39 41 34 26 24 22 20 16 13 9 7 7 8 9 11 17 20 24 23 29 29 27 25 30 41 33 25 45 48 38 31 32 35 32 32 33 37 43 40 38 35 38
36 41 37 30 27 26 25 22 18 15 12 10 9 9 9 10 12 14 18 17 18 20 20 23 22 24 23 20 27 32 39 38 37 34 31 32 35 41 39 41 41 42 46
37 39 34 29 27 28 27 24 20 18 16 13 11 10 9 9 9 10 11 20 20 19 17 16 13 18 15 20 23 30 36 39 37 37 36 37 35 36 39 40 42 40 41
41 36 29 27 27 28 27 24 21 19 17 15 14 12 10 9 9 7 8 9 13 13 15 19 18 18 21 21 25 30 31 34 36 38 41 40 40 37 42 50 49 49 53
32 31 28 26 25 27 28 25 22 20 17 16 15 13 13 12 11 11 11 11 10 11 15 18 21 23 24 27 30 31 38 38 41 44 45 47 47 46 49 48 51 54 56
33 31 27 26 26 25 25 22 18 17 16 16 16 16 16 15 16 14 15 15 15 16 17 19 22 25 28 33 36 38 41 46 48 52 53 51 53 53 53 55 59 60 60
33 28 27 28 29 25 24 19 13 12 14 14 14 14 16 16 17 18 20 21 20 21 23 25 27 28 31 31 35 38 44 48 50 50 54 57 60 61 60 60 62 65 66
23 21 18 30 30 29 27 28 25 22 22 20 19 21 20 19 18 18 19 20 21 23 24 25 28 29 31 35 36 39 45 49 50 54 56 59 62 63 63 64 66 63 57
28 22 21 17 18 18 18 22 31 29 29 26 24 23 24 23 22 20 20 23 24 24 26 30 33 34 40 41 44 45 48 52 53 51 53 54 54 57 55 51 47 41 34
14 16 17 19 21 23 24 25 26 26 27 28 29 28 28 27 26 25 26 26 26 29 32 31 34 35 40 41 44 49 51 53 52 54 48 41 39 36 31 26 23 22 22
10 7 7 9 13 17 21 25 27 28 28 28 27 27 27 28 29 30 29 29 33 29 33 30 31 26 31 36 33 37 40 39 34 27 22 19 17 16 16 18 20 21 22
9 7 7 6 3 2 2 4 9 14 17 18 19 21 24 25 26 28 28 33 31 31 30 31 31 32 33 31 26 23 20 15 12 11 11 12 14 16 19 20 20 19 19
3 4 4 4 4 4 4 3 1 2 6 11 13 14 18 15 15 21 22 22 23 25 26 23 19 18 17 13 9 6 6 7 9 11 13 15 17 18 17 16 16 17 19
3 4 5 5 5 5 4 3 2 1 1 1 5 7 8 10 12 11 10 9 8 6 6 6 7 6 6 6 6 7 9 11 13 14 15 15 15 15 15 16 17 18 20
5 5 3 3 3 3 4 4 4 3 3 3 4 5 6 6 5 5 5 4 3 4 4 4 4 5 7 8 10 12 13 13 13 14 14 15 15 16 17 18 19 19 20
8 5 4 5 5 5 6 6 6 6 5 5 5 5 6 6 6 6 5 5 5 6 6 7 9 10 12 12 12 12 12 13 14 15 15 15 16 16 17 18 19 20 21
10 10 8 5 5 5 5 5 6 7 7 8 7 7 7 7 7 7 8 8 9 10 11 12 12 12 12 11 12 12 14 15 15 16 17 18 18 19 19 20 20 21 21
10 8 7 7 6 6 6 6 7 8 8 8 8 8 9 10 10 11 12 12 13 12 12 12 11 11 12 13 14 15 15 16 17 18 18 19 19 20 20 20 21 21 21
11 10 9 9 9 9 8 8 8 9 9 10 11 11 12 13 14 14 14 14 14 13 13 12 13 14 14 15 16 16 17 17 18 19 19 20 20 21 21 22 22 22 22
13 12 12 11 11 11 11 11 12 12 12 13 13 14 14 15 15 15 14 14 14 14 14 14 15 16 16 16 17 17 18 18 19 20 21 21 22 22 23 23 23 22 22
13 13 13 12 12 13 13 13 14 14 15 16 16 16 16 15 15 14 14 14 14 15 15 16 17 17 17 17 18 19 19 20 21 21 22 22 23 23 23 23 23 23 22
12 13 13 13 14 15 15 15 15 15 15 15 15 15 14 14 14 14 14 15 16 16 17 17 17 18 18 19 19 20 21 22 22 23 23 24 24 24 24 24 24 24 23
12 13 13 14 14 14 14 14 14 14 14 13 13 13 13 13 14 15 15 16 16 17 17 18 18 19 19 20 21 21 22 23 23 24 24 25 25 25 25 25 25 24 24

GFSGL_700_spd_111.txt.gz
Wind_Speed
37 38 42 41 40 39 35 30 29 27 25 26 24 23 24 23 26 27 29 23 23 25 26 28 27 26 31 43 47 38 34 41 38 27 20 29 31 34 40 29 32 36 38
35 37 40 38 41 40 34 31 28 26 24 24 21 19 18 22 27 30 29 29 26 29 33 38 34 28 33 40 39 39 38 35 34 35 34 41 44 47 42 33 38 35 39
32 34 36 39 42 40 35 31 28 25 22 21 19 16 14 18 23 25 35 33 30 29 31 33 41 38 37 35 42 46 36 39 40 44 37 37 40 49 46 30 40 40 42
27 32 34 40 44 39 34 31 27 24 20 18 18 13 11 12 15 17 21 22 24 25 26 29 31 37 36 36 40 43 46 40 43 38 31 32 32 31 37 33 33 42 50
26 34 34 38 43 40 34 31 29 23 21 19 16 12 10 8 9 11 16 20 24 25 25 27 27 26 26 36 37 29 37 42 44 42 36 35 37 33 34 31 33 38 40
28 35 38 41 44 39 34 32 29 24 22 19 15 11 9 7 8 10 11 13 16 19 24 27 27 28 28 25 26 33 25 32 41 45 34 36 34 36 29 32 37 41 43
28 31 36 42 43 37 33 32 29 25 24 20 17 13 11 11 11 10 10 10 14 16 17 20 16 17 19 20 21 21 24 29 32 36 39 41 39 38 38 38 38 41 44
21 28 36 41 36 29 32 32 29 27 26 23 21 17 16 14 14 14 13 12 12 15 17 19 21 21 20 18 19 21 23 27 32 34 35 38 38 39 40 43 44 48 50
25 28 32 33 33 36 33 32 30 28 26 24 23 22 21 20 18 17 16 16 15 15 16 16 17 21 24 23 25 27 27 30 33 33 38 39 40 41 43 46 53 51 54
31 31 36 38 35 32 31 32 30 29 28 25 23 22 20 19 19 19 18 18 17 19 19 19 17 17 20 24 29 32 35 36 38 39 41 43 47 50 52 53 54 56 60
31 39 37 38 35 32 26 26 26 23 19 19 17 17 17 17 18 18 17 18 19 20 22 23 24 23 25 27 27 30 33 34 37 38 41 45 50 53 55 57 60 62 61
20 25 24 34 31 27 33 32 26 21 27 18 18 20 21 20 21 18 18 19 19 21 26 29 29 29 31 36 38 41 43 45 47 49 51 52 52 50 48 50 49 48 43
20 21 11 15 16 20 26 23 25 34 32 29 28 28 25 23 22 22 24 25 27 28 30 27 29 31 33 38 37 37 42 45 45 48 45 44 43 43 37 30 27 25 23
17 12 4 17 23 21 23 23 24 24 25 28 28 27 26 25 26 27 27 29 26 29 29 31 24 30 27 26 30 31 34 38 42 39 37 36 29 22 17 15 15 16 18
14 14 10 6 2 1 10 19 24 26 26 25 25 24 24 24 24 25 26 28 28 32 35 36 31 30 29 31 33 30 32 33 28 22 17 15 12 12 13 15 18 19 20
5 5 6 6 5 4 5 3 4 7 9 11 13 14 14 15 17 21 23 23 26 30 24 25 27 27 25 22 19 16 14 12 9 9 10 11 12 15 17 18 19 18 18
2 1 2 1 2 2 1 2 4 5 7 11 12 12 13 16 10 16 17 14 13 14 14 13 12 11 9 8 7 6 6 7 9 11 13 15 16 17 18 18 18 18 19
3 1 2 1 2 3 2 3 3 4 5 5 6 6 7 6 6 7 7 7 7 7 7 7 7 7 7 7 8 9 10 12 14 15 15 16 16 17 17 18 18 19 20
7 5 4 3 2 3 3 3 2 3 3 4 4 5 5 5 6 6 7 6 7 8 8 8 8 9 10 12 13 14 14 15 15 15 16 17 17 18 18 19 20 20 21
6 7 6 4 4 4 4 4 4 4 4 4 4 4 5 5 6 6 7 8 8 9 10 10 11 12 14 14 15 15 15 15 15 16 17 17 18 19 19 20 20 21 22
8 8 7 6 6 6 6 6 6 6 6 6 7 7 8 8 8 8 9 10 10 11 12 13 14 14 15 15 15 15 16 17 17 18 18 19 19 20 21 21 22 23 23
9 9 9 10 10 10 10 10 10 11 11 11 11 11 12 12 12 13 14 14 15 15 15 15 15 15 15 16 16 17 18 18 18 19 19 20 20 21 22 23 24 24 24
11 11 11 12 12 13 13 13 14 14 14 14 14 14 15 15 15 15 15 16 15 15 15 15 16 16 17 17 17 18 18 19 19 20 21 22 23 24 25 25 25 25 25
11 11 12 13 13 14 15 15 15 16 16 17 17 17 17 17 17 17 16 16 16 15 15 16 17 17 17 18 18 19 20 20 21 22 23 24 24 25 25 26 26 26 26
13 13 14 15 15 15 16 16 17 17 18 18 18 18 18 18 17 17 17 16 16 16 16 17 18 18 19 19 20 21 21 22 23 24 25 25 26 26 26 27 27 27 27
15 16 16 16 17 17 17 18 18 18 18 18 17 17 17 17 16 16 16 17 17 17 18 18 19 19 20 20 21 22 23 24 24 25 25 26 27 27 28 28 29 29 29

GFSGL_700_spd_114.txt.gz
Wind_Speed
34 36 42 36 38 38 41 40 40 37 34 32 30 28 28 26 26 26 23 23 24 18 21 20 15 23 33 34 37 30 33 31 34 35 31 36 37 31 33 28 32 33 37
33 34 35 35 38 39 40 39 40 35 33 31 28 26 26 24 27 28 24 25 26 21 23 22 21 19 22 24 27 29 28 26 35 33 25 23 20 26 24 24 32 33 35
32 29 31 34 38 40 38 43 40 35 32 29 25 24 24 22 24 24 25 27 28 28 28 26 23 28 26 24 41 34 39 39 45 33 31 32 34 32 30 32 38 41 41
27 28 29 35 38 39 43 42 38 35 30 27 23 21 20 20 22 20 20 24 30 28 26 25 26 29 32 31 37 38 36 42 36 35 35 33 35 37 36 33 35 42 42
28 24 28 32 35 38 43 44 36 34 29 24 22 19 17 18 18 14 10 17 19 23 26 26 24 25 26 36 37 37 36 39 43 44 40 38 38 36 33 29 31 32 33
28 23 26 28 32 39 44 43 37 33 28 25 21 18 17 17 14 13 12 15 17 19 22 23 23 22 24 25 26 26 31 28 43 41 40 35 34 36 32 31 35 35 33
28 25 24 26 34 42 42 42 39 32 28 26 22 20 18 16 12 10 12 12 13 14 16 21 23 23 23 22 24 26 36 38 32 30 35 36 32 37 33 32 37 38 38
25 24 22 26 34 40 40 43 38 32 29 27 24 22 20 19 15 13 12 11 10 10 11 12 14 17 17 21 25 28 29 29 30 30 29 28 33 37 38 40 40 39 40
26 27 26 28 33 36 40 39 33 31 30 29 28 26 24 21 17 16 14 13 12 12 13 13 16 19 20 20 20 20 21 22 23 24 25 26 29 29 30 31 34 38 44
26 25 29 32 34 32 34 34 33 32 31 30 28 26 23 21 19 17 16 15 16 16 16 15 15 17 22 23 25 23 24 26 27 28 28 31 32 33 35 39 45 47 51
23 29 29 33 36 36 34 31 30 32 31 29 28 26 24 22 20 19 19 18 19 19 20 21 20 19 17 16 19 22 23 24 26 28 30 31 33 35 38 42 45 49 52
3 16 30 37 38 40 36 38 35 34 30 28 26 25 22 19 15 15 15 16 15 16 17 17 17 16 18 21 24 26 29 31 31 34 38 40 42 46 48 50 52 50 45
16 3 7 16 24 39 38 39 37 28 26 24 23 20 18 16 14 18 16 19 20 20 22 22 23 23 25 27 30 34 36 38 39 39 39 42 45 46 45 42 39 36 28
24 20 15 6 7 19 21 29 35 35 28 24 23 26 29 32 37 30 22 28 26 30 30 24 27 26 26 27 34 31 35 35 33 34 36 37 37 32 27 24 20 17 15
17 21 18 15 19 14 4 8 11 11 15 22 34 34 31 25 21 24 26 27 27 29 32 29 31 28 25 28 27 27 29 29 31 31 29 24 20 18 15 14 13 14 15
11 8 13 14 13 11 11 9 7 3 4 8 12 15 17 17 21 21 19 22 23 25 26 27 29 27 26 27 28 26 24 21 20 17 14 13 12 12 13 14 15 15 17
9 7 5 7 6 7 8 7 5 5 4 6 6 9 12 14 13 14 17 16 17 18 18 19 19 17 16 15 13 12 11 10 10 10 11 12 14 15 15 15 16 17 18
8 7 7 6 5 6 6 4 2 2 3 4 6 8 9 9 8 7 6 8 9 9 10 9 9 8 7 7 7 8 9 10 12 13 15 16 15 15 15 16 17 18 19
7 7 5 2 2 2 2 1 0 1 2 3 4 5 6 7 7 7 7 7 7 7 7 7 8 8 8 10 11 13 14 14 15 15 15 16 16 16 17 17 18 19 20
6 6 5 3 2 2 1 1 2 2 3 4 5 5 6 7 7 7 7 8 8 9 10 11 12 13 14 15 15 15 15 16 15 16 16 16 17 17 18 18 19 19 21
7 6 6 4 4 3 3 3 4 4 5 6 6 7 8 9 9 10 10 11 11 12 13 13 14 15 15 15 15 15 15 16 15 15 16 17 18 19 19 20 20 21 22
9 9 9 8 8 7 7 8 8 8 8 8 9 9 10 10 10 11 12 12 12 12 13 13 14 14 14 15 15 16 16 16 16 17 18 19 19 20 20 20 21 22 23
9 10 10 11 11 11 11 11 11 12 12 12 13 13 13 13 13 13 13 13 13 13 13 14 14 15 15 15 14 15 16 16 17 18 18 19 19 21 22 22 23 24 26
11 10 10 11 12 13 14 14 14 15 15 15 15 15 15 15 15 15 15 15 15 15 15 15 15 15 15 15 16 16 16 17 18 18 19 20 21 23 23 25 26 26 28
12 12 12 13 13 14 14 15 15 16 16 16 17 17 17 17 17 17 16 16 15 15 15 15 15 15 16 16 16 17 17 18 18 19 21 22 23 24 25 27 27 28 29
13 14 14 15 15 16 16 16 16 17 17 17 17 17 17 17 17 17 16 16 16 16 16 16 16 16 17 17 17 18 18 19 20 21 23 24 26 27 28 29 29 29 29

GFSGL_700_spd_117.txt.gz
Wind_Speed
34 36 37 37 42 37 38 38 39 35 39 37 32 35 35 31 29 28 24 23 20 22 24 24 21 18 24 31 42 37 29 30 31 32 26 22 28 27 26 26 30 29 27
31 33 36 36 37 36 38 39 36 37 38 38 33 35 33 30 28 26 23 23 22 24 23 22 24 20 20 22 27 32 31 27 35 32 28 30 31 32 35 36 38 38 41
31 34 34 33 33 31 32 36 36 37 36 39 35 36 32 28 26 24 22 21 25 27 25 22 21 24 20 20 23 29 29 27 33 31 27 21 28 31 26 28 28 26 29
33 33 33 31 30 35 35 37 33 38 38 38 36 32 29 26 23 21 20 20 25 28 28 30 26 27 24 24 18 17 21 27 28 34 29 21 25 28 28 28 23 28 30
32 31 29 29 25 32 37 35 34 33 45 37 35 30 28 24 21 19 18 18 24 28 23 26 30 28 26 23 32 31 26 33 37 33 32 36 38 34 32 34 36 31 35
31 27 28 22 24 26 30 33 35 42 45 37 34 30 26 22 20 18 17 16 19 20 27 25 27 26 27 28 22 23 27 34 36 38 35 39 39 38 35 33 32 34 33
29 27 23 23 23 25 27 33 40 41 43 38 31 29 25 22 19 17 17 16 16 16 18 19 21 22 22 21 18 19 27 31 29 27 33 36 33 30 30 29 30 32 30
28 24 19 27 23 24 24 31 38 39 36 39 32 31 27 23 21 19 17 16 17 15 16 16 18 21 21 21 22 22 18 24 24 32 33 31 31 35 36 33 29 30 33
26 20 24 28 26 25 26 37 37 36 40 36 35 32 27 25 22 19 18 16 16 14 14 14 13 13 18 18 21 23 25 25 26 31 33 26 28 30 30 30 31 27 33
24 18 27 27 29 29 33 27 35 41 40 35 35 32 29 26 23 22 20 19 18 16 14 13 12 14 13 13 15 15 15 16 17 19 20 23 26 27 28 29 31 33 35
19 15 24 28 29 34 31 33 33 34 33 34 33 32 29 27 26 24 22 20 19 18 16 15 16 15 17 18 18 20 21 23 24 25 27 31 33 33 32 31 34 37 39
16 13 12 25 30 34 39 34 36 32 36 33 38 33 29 28 26 24 21 19 18 17 16 16 16 16 16 15 18 19 19 20 22 25 28 29 32 35 37 37 38 41 44
27 22 13 6 27 38 41 40 37 36 33 32 31 30 30 29 27 23 18 15 14 15 16 15 14 13 15 15 19 24 27 29 29 31 32 34 36 39 39 41 41 40 42
21 24 23 16 1 26 38 39 38 36 35 32 32 33 28 24 24 20 18 18 20 20 20 19 18 20 22 23 26 30 27 29 33 31 35 33 35 36 35 35 34 30 26
15 17 17 20 21 10 13 23 33 37 31 31 29 34 39 29 27 24 23 23 24 28 22 24 26 19 25 23 25 25 24 27 28 30 30 26 28 30 27 24 20 17 16
14 15 14 14 13 16 12 16 10 13 14 16 18 20 26 25 22 23 37 46 46 38 20 16 18 17 20 21 22 23 23 24 25 25 26 24 21 18 15 14 15 16 17
9 8 10 12 12 12 10 9 7 8 9 10 11 9 2 5 12 12 16 16 16 16 15 16 17 17 16 18 19 18 16 14 13 12 12 12 12 13 15 16 17 17 17
7 7 6 7 7 7 7 7 6 4 4 2 5 6 6 6 6 6 6 7 8 7 7 7 7 7 8 9 9 9 9 9 10 11 12 13 15 16 16 17 17 18 19
7 7 5 4 4 5 5 6 7 7 7 6 5 5 3 2 1 1 1 1 2 3 4 4 5 6 6 7 7 9 10 11 13 14 15 15 16 17 18 18 18 19 20
7 6 5 4 3 3 3 3 3 3 3 3 3 2 2 3 3 3 3 4 5 6 7 7 7 8 9 9 10 11 12 13 14 15 15 16 17 18 18 18 19 20 19
8 5 4 4 3 3 3 2 2 1 1 1 2 3 3 4 4 6 7 7 8 9 10 10 11 12 12 13 13 14 15 15 16 17 17 17 17 18 18 19 19 19 18
9 8 6 5 4 5 5 5 5 5 5 5 5 6 7 8 8 9 10 10 11 12 12 13 13 14 14 15 16 17 17 17 17 17 17 18 18 18 18 19 19 20 22
12 11 10 10 9 8 8 8 9 9 9 9 9 9 10 10 11 11 11 11 12 13 13 13 13 14 15 15 15 15 15 16 17 17 17 18 19 18 19 20 21 22 22
12 12 12 12 12 11 11 12 13 12 12 11 11 11 11 12 12 12 12 12 12 13 13 12 13 13 13 13 14 15 16 17 17 17 17 18 18 19 20 21 21 24 26
12 13 13 13 13 13 13 13 13 14 14 13 13 12 12 12 12 12 12 12 12 12 12 12 13 14 15 15 15 15 16 17 17 17 17 18 19 20 21 23 25 27 27
12 12 13 13 14 15 15 14 14 14 14 14 13 13 13 14 13 13 12 12 13 13 13 13 14 14 14 15 15 16 16 16 17 18 18 19 20 22 24 25 26 27 28

GFSGL_700_spd_120.txt.gz
Wind_Speed
36 40 44 46 45 43 45 47 43 39 38 35 37 34 35 34 37 37 35 32 32 29 27 25 23 24 25 28 27 26 37 38 33 30 36 32 32 36 36 27 25 24 28
33 34 36 38 40 41 42 40 39 40 39 35 37 35 37 32 36 36 34 32 31 28 26 25 24 27 24 22 22 24 25 28 31 30 26 36 28 34 33 34 39 31 29
33 34 35 36 37 37 39 38 38 42 39 36 37 37 36 30 36 35 33 32 30 27 26 26 24 25 25 24 21 22 23 29 30 27 30 38 32 31 33 34 36 38 38
35 36 36 33 34 33 35 37 32 37 33 36 36 34 34 35 36 34 32 32 29 26 26 27 26 26 22 25 22 22 24 29 29 26 28 34 26 24 28 31 27 28 34
33 34 33 33 33 32 34 34 36 38 35 36 35 39 30 36 36 33 31 31 27 26 24 25 25 27 28 28 25 25 21 25 31 30 32 32 30 24 27 27 24 30 30
32 34 35 35 32 29 31 28 35 37 35 34 36 35 37 36 34 31 31 29 26 24 24 24 25 29 28 26 28 23 29 24 24 25 29 29 27 27 28 29 25 29 33
32 34 36 36 32 30 28 24 27 30 33 34 37 34 41 34 33 31 30 27 24 23 20 24 24 25 27 28 29 30 20 20 30 34 34 35 38 30 31 33 37 37 32
30 33 35 35 32 30 26 24 25 27 34 36 41 31 37 35 33 31 28 24 23 21 22 20 23 27 29 28 27 21 25 22 17 21 35 27 34 32 30 37 30 30 32
26 25 27 29 26 26 24 23 24 31 38 36 38 39 37 36 33 30 26 23 22 21 21 23 25 26 25 25 23 23 23 26 24 25 28 25 26 31 27 27 33 33 33
30 26 23 20 21 26 28 24 22 27 41 40 37 35 40 36 32 29 27 23 22 19 19 18 19 17 17 23 25 24 24 24 23 25 25 26 29 36 33 29 29 30 32
29 29 24 20 22 26 28 26 30 34 42 42 33 38 36 39 33 30 27 24 24 22 19 17 16 16 15 15 17 16 18 19 21 20 20 21 23 23 26 30 31 32 35
30 30 29 22 17 25 29 29 30 34 36 34 31 41 37 34 33 30 28 24 24 24 22 20 20 19 18 18 17 16 18 21 21 21 24 26 26 28 30 32 34 35 37
25 29 30 33 16 18 27 29 36 34 32 38 32 38 36 33 30 28 26 24 24 23 24 23 21 20 20 18 16 16 18 16 17 18 21 24 27 31 36 36 35 36 36
27 27 26 31 26 12 16 29 41 36 37 36 31 41 34 36 31 31 27 26 26 24 23 20 18 18 18 19 22 22 24 23 27 30 27 28 32 31 32 33 35 36 34
18 26 25 25 30 19 6 16 31 38 40 40 41 33 32 33 35 36 26 25 26 24 24 23 20 20 26 29 31 32 31 29 30 32 32 32 31 34 33 29 27 27 24
13 13 22 23 25 27 22 6 9 18 25 26 30 26 27 24 25 27 34 41 37 38 35 30 26 33 31 34 36 28 24 26 30 29 28 25 26 24 24 22 19 16 16
12 10 9 13 19 21 21 22 16 8 6 9 14 20 23 27 28 32 24 22 25 22 21 17 19 22 20 23 23 23 22 21 20 22 22 21 20 17 15 14 15 15 17
10 10 8 7 7 9 11 14 17 16 14 11 7 5 9 10 10 10 11 12 8 6 14 16 13 12 13 14 14 15 16 14 12 13 13 13 13 13 14 15 16 17 18
8 8 7 5 4 5 5 6 5 5 6 6 6 5 6 5 6 6 4 8 4 4 5 7 9 9 10 9 10 10 11 11 12 12 13 14 15 16 16 17 17 16 17
9 8 6 4 3 3 3 3 3 3 4 3 3 3 3 3 3 4 6 9 9 8 8 9 10 10 10 10 11 11 12 12 13 13 15 16 16 16 16 17 17 18 19
8 7 7 6 4 3 2 1 0 0 2 3 3 3 3 5 6 5 5 5 6 6 6 6 7 7 8 9 11 11 12 13 14 14 15 16 16 17 18 19 19 20 22
9 8 8 8 7 6 5 5 5 5 4 4 3 3 4 4 4 5 5 6 6 7 7 8 8 9 10 11 12 13 13 14 14 15 16 17 18 18 19 19 20 21 21
11 10 9 8 8 8 8 8 7 7 8 8 8 8 8 8 8 8 8 8 8 9 9 10 11 11 12 13 14 14 15 15 16 17 17 18 18 19 19 20 20 21 22
14 13 12 12 11 10 10 10 9 9 9 9 10 9 9 10 10 11 11 11 11 12 12 13 13 14 14 15 15 16 16 16 17 18 18 19 19 19 20 21 21 21 22
14 14 14 13 13 13 13 12 12 11 11 11 11 11 11 11 12 12 12 12 12 13 14 14 14 15 15 16 16 16 16 16 17 18 19 19 19 20 20 20 21 23 23
13 13 14 14 14 14 14 13 13 14 14 14 13 13 13 13 13 13 13 13 13 14 14 14 14 15 15 16 16 17 17 17 18 18 18 19 19 19 20 22 22 23 25

GFSGL_700_spd_123.txt.gz
Wind_Speed
32 36 37 41 50 54 56 54 52 50 51 48 45 42 41 39 40 39 39 38 39 39 37 34 33 32 28 29 25 28 31 29 33 26 27 27 35 33 32 37 43 34 31
33 37 39 43 46 47 47 45 48 50 48 45 44 43 41 39 39 38 38 36 37 38 35 34 33 32 30 29 25 27 33 31 25 25 33 24 32 30 33 32 37 35 31
33 34 34 37 39 41 41 42 44 45 43 42 42 43 42 40 40 37 40 36 36 36 34 34 33 32 31 29 28 28 23 25 25 29 30 33 35 35 34 33 37 43 34
31 32 34 35 35 36 37 37 39 41 40 39 40 39 42 40 41 37 37 37 33 34 34 34 33 33 31 28 31 28 26 23 26 22 27 34 32 34 36 30 32 36 35
30 31 32 33 33 33 32 33 35 37 38 35 40 42 42 40 37 35 33 35 35 34 33 34 33 31 30 28 26 25 25 26 25 26 32 27 29 34 35 29 31 36 36
27 29 31 33 35 34 34 35 35 34 34 32 35 34 37 39 36 37 37 34 36 34 34 33 31 29 28 29 28 27 27 29 27 27 27 33 28 24 30 26 27 30 34
25 28 31 34 35 36 35 34 35 33 32 35 43 40 39 37 41 40 38 35 34 34 34 32 31 27 27 29 29 26 24 22 28 29 30 34 25 23 24 29 30 31 30
24 27 30 33 35 36 35 35 35 33 31 31 37 39 37 38 35 39 30 33 33 33 33 30 30 28 26 25 33 28 34 32 30 26 28 31 30 30 27 28 26 29 30
25 28 29 29 30 33 35 34 33 30 27 33 32 37 40 37 41 34 37 33 33 33 31 30 28 27 28 30 29 29 31 28 24 28 23 26 31 37 34 32 29 29 36
25 28 29 32 29 26 30 31 28 31 25 23 26 34 31 37 40 34 36 33 33 32 29 26 23 22 20 29 31 32 33 25 24 21 24 27 24 32 32 31 34 33 29
27 27 29 29 34 29 25 26 27 28 27 22 28 38 36 38 39 36 29 31 33 29 26 22 22 23 25 27 28 29 25 26 24 24 23 24 24 25 27 31 34 34 33
27 29 31 30 35 34 25 26 27 29 27 29 30 35 39 37 32 32 31 34 33 29 27 24 23 22 21 21 22 27 26 29 30 30 29 29 27 27 31 35 35 36 36
21 29 31 31 33 39 23 22 23 26 27 24 29 29 39 26 30 36 37 36 31 30 28 27 25 22 21 22 21 19 20 22 22 24 26 24 25 26 28 29 31 32 33
20 20 29 31 30 35 29 14 17 25 27 27 38 38 39 37 39 33 31 35 32 27 27 26 24 25 24 23 22 24 27 26 24 22 25 26 27 27 30 31 32 35 33
20 19 19 27 29 30 35 24 14 13 22 35 41 32 38 37 36 40 38 34 28 23 24 26 27 28 26 23 22 24 27 26 27 28 28 30 34 34 28 30 34 34 34
18 18 18 18 25 26 29 31 17 9 4 15 24 33 41 38 42 40 39 29 31 29 27 24 25 26 29 30 31 32 35 37 35 39 36 34 33 33 32 30 29 27 25
17 16 15 16 16 19 22 23 26 22 12 2 5 8 15 23 26 23 31 35 38 34 38 39 35 34 33 34 33 34 36 35 34 30 31 27 23 21 20 20 21 18 16
14 15 14 13 13 14 15 17 19 19 19 19 15 10 5 5 10 14 19 23 27 31 30 26 23 25 25 23 24 23 21 18 15 17 16 16 15 14 14 14 15 16 17
12 12 12 11 11 11 11 11 11 12 13 14 15 13 12 13 12 11 10 10 9 9 10 8 8 8 9 10 10 9 10 11 11 11 10 11 12 13 15 16 17 18 19
13 12 10 10 9 8 9 9 9 9 8 9 10 9 8 8 7 6 5 4 3 5 6 7 7 7 8 9 9 9 9 10 12 12 13 14 14 14 16 16 17 18 18
11 12 11 9 9 8 7 7 7 7 8 8 6 4 4 4 3 3 2 2 3 4 5 5 7 8 9 9 9 11 12 13 13 14 15 15 16 16 17 17 17 18 19
11 11 11 10 9 9 9 8 8 7 7 6 6 7 6 5 4 2 2 2 3 4 5 6 7 8 10 11 13 14 14 15 15 15 15 15 16 16 17 18 19 19 20
13 12 12 11 11 11 11 11 10 10 10 9 8 7 7 7 7 7 7 7 7 7 8 9 10 11 12 13 14 14 14 15 15 16 16 17 17 18 19 19 20 20 20
16 14 13 13 13 12 13 13 12 12 12 11 11 10 10 10 10 10 10 10 11 11 12 12 13 14 14 15 15 15 15 15 16 16 16 17 18 19 19 19 19 19 20
17 17 16 15 15 15 15 15 15 14 14 13 13 13 12 12 12 12 13 13 13 14 14 15 15 15 15 15 15 15 16 16 17 17 17 18 18 19 19 19 19 20 21
17 17 17 17 16 15 16 16 15 15 15 14 14 14 13 13 13 14 14 14 14 15 15 15 15 15 15 15 15 16 17 17 18 18 18 18 19 19 19 20 20 21 22

GFSGL_700_spd_126.txt.gz
Wind_Speed
23 23 22 23 26 30 35 39 43 47 51 54 52 51 47 43 41 42 43 42 41 42 43 39 38 38 35 33 33 30 28 28 27 29 28 20 22 27 39 41 29 31 41
21 29 26 34 30 35 41 45 48 49 48 47 47 48 46 42 43 44 44 43 40 42 37 39 40 40 35 33 33 30 28 26 29 31 32 27 28 29 29 37 32 33 41
24 24 28 33 38 42 44 44 45 45 45 45 45 44 42 40 43 44 45 42 40 39 35 38 38 37 35 32 31 30 29 27 32 36 31 24 23 29 30 39 35 36 34
23 27 32 37 38 39 40 41 40 41 41 41 40 41 39 39 42 44 43 42 39 39 36 38 36 35 35 32 31 30 30 28 32 24 26 23 25 30 31 34 34 33 34
26 31 32 32 34 36 37 38 37 38 39 36 37 38 37 37 41 43 42 42 39 40 36 36 33 37 34 33 31 30 30 27 29 28 28 27 29 27 39 34 32 31 34
20 24 26 30 33 35 37 39 38 38 38 37 36 35 36 39 42 41 41 40 39 36 36 32 35 38 35 32 31 29 28 27 29 25 29 29 30 28 33 28 31 32 30
15 16 18 23 27 31 35 38 39 38 37 36 34 34 33 34 34 37 39 38 36 33 37 32 37 35 34 31 31 30 31 29 27 28 29 31 28 29 25 21 27 30 26
13 17 20 23 26 29 32 35 36 37 36 34 33 31 32 36 34 30 34 37 40 37 36 35 37 36 32 31 29 30 29 30 30 27 23 25 30 25 29 25 20 27 33
17 21 24 26 29 31 30 31 34 34 33 31 30 29 29 32 36 40 37 40 38 40 37 33 35 34 33 30 30 30 27 26 30 26 27 25 24 27 30 29 25 26 25
17 21 26 28 29 32 34 33 29 31 29 24 26 25 25 32 31 30 37 38 39 37 37 33 33 32 31 31 30 27 27 29 22 32 26 23 32 26 31 29 32 31 27
19 20 25 30 29 29 32 35 26 26 26 24 25 22 21 24 32 30 36 40 37 44 31 31 30 31 29 28 29 31 30 30 29 29 24 26 24 23 25 25 35 36 27
20 20 22 30 33 30 31 33 26 19 19 20 25 26 22 25 26 36 38 38 41 37 36 30 31 30 29 27 26 27 32 34 32 29 28 25 23 23 23 24 28 28 29
18 20 20 24 32 33 33 32 24 15 19 24 22 22 26 25 24 38 33 34 37 29 29 30 29 28 30 31 28 29 29 30 31 31 30 30 30 25 28 28 28 27 31
20 20 21 21 27 30 33 36 26 15 17 18 26 23 26 26 26 33 29 32 33 36 30 29 32 31 28 26 25 26 28 27 26 27 30 31 32 31 30 31 33 32 34
16 16 17 17 18 26 31 35 37 24 14 12 15 19 28 29 37 38 36 33 35 35 32 32 31 28 27 27 28 28 27 23 25 23 24 25 29 31 32 32 33 35 36
17 17 17 18 19 20 25 31 32 33 24 17 12 13 22 30 36 37 32 39 38 33 28 26 30 31 28 29 29 30 29 29 30 31 34 35 33 33 35 37 38 34 33
16 16 16 17 17 16 16 19 25 28 29 24 14 7 1 8 17 29 37 40 41 38 37 32 29 29 32 31 29 30 34 34 34 36 40 41 39 37 34 33 30 26 23
17 15 14 14 15 14 14 13 13 15 20 23 22 20 15 10 6 2 9 16 24 28 33 32 32 32 33 35 37 37 34 35 33 32 28 27 25 23 20 18 18 17 15
18 16 13 13 12 12 11 11 11 11 11 13 16 17 18 18 16 13 12 6 4 8 15 18 20 21 21 20 20 20 21 19 18 16 16 15 14 14 12 12 12 12 12
17 18 15 13 12 11 10 9 9 9 8 8 9 10 10 12 10 11 11 11 11 11 12 11 11 10 10 10 11 11 11 10 10 10 11 11 11 12 12 11 12 12 14
17 17 17 15 14 13 12 10 9 8 8 7 6 5 5 5 5 5 5 5 5 5 4 4 4 4 5 5 5 6 7 8 8 8 8 9 10 11 11 12 14 15 15
17 16 16 16 16 15 14 13 12 10 9 8 7 6 4 3 2 2 2 2 1 0 1 2 2 2 3 3 4 6 7 8 8 9 10 10 11 12 13 14 15 15 15
16 16 15 15 16 15 16 16 15 14 12 11 9 8 7 5 4 4 3 3 3 3 4 4 5 5 6 7 9 10 10 11 11 12 12 13 13 14 14 14 15 15 16
17 16 16 16 15 15 15 14 15 15 14 13 12 11 10 9 8 7 6 6 6 6 7 7 7 8 9 9 10 11 12 12 13 13 13 14 14 15 15 15 16 16 16
17 17 17 17 17 16 16 15 15 14 15 15 13 12 11 11 11 11 10 9 9 8 8 8 8 9 9 10 11 11 12 13 13 14 14 15 15 15 15 16 16 17 17
17 17 17 16 16 16 15 15 15 14 13 13 14 14 13 13 13 12 12 12 12 11 11 11 11 11 11 11 12 12 12 13 13 14 15 15 15 16 17 17 18 18 19

GFSGL_700_spd_129.txt.gz
Wind_Speed
31 32 34 29 30 32 32 32 30 29 33 35 37 40 43 45 46 46 46 41 41 41 42 42 41 43 43 43 38 36 36 35 32 28 23 22 21 23 23 29 37 35 29
26 29 27 29 27 26 27 27 30 33 36 41 45 46 47 47 45 45 44 41 43 44 44 44 41 41 42 42 38 36 35 32 32 29 26 27 25 25 20 19 28 36 34
24 20 22 24 30 33 32 36 39 40 42 43 44 44 45 45 44 43 42 41 43 44 42 45 41 40 37 38 39 38 35 31 31 30 28 27 28 27 26 27 31 33 42
24 22 24 27 27 28 32 35 37 41 43 43 42 43 44 42 43 42 41 42 44 42 45 45 41 40 36 39 40 38 35 33 31 30 31 29 31 28 27 30 25 30 42
14 19 20 22 28 33 37 39 40 41 41 41 43 42 42 43 42 41 42 43 45 42 45 46 39 38 35 36 36 34 37 35 32 32 32 32 31 25 29 24 25 32 35
11 14 20 22 23 28 31 34 37 40 42 43 43 42 42 42 41 41 41 41 43 41 43 43 40 37 35 34 37 34 36 36 33 34 34 31 29 30 28 24 27 36 39
7 6 9 11 15 18 21 25 31 36 40 42 43 43 41 42 42 41 40 38 39 40 43 42 41 37 39 35 37 40 39 37 33 29 30 32 26 24 26 29 26 38 33
6 7 11 15 18 21 24 25 26 27 30 33 36 39 40 39 39 37 33 34 38 37 41 41 39 39 37 39 40 39 38 37 31 30 28 29 26 28 29 27 30 26 21
11 13 15 17 20 22 25 28 31 30 28 29 31 33 36 35 36 34 31 33 35 42 43 39 38 44 37 39 37 38 36 35 28 27 29 26 25 25 25 28 27 29 23
12 13 16 18 21 26 28 28 28 31 30 28 28 28 30 32 33 33 30 40 42 39 36 41 41 37 39 39 39 37 36 30 28 32 33 28 27 26 25 24 28 31 26
13 15 16 17 21 26 29 30 30 30 30 26 23 24 25 28 26 27 35 36 42 46 38 38 42 42 42 35 37 35 28 27 31 33 29 29 33 29 24 29 28 29 27
16 16 16 16 17 23 28 30 30 29 27 22 20 19 24 32 26 29 29 32 34 33 37 38 43 39 35 39 34 35 35 34 29 30 35 28 32 28 25 26 31 32 27
15 15 16 16 16 18 23 26 28 26 24 21 19 19 23 26 29 23 29 29 25 32 37 36 31 33 37 32 35 31 34 35 33 33 35 33 33 29 28 29 26 27 26
17 17 17 16 15 15 18 23 23 27 22 20 18 22 28 25 27 27 28 24 36 34 42 35 30 39 41 34 30 33 32 31 30 35 35 37 33 27 30 26 29 31 27
17 17 17 18 19 18 17 21 26 27 32 28 19 16 21 22 27 24 27 27 31 33 35 32 32 34 29 29 33 35 36 37 35 34 33 35 32 32 33 29 32 31 32
15 16 16 15 15 17 17 16 20 23 26 30 34 24 16 13 18 22 27 36 36 33 34 34 34 35 36 37 35 32 32 31 33 32 30 29 30 32 33 35 36 36 38
15 15 15 16 16 15 15 17 18 19 22 24 28 32 25 15 10 11 18 28 32 37 34 32 32 36 37 33 34 33 32 31 30 26 28 34 33 35 36 36 37 35 34
16 15 15 15 16 16 16 14 14 12 13 15 18 23 26 26 18 11 4 8 17 23 26 31 29 34 37 38 36 36 36 35 38 35 37 39 40 38 37 36 33 30 27
16 15 15 15 15 15 15 14 14 14 14 14 15 15 17 18 22 22 19 9 2 6 15 20 21 23 25 29 32 34 34 35 34 37 37 34 30 27 25 24 22 20 20
16 16 15 15 14 14 14 15 13 13 12 12 12 12 12 12 11 13 14 16 14 12 11 8 9 11 13 13 13 14 15 16 17 17 16 17 16 16 17 17 16 14 14
17 16 15 15 14 13 13 14 14 14 12 11 11 11 10 9 8 8 8 8 8 9 10 11 11 11 11 11 11 12 12 12 13 13 14 13 12 11 10 10 11 11 12
17 17 16 15 15 14 14 13 13 13 13 12 11 10 10 9 9 8 6 4 2 2 2 3 5 6 7 8 9 9 10 9 9 9 9 9 10 10 11 12 12 13 14
17 17 17 16 16 14 14 13 13 13 12 12 11 10 10 9 8 7 6 5 5 5 4 4 3 2 2 3 3 4 4 5 6 6 7 8 9 10 11 12 13 13 13
16 17 17 17 16 15 14 13 12 12 12 11 11 10 10 9 9 8 8 6 5 5 4 4 4 4 4 4 4 5 5 6 7 8 9 10 10 11 12 12 11 11 11
16 16 16 16 16 16 15 14 13 12 11 11 10 10 10 10 10 9 9 8 8 7 7 6 7 7 7 7 7 7 8 8 8 9 9 9 10 10 11 11 12 12 13
17 17 16 15 15 15 15 14 13 12 11 11 11 10 9 9 9 8 8 8 8 8 8 8 8 8 8 9 9 8 9 9 9 10 10 11 11 11 12 12 13 13 14